<?xml version="1.0" encoding="UTF-8" standalone="no" ?>
<gpx xmlns="http://www.topografix.com/GPX/1/1" xmlns:xsi="http://www.w3.org/2001/XMLSchema-instance" xsi:schemaLocation="http://www.topografix.com/GPX/1/1 http://www.topografix.com/GPX/1/1/gpx.xsd" version="1.1" creator="VisuGPX - https://www.visugpx.com">
  <metadata>
    <name>Bourg Saint Andèol-Vallon pont d'arc 2021-09-10</name>
    <desc><![CDATA[
]]></desc>
  </metadata>
  <trk>
    <name><![CDATA[TRK-2021-09-10]]></name>
    <trkseg>
      <trkpt lat="44.39261" lon="4.5033">
        <ele>327.38464</ele>
        <time>2021-09-10T10:07:10</time>
      </trkpt>
      <trkpt lat="44.39262" lon="4.5033">
        <ele>314.48465</ele>
        <time>2021-09-10T10:07:41</time>
      </trkpt>
      <trkpt lat="44.39261" lon="4.50329">
        <ele>314.38464</ele>
        <time>2021-09-10T10:07:52</time>
      </trkpt>
      <trkpt lat="44.39262" lon="4.5033">
        <ele>314.38464</ele>
        <time>2021-09-10T10:07:53</time>
      </trkpt>
      <trkpt lat="44.39264" lon="4.50327">
        <ele>314.58466</ele>
        <time>2021-09-10T10:07:57</time>
      </trkpt>
      <trkpt lat="44.39264" lon="4.50327">
        <ele>314.58466</ele>
        <time>2021-09-10T10:07:58</time>
      </trkpt>
      <trkpt lat="44.39265" lon="4.50327">
        <ele>314.58466</ele>
        <time>2021-09-10T10:07:59</time>
      </trkpt>
      <trkpt lat="44.39265" lon="4.50326">
        <ele>314.58466</ele>
        <time>2021-09-10T10:08:00</time>
      </trkpt>
      <trkpt lat="44.39264" lon="4.50326">
        <ele>311.98465</ele>
        <time>2021-09-10T10:08:19</time>
      </trkpt>
      <trkpt lat="44.39265" lon="4.50326">
        <ele>311.98465</ele>
        <time>2021-09-10T10:08:20</time>
      </trkpt>
      <trkpt lat="44.39265" lon="4.50324">
        <ele>311.98465</ele>
        <time>2021-09-10T10:08:22</time>
      </trkpt>
      <trkpt lat="44.39265" lon="4.50325">
        <ele>311.98465</ele>
        <time>2021-09-10T10:08:23</time>
      </trkpt>
      <trkpt lat="44.39266" lon="4.50325">
        <ele>311.98465</ele>
        <time>2021-09-10T10:08:24</time>
      </trkpt>
      <trkpt lat="44.39266" lon="4.50322">
        <ele>312.28467</ele>
        <time>2021-09-10T10:08:26</time>
      </trkpt>
      <trkpt lat="44.39266" lon="4.50322">
        <ele>312.98465</ele>
        <time>2021-09-10T10:08:47</time>
      </trkpt>
      <trkpt lat="44.39266" lon="4.50322">
        <ele>312.98465</ele>
        <time>2021-09-10T10:08:48</time>
      </trkpt>
      <trkpt lat="44.39266" lon="4.50322">
        <ele>312.98465</ele>
        <time>2021-09-10T10:08:50</time>
      </trkpt>
      <trkpt lat="44.39266" lon="4.50323">
        <ele>312.98465</ele>
        <time>2021-09-10T10:08:51</time>
      </trkpt>
      <trkpt lat="44.39267" lon="4.50323">
        <ele>311.48465</ele>
        <time>2021-09-10T10:09:05</time>
      </trkpt>
      <trkpt lat="44.39267" lon="4.50322">
        <ele>311.48465</ele>
        <time>2021-09-10T10:09:06</time>
      </trkpt>
      <trkpt lat="44.39267" lon="4.50323">
        <ele>311.48465</ele>
        <time>2021-09-10T10:09:08</time>
      </trkpt>
      <trkpt lat="44.39267" lon="4.50323">
        <ele>311.48465</ele>
        <time>2021-09-10T10:09:09</time>
      </trkpt>
      <trkpt lat="44.39267" lon="4.50322">
        <ele>312.08466</ele>
        <time>2021-09-10T10:09:22</time>
      </trkpt>
      <trkpt lat="44.39266" lon="4.50322">
        <ele>312.08466</ele>
        <time>2021-09-10T10:09:23</time>
      </trkpt>
      <trkpt lat="44.39265" lon="4.50321">
        <ele>311.78467</ele>
        <time>2021-09-10T10:10:09</time>
      </trkpt>
      <trkpt lat="44.39265" lon="4.50321">
        <ele>311.78467</ele>
        <time>2021-09-10T10:10:39</time>
      </trkpt>
      <trkpt lat="44.39265" lon="4.50321">
        <ele>311.78467</ele>
        <time>2021-09-10T10:10:49</time>
      </trkpt>
      <trkpt lat="44.39264" lon="4.5032">
        <ele>311.78467</ele>
        <time>2021-09-10T10:10:50</time>
      </trkpt>
      <trkpt lat="44.39262" lon="4.50319">
        <ele>311.78467</ele>
        <time>2021-09-10T10:10:52</time>
      </trkpt>
      <trkpt lat="44.39259" lon="4.50319">
        <ele>311.78467</ele>
        <time>2021-09-10T10:10:54</time>
      </trkpt>
      <trkpt lat="44.39257" lon="4.50321">
        <ele>311.78467</ele>
        <time>2021-09-10T10:10:55</time>
      </trkpt>
      <trkpt lat="44.39253" lon="4.50325">
        <ele>311.78467</ele>
        <time>2021-09-10T10:10:57</time>
      </trkpt>
      <trkpt lat="44.39252" lon="4.50329">
        <ele>311.78467</ele>
        <time>2021-09-10T10:10:58</time>
      </trkpt>
      <trkpt lat="44.39252" lon="4.50333">
        <ele>311.78467</ele>
        <time>2021-09-10T10:10:59</time>
      </trkpt>
      <trkpt lat="44.39253" lon="4.50342">
        <ele>311.78467</ele>
        <time>2021-09-10T10:11:01</time>
      </trkpt>
      <trkpt lat="44.39252" lon="4.50351">
        <ele>311.78467</ele>
        <time>2021-09-10T10:11:03</time>
      </trkpt>
      <trkpt lat="44.39242" lon="4.5048">
        <ele>315.48465</ele>
        <time>2021-09-10T10:11:33</time>
      </trkpt>
      <trkpt lat="44.39241" lon="4.50491">
        <ele>316.18466</ele>
        <time>2021-09-10T10:11:36</time>
      </trkpt>
      <trkpt lat="44.39239" lon="4.50495">
        <ele>316.18466</ele>
        <time>2021-09-10T10:11:39</time>
      </trkpt>
      <trkpt lat="44.39236" lon="4.50497">
        <ele>317.01797</ele>
        <time>2021-09-10T10:11:53</time>
      </trkpt>
      <trkpt lat="44.39237" lon="4.505">
        <ele>318.18466</ele>
        <time>2021-09-10T10:11:55</time>
      </trkpt>
      <trkpt lat="44.39241" lon="4.50503">
        <ele>318.18466</ele>
        <time>2021-09-10T10:11:57</time>
      </trkpt>
      <trkpt lat="44.39246" lon="4.50509">
        <ele>318.18466</ele>
        <time>2021-09-10T10:11:59</time>
      </trkpt>
      <trkpt lat="44.39248" lon="4.50513">
        <ele>318.18466</ele>
        <time>2021-09-10T10:12:00</time>
      </trkpt>
      <trkpt lat="44.39249" lon="4.50517">
        <ele>318.18466</ele>
        <time>2021-09-10T10:12:01</time>
      </trkpt>
      <trkpt lat="44.3925" lon="4.5052">
        <ele>318.18466</ele>
        <time>2021-09-10T10:12:02</time>
      </trkpt>
      <trkpt lat="44.39251" lon="4.50525">
        <ele>318.18466</ele>
        <time>2021-09-10T10:12:03</time>
      </trkpt>
      <trkpt lat="44.3925" lon="4.5053">
        <ele>318.18466</ele>
        <time>2021-09-10T10:12:04</time>
      </trkpt>
      <trkpt lat="44.39246" lon="4.50544">
        <ele>321.48465</ele>
        <time>2021-09-10T10:12:07</time>
      </trkpt>
      <trkpt lat="44.39245" lon="4.50549">
        <ele>321.48465</ele>
        <time>2021-09-10T10:12:08</time>
      </trkpt>
      <trkpt lat="44.39239" lon="4.50567">
        <ele>321.48465</ele>
        <time>2021-09-10T10:12:12</time>
      </trkpt>
      <trkpt lat="44.39238" lon="4.50572">
        <ele>321.48465</ele>
        <time>2021-09-10T10:12:13</time>
      </trkpt>
      <trkpt lat="44.39213" lon="4.50706">
        <ele>322.28467</ele>
        <time>2021-09-10T10:12:43</time>
      </trkpt>
      <trkpt lat="44.39209" lon="4.50732">
        <ele>322.28467</ele>
        <time>2021-09-10T10:12:49</time>
      </trkpt>
      <trkpt lat="44.39208" lon="4.50736">
        <ele>322.28467</ele>
        <time>2021-09-10T10:12:50</time>
      </trkpt>
      <trkpt lat="44.39199" lon="4.50767">
        <ele>325.08466</ele>
        <time>2021-09-10T10:12:57</time>
      </trkpt>
      <trkpt lat="44.39196" lon="4.50779">
        <ele>325.08466</ele>
        <time>2021-09-10T10:13:00</time>
      </trkpt>
      <trkpt lat="44.39182" lon="4.50835">
        <ele>325.08466</ele>
        <time>2021-09-10T10:13:12</time>
      </trkpt>
      <trkpt lat="44.3918" lon="4.50845">
        <ele>325.08466</ele>
        <time>2021-09-10T10:13:14</time>
      </trkpt>
      <trkpt lat="44.39179" lon="4.5085">
        <ele>325.08466</ele>
        <time>2021-09-10T10:13:15</time>
      </trkpt>
      <trkpt lat="44.39176" lon="4.50867">
        <ele>325.08466</ele>
        <time>2021-09-10T10:13:19</time>
      </trkpt>
      <trkpt lat="44.39166" lon="4.50918">
        <ele>325.08466</ele>
        <time>2021-09-10T10:13:30</time>
      </trkpt>
      <trkpt lat="44.39159" lon="4.50945">
        <ele>325.08466</ele>
        <time>2021-09-10T10:13:36</time>
      </trkpt>
      <trkpt lat="44.39156" lon="4.5096">
        <ele>325.08466</ele>
        <time>2021-09-10T10:13:39</time>
      </trkpt>
      <trkpt lat="44.39153" lon="4.50974">
        <ele>325.08466</ele>
        <time>2021-09-10T10:13:42</time>
      </trkpt>
      <trkpt lat="44.39148" lon="4.50994">
        <ele>325.08466</ele>
        <time>2021-09-10T10:13:46</time>
      </trkpt>
      <trkpt lat="44.39141" lon="4.51024">
        <ele>325.08466</ele>
        <time>2021-09-10T10:13:53</time>
      </trkpt>
      <trkpt lat="44.39134" lon="4.51046">
        <ele>325.08466</ele>
        <time>2021-09-10T10:13:58</time>
      </trkpt>
      <trkpt lat="44.39131" lon="4.51051">
        <ele>325.08466</ele>
        <time>2021-09-10T10:13:59</time>
      </trkpt>
      <trkpt lat="44.39127" lon="4.51059">
        <ele>325.08466</ele>
        <time>2021-09-10T10:14:01</time>
      </trkpt>
      <trkpt lat="44.39119" lon="4.51072">
        <ele>325.08466</ele>
        <time>2021-09-10T10:14:04</time>
      </trkpt>
      <trkpt lat="44.39112" lon="4.51079">
        <ele>325.08466</ele>
        <time>2021-09-10T10:14:06</time>
      </trkpt>
      <trkpt lat="44.39086" lon="4.51103">
        <ele>325.08466</ele>
        <time>2021-09-10T10:14:14</time>
      </trkpt>
      <trkpt lat="44.38942" lon="4.51183">
        <ele>325.08466</ele>
        <time>2021-09-10T10:14:43</time>
      </trkpt>
      <trkpt lat="44.38917" lon="4.51192">
        <ele>325.08466</ele>
        <time>2021-09-10T10:14:48</time>
      </trkpt>
      <trkpt lat="44.38907" lon="4.51192">
        <ele>325.08466</ele>
        <time>2021-09-10T10:14:50</time>
      </trkpt>
      <trkpt lat="44.38897" lon="4.51189">
        <ele>325.08466</ele>
        <time>2021-09-10T10:14:52</time>
      </trkpt>
      <trkpt lat="44.38856" lon="4.51168">
        <ele>325.08466</ele>
        <time>2021-09-10T10:15:00</time>
      </trkpt>
      <trkpt lat="44.38718" lon="4.51097">
        <ele>322.98465</ele>
        <time>2021-09-10T10:15:30</time>
      </trkpt>
      <trkpt lat="44.38608" lon="4.51031">
        <ele>322.98465</ele>
        <time>2021-09-10T10:15:55</time>
      </trkpt>
      <trkpt lat="44.38491" lon="4.50918">
        <ele>326.78467</ele>
        <time>2021-09-10T10:16:25</time>
      </trkpt>
      <trkpt lat="44.38475" lon="4.50902">
        <ele>326.78467</ele>
        <time>2021-09-10T10:16:30</time>
      </trkpt>
      <trkpt lat="44.38461" lon="4.5089">
        <ele>326.78467</ele>
        <time>2021-09-10T10:16:34</time>
      </trkpt>
      <trkpt lat="44.3836" lon="4.50766">
        <ele>327.28467</ele>
        <time>2021-09-10T10:17:04</time>
      </trkpt>
      <trkpt lat="44.38257" lon="4.50644">
        <ele>327.28467</ele>
        <time>2021-09-10T10:17:35</time>
      </trkpt>
      <trkpt lat="44.3824" lon="4.50623">
        <ele>332.38464</ele>
        <time>2021-09-10T10:17:40</time>
      </trkpt>
      <trkpt lat="44.38187" lon="4.50576">
        <ele>331.78467</ele>
        <time>2021-09-10T10:17:55</time>
      </trkpt>
      <trkpt lat="44.38115" lon="4.50521">
        <ele>331.78467</ele>
        <time>2021-09-10T10:18:14</time>
      </trkpt>
      <trkpt lat="44.38104" lon="4.50511">
        <ele>331.78467</ele>
        <time>2021-09-10T10:18:17</time>
      </trkpt>
      <trkpt lat="44.38073" lon="4.50488">
        <ele>331.78467</ele>
        <time>2021-09-10T10:18:24</time>
      </trkpt>
      <trkpt lat="44.38056" lon="4.50469">
        <ele>331.78467</ele>
        <time>2021-09-10T10:18:28</time>
      </trkpt>
      <trkpt lat="44.38014" lon="4.50406">
        <ele>331.78467</ele>
        <time>2021-09-10T10:18:39</time>
      </trkpt>
      <trkpt lat="44.3796" lon="4.50332">
        <ele>340.88464</ele>
        <time>2021-09-10T10:18:52</time>
      </trkpt>
      <trkpt lat="44.37933" lon="4.50306">
        <ele>338.58466</ele>
        <time>2021-09-10T10:18:58</time>
      </trkpt>
      <trkpt lat="44.3787" lon="4.50268">
        <ele>338.58466</ele>
        <time>2021-09-10T10:19:10</time>
      </trkpt>
      <trkpt lat="44.37859" lon="4.50264">
        <ele>338.58466</ele>
        <time>2021-09-10T10:19:12</time>
      </trkpt>
      <trkpt lat="44.37847" lon="4.50261">
        <ele>338.58466</ele>
        <time>2021-09-10T10:19:14</time>
      </trkpt>
      <trkpt lat="44.3784" lon="4.50262">
        <ele>338.58466</ele>
        <time>2021-09-10T10:19:15</time>
      </trkpt>
      <trkpt lat="44.37828" lon="4.50265">
        <ele>338.58466</ele>
        <time>2021-09-10T10:19:17</time>
      </trkpt>
      <trkpt lat="44.37822" lon="4.50269">
        <ele>338.58466</ele>
        <time>2021-09-10T10:19:18</time>
      </trkpt>
      <trkpt lat="44.37817" lon="4.50272">
        <ele>338.58466</ele>
        <time>2021-09-10T10:19:19</time>
      </trkpt>
      <trkpt lat="44.37807" lon="4.50287">
        <ele>338.58466</ele>
        <time>2021-09-10T10:19:21</time>
      </trkpt>
      <trkpt lat="44.37802" lon="4.50302">
        <ele>338.58466</ele>
        <time>2021-09-10T10:19:23</time>
      </trkpt>
      <trkpt lat="44.37779" lon="4.5037">
        <ele>337.18466</ele>
        <time>2021-09-10T10:19:31</time>
      </trkpt>
      <trkpt lat="44.37743" lon="4.50434">
        <ele>332.61798</ele>
        <time>2021-09-10T10:19:39</time>
      </trkpt>
      <trkpt lat="44.37723" lon="4.50463">
        <ele>332.61798</ele>
        <time>2021-09-10T10:19:43</time>
      </trkpt>
      <trkpt lat="44.3772" lon="4.50467">
        <ele>332.61798</ele>
        <time>2021-09-10T10:19:44</time>
      </trkpt>
      <trkpt lat="44.37714" lon="4.50468">
        <ele>332.61798</ele>
        <time>2021-09-10T10:19:45</time>
      </trkpt>
      <trkpt lat="44.37707" lon="4.50468">
        <ele>332.61798</ele>
        <time>2021-09-10T10:19:46</time>
      </trkpt>
      <trkpt lat="44.37666" lon="4.50458">
        <ele>332.61798</ele>
        <time>2021-09-10T10:19:52</time>
      </trkpt>
      <trkpt lat="44.37652" lon="4.50462">
        <ele>332.61798</ele>
        <time>2021-09-10T10:19:54</time>
      </trkpt>
      <trkpt lat="44.37633" lon="4.50474">
        <ele>329.48465</ele>
        <time>2021-09-10T10:19:57</time>
      </trkpt>
      <trkpt lat="44.37625" lon="4.50479">
        <ele>329.48465</ele>
        <time>2021-09-10T10:19:58</time>
      </trkpt>
      <trkpt lat="44.37602" lon="4.5049">
        <ele>329.48465</ele>
        <time>2021-09-10T10:20:01</time>
      </trkpt>
      <trkpt lat="44.37585" lon="4.50491">
        <ele>329.48465</ele>
        <time>2021-09-10T10:20:03</time>
      </trkpt>
      <trkpt lat="44.37566" lon="4.50489">
        <ele>329.48465</ele>
        <time>2021-09-10T10:20:05</time>
      </trkpt>
      <trkpt lat="44.37494" lon="4.50474">
        <ele>329.48465</ele>
        <time>2021-09-10T10:20:14</time>
      </trkpt>
      <trkpt lat="44.37486" lon="4.50475">
        <ele>329.48465</ele>
        <time>2021-09-10T10:20:15</time>
      </trkpt>
      <trkpt lat="44.37472" lon="4.50482">
        <ele>320.48465</ele>
        <time>2021-09-10T10:20:17</time>
      </trkpt>
      <trkpt lat="44.3745" lon="4.50493">
        <ele>320.48465</ele>
        <time>2021-09-10T10:20:20</time>
      </trkpt>
      <trkpt lat="44.37413" lon="4.50523">
        <ele>320.48465</ele>
        <time>2021-09-10T10:20:25</time>
      </trkpt>
      <trkpt lat="44.37338" lon="4.50595">
        <ele>320.48465</ele>
        <time>2021-09-10T10:20:38</time>
      </trkpt>
      <trkpt lat="44.37331" lon="4.50606">
        <ele>320.48465</ele>
        <time>2021-09-10T10:20:40</time>
      </trkpt>
      <trkpt lat="44.37323" lon="4.50621">
        <ele>320.48465</ele>
        <time>2021-09-10T10:20:44</time>
      </trkpt>
      <trkpt lat="44.37321" lon="4.50624">
        <ele>320.48465</ele>
        <time>2021-09-10T10:20:47</time>
      </trkpt>
      <trkpt lat="44.37322" lon="4.50624">
        <ele>320.48465</ele>
        <time>2021-09-10T10:20:49</time>
      </trkpt>
      <trkpt lat="44.37322" lon="4.50624">
        <ele>320.48465</ele>
        <time>2021-09-10T10:20:50</time>
      </trkpt>
      <trkpt lat="44.37322" lon="4.50625">
        <ele>320.48465</ele>
        <time>2021-09-10T10:20:54</time>
      </trkpt>
      <trkpt lat="44.37322" lon="4.50626">
        <ele>320.48465</ele>
        <time>2021-09-10T10:20:55</time>
      </trkpt>
      <trkpt lat="44.3732" lon="4.50626">
        <ele>320.58466</ele>
        <time>2021-09-10T10:21:25</time>
      </trkpt>
      <trkpt lat="44.3732" lon="4.50626">
        <ele>320.58466</ele>
        <time>2021-09-10T10:21:34</time>
      </trkpt>
      <trkpt lat="44.3732" lon="4.50628">
        <ele>320.58466</ele>
        <time>2021-09-10T10:21:35</time>
      </trkpt>
      <trkpt lat="44.37319" lon="4.50631">
        <ele>320.78467</ele>
        <time>2021-09-10T10:21:37</time>
      </trkpt>
      <trkpt lat="44.37304" lon="4.50678">
        <ele>322.18466</ele>
        <time>2021-09-10T10:21:46</time>
      </trkpt>
      <trkpt lat="44.37299" lon="4.50702">
        <ele>322.18466</ele>
        <time>2021-09-10T10:21:51</time>
      </trkpt>
      <trkpt lat="44.373" lon="4.50702">
        <ele>322.18466</ele>
        <time>2021-09-10T10:21:54</time>
      </trkpt>
      <trkpt lat="44.37299" lon="4.50703">
        <ele>322.18466</ele>
        <time>2021-09-10T10:21:55</time>
      </trkpt>
      <trkpt lat="44.37298" lon="4.507">
        <ele>322.18466</ele>
        <time>2021-09-10T10:21:56</time>
      </trkpt>
      <trkpt lat="44.37297" lon="4.50698">
        <ele>322.18466</ele>
        <time>2021-09-10T10:21:58</time>
      </trkpt>
      <trkpt lat="44.37296" lon="4.50696">
        <ele>322.18466</ele>
        <time>2021-09-10T10:22:01</time>
      </trkpt>
      <trkpt lat="44.37296" lon="4.50695">
        <ele>322.18466</ele>
        <time>2021-09-10T10:22:05</time>
      </trkpt>
      <trkpt lat="44.37292" lon="4.50687">
        <ele>320.88464</ele>
        <time>2021-09-10T10:22:11</time>
      </trkpt>
      <trkpt lat="44.3729" lon="4.50679">
        <ele>318.88464</ele>
        <time>2021-09-10T10:22:17</time>
      </trkpt>
      <trkpt lat="44.37289" lon="4.50675">
        <ele>318.88464</ele>
        <time>2021-09-10T10:22:20</time>
      </trkpt>
      <trkpt lat="44.3729" lon="4.50676">
        <ele>318.88464</ele>
        <time>2021-09-10T10:22:21</time>
      </trkpt>
      <trkpt lat="44.3729" lon="4.50676">
        <ele>318.88464</ele>
        <time>2021-09-10T10:22:22</time>
      </trkpt>
      <trkpt lat="44.3729" lon="4.50677">
        <ele>321.58466</ele>
        <time>2021-09-10T10:22:42</time>
      </trkpt>
      <trkpt lat="44.3729" lon="4.50677">
        <ele>321.58466</ele>
        <time>2021-09-10T10:22:43</time>
      </trkpt>
      <trkpt lat="44.3729" lon="4.50679">
        <ele>321.58466</ele>
        <time>2021-09-10T10:22:45</time>
      </trkpt>
      <trkpt lat="44.37291" lon="4.50682">
        <ele>320.38464</ele>
        <time>2021-09-10T10:22:48</time>
      </trkpt>
      <trkpt lat="44.3729" lon="4.50686">
        <ele>320.38464</ele>
        <time>2021-09-10T10:22:52</time>
      </trkpt>
      <trkpt lat="44.37296" lon="4.50696">
        <ele>321.51797</ele>
        <time>2021-09-10T10:23:02</time>
      </trkpt>
      <trkpt lat="44.37296" lon="4.50696">
        <ele>321.51797</ele>
        <time>2021-09-10T10:23:03</time>
      </trkpt>
      <trkpt lat="44.37296" lon="4.50696">
        <ele>321.51797</ele>
        <time>2021-09-10T10:23:05</time>
      </trkpt>
      <trkpt lat="44.37296" lon="4.50696">
        <ele>323.58466</ele>
        <time>2021-09-10T10:23:06</time>
      </trkpt>
      <trkpt lat="44.37296" lon="4.50697">
        <ele>323.58466</ele>
        <time>2021-09-10T10:23:08</time>
      </trkpt>
      <trkpt lat="44.37298" lon="4.50704">
        <ele>323.58466</ele>
        <time>2021-09-10T10:23:13</time>
      </trkpt>
      <trkpt lat="44.37299" lon="4.50704">
        <ele>323.58466</ele>
        <time>2021-09-10T10:23:16</time>
      </trkpt>
      <trkpt lat="44.37299" lon="4.50704">
        <ele>323.58466</ele>
        <time>2021-09-10T10:23:18</time>
      </trkpt>
      <trkpt lat="44.37299" lon="4.50706">
        <ele>323.58466</ele>
        <time>2021-09-10T10:23:19</time>
      </trkpt>
      <trkpt lat="44.37304" lon="4.5076">
        <ele>322.68466</ele>
        <time>2021-09-10T10:23:29</time>
      </trkpt>
      <trkpt lat="44.37304" lon="4.50776">
        <ele>322.68466</ele>
        <time>2021-09-10T10:23:31</time>
      </trkpt>
      <trkpt lat="44.37306" lon="4.50832">
        <ele>320.01797</ele>
        <time>2021-09-10T10:23:37</time>
      </trkpt>
      <trkpt lat="44.37304" lon="4.5084">
        <ele>320.01797</ele>
        <time>2021-09-10T10:23:38</time>
      </trkpt>
      <trkpt lat="44.37297" lon="4.50858">
        <ele>320.01797</ele>
        <time>2021-09-10T10:23:40</time>
      </trkpt>
      <trkpt lat="44.37291" lon="4.50864">
        <ele>320.01797</ele>
        <time>2021-09-10T10:23:41</time>
      </trkpt>
      <trkpt lat="44.37279" lon="4.50869">
        <ele>320.01797</ele>
        <time>2021-09-10T10:23:43</time>
      </trkpt>
      <trkpt lat="44.37256" lon="4.50873">
        <ele>319.48465</ele>
        <time>2021-09-10T10:23:47</time>
      </trkpt>
      <trkpt lat="44.37243" lon="4.50882">
        <ele>319.48465</ele>
        <time>2021-09-10T10:23:49</time>
      </trkpt>
      <trkpt lat="44.37238" lon="4.50888">
        <ele>319.48465</ele>
        <time>2021-09-10T10:23:50</time>
      </trkpt>
      <trkpt lat="44.37235" lon="4.50894">
        <ele>319.48465</ele>
        <time>2021-09-10T10:23:51</time>
      </trkpt>
      <trkpt lat="44.37222" lon="4.50919">
        <ele>319.48465</ele>
        <time>2021-09-10T10:23:54</time>
      </trkpt>
      <trkpt lat="44.37203" lon="4.50964">
        <ele>319.48465</ele>
        <time>2021-09-10T10:23:59</time>
      </trkpt>
      <trkpt lat="44.37195" lon="4.50993">
        <ele>319.48465</ele>
        <time>2021-09-10T10:24:02</time>
      </trkpt>
      <trkpt lat="44.37189" lon="4.51034">
        <ele>311.98465</ele>
        <time>2021-09-10T10:24:06</time>
      </trkpt>
      <trkpt lat="44.37188" lon="4.51065">
        <ele>311.98465</ele>
        <time>2021-09-10T10:24:09</time>
      </trkpt>
      <trkpt lat="44.37187" lon="4.51141">
        <ele>309.38464</ele>
        <time>2021-09-10T10:24:16</time>
      </trkpt>
      <trkpt lat="44.37184" lon="4.51152">
        <ele>309.38464</ele>
        <time>2021-09-10T10:24:17</time>
      </trkpt>
      <trkpt lat="44.37178" lon="4.51172">
        <ele>309.38464</ele>
        <time>2021-09-10T10:24:19</time>
      </trkpt>
      <trkpt lat="44.3717" lon="4.5119">
        <ele>309.38464</ele>
        <time>2021-09-10T10:24:21</time>
      </trkpt>
      <trkpt lat="44.37158" lon="4.51204">
        <ele>309.38464</ele>
        <time>2021-09-10T10:24:23</time>
      </trkpt>
      <trkpt lat="44.37129" lon="4.51234">
        <ele>307.08466</ele>
        <time>2021-09-10T10:24:28</time>
      </trkpt>
      <trkpt lat="44.37019" lon="4.51337">
        <ele>307.08466</ele>
        <time>2021-09-10T10:24:45</time>
      </trkpt>
      <trkpt lat="44.37006" lon="4.51346">
        <ele>307.08466</ele>
        <time>2021-09-10T10:24:47</time>
      </trkpt>
      <trkpt lat="44.36972" lon="4.51378">
        <ele>307.08466</ele>
        <time>2021-09-10T10:24:54</time>
      </trkpt>
      <trkpt lat="44.36964" lon="4.51386">
        <ele>307.08466</ele>
        <time>2021-09-10T10:24:56</time>
      </trkpt>
      <trkpt lat="44.3696" lon="4.51389">
        <ele>307.08466</ele>
        <time>2021-09-10T10:24:57</time>
      </trkpt>
      <trkpt lat="44.36955" lon="4.51394">
        <ele>307.08466</ele>
        <time>2021-09-10T10:24:58</time>
      </trkpt>
      <trkpt lat="44.3695" lon="4.51399">
        <ele>307.08466</ele>
        <time>2021-09-10T10:24:59</time>
      </trkpt>
      <trkpt lat="44.3685" lon="4.51513">
        <ele>307.08466</ele>
        <time>2021-09-10T10:25:18</time>
      </trkpt>
      <trkpt lat="44.36815" lon="4.51552">
        <ele>307.08466</ele>
        <time>2021-09-10T10:25:24</time>
      </trkpt>
      <trkpt lat="44.36805" lon="4.51566">
        <ele>307.08466</ele>
        <time>2021-09-10T10:25:26</time>
      </trkpt>
      <trkpt lat="44.36767" lon="4.51615">
        <ele>307.08466</ele>
        <time>2021-09-10T10:25:34</time>
      </trkpt>
      <trkpt lat="44.36751" lon="4.51658">
        <ele>307.08466</ele>
        <time>2021-09-10T10:25:40</time>
      </trkpt>
      <trkpt lat="44.36743" lon="4.51698">
        <ele>307.08466</ele>
        <time>2021-09-10T10:25:45</time>
      </trkpt>
      <trkpt lat="44.36737" lon="4.51764">
        <ele>307.08466</ele>
        <time>2021-09-10T10:25:52</time>
      </trkpt>
      <trkpt lat="44.36731" lon="4.51897">
        <ele>289.68466</ele>
        <time>2021-09-10T10:26:06</time>
      </trkpt>
      <trkpt lat="44.36734" lon="4.51917">
        <ele>289.68466</ele>
        <time>2021-09-10T10:26:08</time>
      </trkpt>
      <trkpt lat="44.36739" lon="4.51935">
        <ele>289.68466</ele>
        <time>2021-09-10T10:26:10</time>
      </trkpt>
      <trkpt lat="44.36748" lon="4.51953">
        <ele>289.68466</ele>
        <time>2021-09-10T10:26:12</time>
      </trkpt>
      <trkpt lat="44.36753" lon="4.51961">
        <ele>289.68466</ele>
        <time>2021-09-10T10:26:13</time>
      </trkpt>
      <trkpt lat="44.36769" lon="4.51983">
        <ele>293.28467</ele>
        <time>2021-09-10T10:26:16</time>
      </trkpt>
      <trkpt lat="44.36793" lon="4.5201">
        <ele>293.28467</ele>
        <time>2021-09-10T10:26:21</time>
      </trkpt>
      <trkpt lat="44.36878" lon="4.52079">
        <ele>293.28467</ele>
        <time>2021-09-10T10:26:34</time>
      </trkpt>
      <trkpt lat="44.36888" lon="4.52083">
        <ele>286.28467</ele>
        <time>2021-09-10T10:26:36</time>
      </trkpt>
      <trkpt lat="44.36968" lon="4.52107">
        <ele>285.18466</ele>
        <time>2021-09-10T10:26:50</time>
      </trkpt>
      <trkpt lat="44.36973" lon="4.52112">
        <ele>285.18466</ele>
        <time>2021-09-10T10:26:51</time>
      </trkpt>
      <trkpt lat="44.36976" lon="4.52119">
        <ele>285.18466</ele>
        <time>2021-09-10T10:26:52</time>
      </trkpt>
      <trkpt lat="44.36978" lon="4.52128">
        <ele>285.18466</ele>
        <time>2021-09-10T10:26:53</time>
      </trkpt>
      <trkpt lat="44.36979" lon="4.52136">
        <ele>285.18466</ele>
        <time>2021-09-10T10:26:54</time>
      </trkpt>
      <trkpt lat="44.36975" lon="4.52145">
        <ele>285.18466</ele>
        <time>2021-09-10T10:26:55</time>
      </trkpt>
      <trkpt lat="44.36972" lon="4.52152">
        <ele>276.98465</ele>
        <time>2021-09-10T10:26:56</time>
      </trkpt>
      <trkpt lat="44.36957" lon="4.52172">
        <ele>276.98465</ele>
        <time>2021-09-10T10:26:59</time>
      </trkpt>
      <trkpt lat="44.36922" lon="4.52212">
        <ele>276.98465</ele>
        <time>2021-09-10T10:27:05</time>
      </trkpt>
      <trkpt lat="44.36901" lon="4.52225">
        <ele>276.98465</ele>
        <time>2021-09-10T10:27:08</time>
      </trkpt>
      <trkpt lat="44.36876" lon="4.52234">
        <ele>276.98465</ele>
        <time>2021-09-10T10:27:11</time>
      </trkpt>
      <trkpt lat="44.36834" lon="4.52241">
        <ele>276.98465</ele>
        <time>2021-09-10T10:27:16</time>
      </trkpt>
      <trkpt lat="44.36784" lon="4.52239">
        <ele>276.98465</ele>
        <time>2021-09-10T10:27:23</time>
      </trkpt>
      <trkpt lat="44.36713" lon="4.52232">
        <ele>276.98465</ele>
        <time>2021-09-10T10:27:30</time>
      </trkpt>
      <trkpt lat="44.36687" lon="4.52236">
        <ele>276.98465</ele>
        <time>2021-09-10T10:27:33</time>
      </trkpt>
      <trkpt lat="44.36669" lon="4.52242">
        <ele>276.98465</ele>
        <time>2021-09-10T10:27:35</time>
      </trkpt>
      <trkpt lat="44.36654" lon="4.52252">
        <ele>276.98465</ele>
        <time>2021-09-10T10:27:37</time>
      </trkpt>
      <trkpt lat="44.3663" lon="4.52273">
        <ele>276.98465</ele>
        <time>2021-09-10T10:27:40</time>
      </trkpt>
      <trkpt lat="44.3661" lon="4.52298">
        <ele>276.98465</ele>
        <time>2021-09-10T10:27:43</time>
      </trkpt>
      <trkpt lat="44.36591" lon="4.52329">
        <ele>276.98465</ele>
        <time>2021-09-10T10:27:46</time>
      </trkpt>
      <trkpt lat="44.36583" lon="4.52351">
        <ele>276.98465</ele>
        <time>2021-09-10T10:27:48</time>
      </trkpt>
      <trkpt lat="44.36573" lon="4.52388">
        <ele>276.98465</ele>
        <time>2021-09-10T10:27:51</time>
      </trkpt>
      <trkpt lat="44.36567" lon="4.52426">
        <ele>276.98465</ele>
        <time>2021-09-10T10:27:54</time>
      </trkpt>
      <trkpt lat="44.36566" lon="4.52478">
        <ele>262.38464</ele>
        <time>2021-09-10T10:27:58</time>
      </trkpt>
      <trkpt lat="44.3657" lon="4.52512">
        <ele>262.38464</ele>
        <time>2021-09-10T10:28:01</time>
      </trkpt>
      <trkpt lat="44.36576" lon="4.52535">
        <ele>262.38464</ele>
        <time>2021-09-10T10:28:03</time>
      </trkpt>
      <trkpt lat="44.36585" lon="4.52554">
        <ele>262.38464</ele>
        <time>2021-09-10T10:28:05</time>
      </trkpt>
      <trkpt lat="44.36596" lon="4.52572">
        <ele>262.08466</ele>
        <time>2021-09-10T10:28:07</time>
      </trkpt>
      <trkpt lat="44.36657" lon="4.52657">
        <ele>258.28467</ele>
        <time>2021-09-10T10:28:18</time>
      </trkpt>
      <trkpt lat="44.36665" lon="4.52675">
        <ele>258.28467</ele>
        <time>2021-09-10T10:28:20</time>
      </trkpt>
      <trkpt lat="44.36667" lon="4.52685">
        <ele>258.28467</ele>
        <time>2021-09-10T10:28:21</time>
      </trkpt>
      <trkpt lat="44.36672" lon="4.52718">
        <ele>258.28467</ele>
        <time>2021-09-10T10:28:24</time>
      </trkpt>
      <trkpt lat="44.36673" lon="4.52739">
        <ele>259.78467</ele>
        <time>2021-09-10T10:28:26</time>
      </trkpt>
      <trkpt lat="44.36672" lon="4.5275">
        <ele>259.78467</ele>
        <time>2021-09-10T10:28:27</time>
      </trkpt>
      <trkpt lat="44.36668" lon="4.5277">
        <ele>259.78467</ele>
        <time>2021-09-10T10:28:29</time>
      </trkpt>
      <trkpt lat="44.36662" lon="4.52796">
        <ele>259.78467</ele>
        <time>2021-09-10T10:28:32</time>
      </trkpt>
      <trkpt lat="44.36655" lon="4.52814">
        <ele>259.78467</ele>
        <time>2021-09-10T10:28:34</time>
      </trkpt>
      <trkpt lat="44.36645" lon="4.52831">
        <ele>260.65134</ele>
        <time>2021-09-10T10:28:36</time>
      </trkpt>
      <trkpt lat="44.36632" lon="4.52845">
        <ele>260.65134</ele>
        <time>2021-09-10T10:28:38</time>
      </trkpt>
      <trkpt lat="44.36617" lon="4.52858">
        <ele>260.65134</ele>
        <time>2021-09-10T10:28:40</time>
      </trkpt>
      <trkpt lat="44.36609" lon="4.52863">
        <ele>260.65134</ele>
        <time>2021-09-10T10:28:41</time>
      </trkpt>
      <trkpt lat="44.36542" lon="4.52917">
        <ele>260.65134</ele>
        <time>2021-09-10T10:28:50</time>
      </trkpt>
      <trkpt lat="44.36531" lon="4.52934">
        <ele>260.65134</ele>
        <time>2021-09-10T10:28:52</time>
      </trkpt>
      <trkpt lat="44.36521" lon="4.52952">
        <ele>260.65134</ele>
        <time>2021-09-10T10:28:54</time>
      </trkpt>
      <trkpt lat="44.36517" lon="4.52974">
        <ele>260.65134</ele>
        <time>2021-09-10T10:28:56</time>
      </trkpt>
      <trkpt lat="44.36518" lon="4.52996">
        <ele>260.65134</ele>
        <time>2021-09-10T10:28:58</time>
      </trkpt>
      <trkpt lat="44.36523" lon="4.53015">
        <ele>260.65134</ele>
        <time>2021-09-10T10:29:00</time>
      </trkpt>
      <trkpt lat="44.36531" lon="4.53053">
        <ele>260.65134</ele>
        <time>2021-09-10T10:29:04</time>
      </trkpt>
      <trkpt lat="44.36559" lon="4.53203">
        <ele>249.95132</ele>
        <time>2021-09-10T10:29:20</time>
      </trkpt>
      <trkpt lat="44.36556" lon="4.53287">
        <ele>250.58466</ele>
        <time>2021-09-10T10:29:29</time>
      </trkpt>
      <trkpt lat="44.36561" lon="4.53307">
        <ele>250.58466</ele>
        <time>2021-09-10T10:29:31</time>
      </trkpt>
      <trkpt lat="44.36569" lon="4.53326">
        <ele>250.58466</ele>
        <time>2021-09-10T10:29:33</time>
      </trkpt>
      <trkpt lat="44.36582" lon="4.53354">
        <ele>249.68466</ele>
        <time>2021-09-10T10:29:36</time>
      </trkpt>
      <trkpt lat="44.36606" lon="4.53396">
        <ele>249.68466</ele>
        <time>2021-09-10T10:29:41</time>
      </trkpt>
      <trkpt lat="44.36617" lon="4.53422">
        <ele>249.68466</ele>
        <time>2021-09-10T10:29:45</time>
      </trkpt>
      <trkpt lat="44.36618" lon="4.53429">
        <ele>249.68466</ele>
        <time>2021-09-10T10:29:46</time>
      </trkpt>
      <trkpt lat="44.36618" lon="4.53437">
        <ele>249.68466</ele>
        <time>2021-09-10T10:29:47</time>
      </trkpt>
      <trkpt lat="44.36615" lon="4.53453">
        <ele>249.68466</ele>
        <time>2021-09-10T10:29:49</time>
      </trkpt>
      <trkpt lat="44.36612" lon="4.53462">
        <ele>249.68466</ele>
        <time>2021-09-10T10:29:50</time>
      </trkpt>
      <trkpt lat="44.36608" lon="4.53471">
        <ele>249.68466</ele>
        <time>2021-09-10T10:29:51</time>
      </trkpt>
      <trkpt lat="44.36602" lon="4.53476">
        <ele>249.68466</ele>
        <time>2021-09-10T10:29:52</time>
      </trkpt>
      <trkpt lat="44.36597" lon="4.53483">
        <ele>249.68466</ele>
        <time>2021-09-10T10:29:53</time>
      </trkpt>
      <trkpt lat="44.36542" lon="4.53527">
        <ele>246.48465</ele>
        <time>2021-09-10T10:30:03</time>
      </trkpt>
      <trkpt lat="44.3651" lon="4.53558">
        <ele>246.48465</ele>
        <time>2021-09-10T10:30:10</time>
      </trkpt>
      <trkpt lat="44.36466" lon="4.53609">
        <ele>235.98465</ele>
        <time>2021-09-10T10:30:21</time>
      </trkpt>
      <trkpt lat="44.36442" lon="4.53638">
        <ele>233.68466</ele>
        <time>2021-09-10T10:30:26</time>
      </trkpt>
      <trkpt lat="44.36438" lon="4.53645">
        <ele>233.68466</ele>
        <time>2021-09-10T10:30:27</time>
      </trkpt>
      <trkpt lat="44.36416" lon="4.53679">
        <ele>233.68466</ele>
        <time>2021-09-10T10:30:32</time>
      </trkpt>
      <trkpt lat="44.36408" lon="4.53693">
        <ele>233.68466</ele>
        <time>2021-09-10T10:30:34</time>
      </trkpt>
      <trkpt lat="44.36366" lon="4.53755">
        <ele>231.15134</ele>
        <time>2021-09-10T10:30:46</time>
      </trkpt>
      <trkpt lat="44.36364" lon="4.53756">
        <ele>231.15134</ele>
        <time>2021-09-10T10:30:47</time>
      </trkpt>
      <trkpt lat="44.36361" lon="4.53758">
        <ele>231.15134</ele>
        <time>2021-09-10T10:30:50</time>
      </trkpt>
      <trkpt lat="44.36361" lon="4.53758">
        <ele>230.88464</ele>
        <time>2021-09-10T10:31:06</time>
      </trkpt>
      <trkpt lat="44.36361" lon="4.53758">
        <ele>230.88464</ele>
        <time>2021-09-10T10:31:07</time>
      </trkpt>
      <trkpt lat="44.36361" lon="4.53759">
        <ele>230.88464</ele>
        <time>2021-09-10T10:31:09</time>
      </trkpt>
      <trkpt lat="44.3636" lon="4.53762">
        <ele>230.88464</ele>
        <time>2021-09-10T10:31:11</time>
      </trkpt>
      <trkpt lat="44.36359" lon="4.53764">
        <ele>230.88464</ele>
        <time>2021-09-10T10:31:12</time>
      </trkpt>
      <trkpt lat="44.36353" lon="4.53774">
        <ele>230.88464</ele>
        <time>2021-09-10T10:31:15</time>
      </trkpt>
      <trkpt lat="44.36344" lon="4.53787">
        <ele>231.98465</ele>
        <time>2021-09-10T10:31:18</time>
      </trkpt>
      <trkpt lat="44.36328" lon="4.53808">
        <ele>231.98465</ele>
        <time>2021-09-10T10:31:22</time>
      </trkpt>
      <trkpt lat="44.36183" lon="4.54028">
        <ele>231.98465</ele>
        <time>2021-09-10T10:31:52</time>
      </trkpt>
      <trkpt lat="44.36068" lon="4.54201">
        <ele>231.98465</ele>
        <time>2021-09-10T10:32:22</time>
      </trkpt>
      <trkpt lat="44.35948" lon="4.54388">
        <ele>231.98465</ele>
        <time>2021-09-10T10:32:52</time>
      </trkpt>
      <trkpt lat="44.35889" lon="4.54478">
        <ele>231.98465</ele>
        <time>2021-09-10T10:33:07</time>
      </trkpt>
      <trkpt lat="44.35884" lon="4.54494">
        <ele>231.98465</ele>
        <time>2021-09-10T10:33:09</time>
      </trkpt>
      <trkpt lat="44.35883" lon="4.54501">
        <ele>231.98465</ele>
        <time>2021-09-10T10:33:10</time>
      </trkpt>
      <trkpt lat="44.3588" lon="4.54518">
        <ele>231.98465</ele>
        <time>2021-09-10T10:33:12</time>
      </trkpt>
      <trkpt lat="44.3588" lon="4.54534">
        <ele>231.98465</ele>
        <time>2021-09-10T10:33:14</time>
      </trkpt>
      <trkpt lat="44.35883" lon="4.54552">
        <ele>230.88464</ele>
        <time>2021-09-10T10:33:16</time>
      </trkpt>
      <trkpt lat="44.35889" lon="4.54569">
        <ele>230.88464</ele>
        <time>2021-09-10T10:33:18</time>
      </trkpt>
      <trkpt lat="44.35896" lon="4.54585">
        <ele>230.88464</ele>
        <time>2021-09-10T10:33:20</time>
      </trkpt>
      <trkpt lat="44.35901" lon="4.54592">
        <ele>230.88464</ele>
        <time>2021-09-10T10:33:21</time>
      </trkpt>
      <trkpt lat="44.35912" lon="4.54602">
        <ele>230.88464</ele>
        <time>2021-09-10T10:33:23</time>
      </trkpt>
      <trkpt lat="44.36057" lon="4.54707">
        <ele>223.58466</ele>
        <time>2021-09-10T10:33:46</time>
      </trkpt>
      <trkpt lat="44.36153" lon="4.5483">
        <ele>223.58466</ele>
        <time>2021-09-10T10:34:03</time>
      </trkpt>
      <trkpt lat="44.36175" lon="4.54869">
        <ele>223.58466</ele>
        <time>2021-09-10T10:34:08</time>
      </trkpt>
      <trkpt lat="44.36251" lon="4.55063">
        <ele>223.58466</ele>
        <time>2021-09-10T10:34:29</time>
      </trkpt>
      <trkpt lat="44.36269" lon="4.55125">
        <ele>223.58466</ele>
        <time>2021-09-10T10:34:35</time>
      </trkpt>
      <trkpt lat="44.36274" lon="4.55147">
        <ele>223.58466</ele>
        <time>2021-09-10T10:34:37</time>
      </trkpt>
      <trkpt lat="44.36273" lon="4.55172">
        <ele>223.58466</ele>
        <time>2021-09-10T10:34:39</time>
      </trkpt>
      <trkpt lat="44.3627" lon="4.55205">
        <ele>223.58466</ele>
        <time>2021-09-10T10:34:42</time>
      </trkpt>
      <trkpt lat="44.36266" lon="4.55226">
        <ele>223.58466</ele>
        <time>2021-09-10T10:34:44</time>
      </trkpt>
      <trkpt lat="44.36254" lon="4.55255">
        <ele>205.48465</ele>
        <time>2021-09-10T10:34:47</time>
      </trkpt>
      <trkpt lat="44.36248" lon="4.55269">
        <ele>205.48465</ele>
        <time>2021-09-10T10:34:49</time>
      </trkpt>
      <trkpt lat="44.36242" lon="4.55277">
        <ele>205.48465</ele>
        <time>2021-09-10T10:34:50</time>
      </trkpt>
      <trkpt lat="44.36226" lon="4.55298">
        <ele>205.48465</ele>
        <time>2021-09-10T10:34:53</time>
      </trkpt>
      <trkpt lat="44.36212" lon="4.5531">
        <ele>205.48465</ele>
        <time>2021-09-10T10:34:55</time>
      </trkpt>
      <trkpt lat="44.36198" lon="4.55319">
        <ele>208.818</ele>
        <time>2021-09-10T10:34:57</time>
      </trkpt>
      <trkpt lat="44.36177" lon="4.55326">
        <ele>208.818</ele>
        <time>2021-09-10T10:35:00</time>
      </trkpt>
      <trkpt lat="44.36134" lon="4.55339">
        <ele>208.818</ele>
        <time>2021-09-10T10:35:07</time>
      </trkpt>
      <trkpt lat="44.36112" lon="4.55351">
        <ele>208.818</ele>
        <time>2021-09-10T10:35:11</time>
      </trkpt>
      <trkpt lat="44.36058" lon="4.55392">
        <ele>208.818</ele>
        <time>2021-09-10T10:35:21</time>
      </trkpt>
      <trkpt lat="44.36035" lon="4.55421">
        <ele>208.818</ele>
        <time>2021-09-10T10:35:26</time>
      </trkpt>
      <trkpt lat="44.36019" lon="4.55449">
        <ele>208.818</ele>
        <time>2021-09-10T10:35:30</time>
      </trkpt>
      <trkpt lat="44.35994" lon="4.55511">
        <ele>208.818</ele>
        <time>2021-09-10T10:35:38</time>
      </trkpt>
      <trkpt lat="44.3598" lon="4.55556">
        <ele>208.818</ele>
        <time>2021-09-10T10:35:43</time>
      </trkpt>
      <trkpt lat="44.35956" lon="4.55702">
        <ele>197.58466</ele>
        <time>2021-09-10T10:35:59</time>
      </trkpt>
      <trkpt lat="44.35955" lon="4.55709">
        <ele>197.58466</ele>
        <time>2021-09-10T10:36:00</time>
      </trkpt>
      <trkpt lat="44.35913" lon="4.55961">
        <ele>194.58466</ele>
        <time>2021-09-10T10:36:23</time>
      </trkpt>
      <trkpt lat="44.35896" lon="4.56002">
        <ele>191.28465</ele>
        <time>2021-09-10T10:36:27</time>
      </trkpt>
      <trkpt lat="44.35878" lon="4.56036">
        <ele>191.28465</ele>
        <time>2021-09-10T10:36:31</time>
      </trkpt>
      <trkpt lat="44.35806" lon="4.56144">
        <ele>191.28465</ele>
        <time>2021-09-10T10:36:48</time>
      </trkpt>
      <trkpt lat="44.35804" lon="4.56151">
        <ele>191.28465</ele>
        <time>2021-09-10T10:36:49</time>
      </trkpt>
      <trkpt lat="44.35803" lon="4.56158">
        <ele>191.28465</ele>
        <time>2021-09-10T10:36:50</time>
      </trkpt>
      <trkpt lat="44.35806" lon="4.56166">
        <ele>191.28465</ele>
        <time>2021-09-10T10:36:51</time>
      </trkpt>
      <trkpt lat="44.35827" lon="4.56249">
        <ele>205.18466</ele>
        <time>2021-09-10T10:37:01</time>
      </trkpt>
      <trkpt lat="44.35838" lon="4.56332">
        <ele>205.18466</ele>
        <time>2021-09-10T10:37:10</time>
      </trkpt>
      <trkpt lat="44.35837" lon="4.56349">
        <ele>205.18466</ele>
        <time>2021-09-10T10:37:12</time>
      </trkpt>
      <trkpt lat="44.35825" lon="4.56399">
        <ele>202.18466</ele>
        <time>2021-09-10T10:37:19</time>
      </trkpt>
      <trkpt lat="44.3582" lon="4.56415">
        <ele>202.18466</ele>
        <time>2021-09-10T10:37:21</time>
      </trkpt>
      <trkpt lat="44.35816" lon="4.56454">
        <ele>200.68466</ele>
        <time>2021-09-10T10:37:26</time>
      </trkpt>
      <trkpt lat="44.35813" lon="4.56536">
        <ele>198.88466</ele>
        <time>2021-09-10T10:37:38</time>
      </trkpt>
      <trkpt lat="44.35806" lon="4.56572">
        <ele>198.88466</ele>
        <time>2021-09-10T10:37:43</time>
      </trkpt>
      <trkpt lat="44.35709" lon="4.56854">
        <ele>198.88466</ele>
        <time>2021-09-10T10:38:13</time>
      </trkpt>
      <trkpt lat="44.35691" lon="4.56915">
        <ele>194.18466</ele>
        <time>2021-09-10T10:38:19</time>
      </trkpt>
      <trkpt lat="44.35684" lon="4.56951">
        <ele>194.18466</ele>
        <time>2021-09-10T10:38:22</time>
      </trkpt>
      <trkpt lat="44.35686" lon="4.56972">
        <ele>194.18466</ele>
        <time>2021-09-10T10:38:24</time>
      </trkpt>
      <trkpt lat="44.35688" lon="4.56983">
        <ele>194.18466</ele>
        <time>2021-09-10T10:38:25</time>
      </trkpt>
      <trkpt lat="44.35695" lon="4.57018">
        <ele>194.28465</ele>
        <time>2021-09-10T10:38:29</time>
      </trkpt>
      <trkpt lat="44.35695" lon="4.57037">
        <ele>194.28465</ele>
        <time>2021-09-10T10:38:31</time>
      </trkpt>
      <trkpt lat="44.35691" lon="4.57059">
        <ele>194.28465</ele>
        <time>2021-09-10T10:38:33</time>
      </trkpt>
      <trkpt lat="44.35666" lon="4.5717">
        <ele>190.98465</ele>
        <time>2021-09-10T10:38:47</time>
      </trkpt>
      <trkpt lat="44.35661" lon="4.57185">
        <ele>190.98465</ele>
        <time>2021-09-10T10:38:49</time>
      </trkpt>
      <trkpt lat="44.35653" lon="4.57197">
        <ele>190.98465</ele>
        <time>2021-09-10T10:38:51</time>
      </trkpt>
      <trkpt lat="44.35642" lon="4.57207">
        <ele>190.98465</ele>
        <time>2021-09-10T10:38:53</time>
      </trkpt>
      <trkpt lat="44.35623" lon="4.57224">
        <ele>185.05132</ele>
        <time>2021-09-10T10:38:56</time>
      </trkpt>
      <trkpt lat="44.35618" lon="4.57232">
        <ele>185.05132</ele>
        <time>2021-09-10T10:38:57</time>
      </trkpt>
      <trkpt lat="44.35613" lon="4.57241">
        <ele>185.05132</ele>
        <time>2021-09-10T10:38:58</time>
      </trkpt>
      <trkpt lat="44.35609" lon="4.57253">
        <ele>185.05132</ele>
        <time>2021-09-10T10:38:59</time>
      </trkpt>
      <trkpt lat="44.35597" lon="4.57309">
        <ele>185.05132</ele>
        <time>2021-09-10T10:39:04</time>
      </trkpt>
      <trkpt lat="44.35543" lon="4.57582">
        <ele>180.51799</ele>
        <time>2021-09-10T10:39:34</time>
      </trkpt>
      <trkpt lat="44.35537" lon="4.57588">
        <ele>178.18466</ele>
        <time>2021-09-10T10:39:43</time>
      </trkpt>
      <trkpt lat="44.35537" lon="4.57587">
        <ele>178.18466</ele>
        <time>2021-09-10T10:39:45</time>
      </trkpt>
      <trkpt lat="44.35537" lon="4.57585">
        <ele>179.48465</ele>
        <time>2021-09-10T10:39:48</time>
      </trkpt>
      <trkpt lat="44.35537" lon="4.57585">
        <ele>179.48465</ele>
        <time>2021-09-10T10:39:49</time>
      </trkpt>
      <trkpt lat="44.35537" lon="4.57585">
        <ele>179.48465</ele>
        <time>2021-09-10T10:39:50</time>
      </trkpt>
      <trkpt lat="44.35538" lon="4.57584">
        <ele>179.48465</ele>
        <time>2021-09-10T10:39:52</time>
      </trkpt>
      <trkpt lat="44.35536" lon="4.57584">
        <ele>179.48465</ele>
        <time>2021-09-10T10:39:54</time>
      </trkpt>
      <trkpt lat="44.35532" lon="4.57588">
        <ele>179.48465</ele>
        <time>2021-09-10T10:40:02</time>
      </trkpt>
      <trkpt lat="44.35531" lon="4.57587">
        <ele>176.28465</ele>
        <time>2021-09-10T10:40:06</time>
      </trkpt>
      <trkpt lat="44.35531" lon="4.57587">
        <ele>176.28465</ele>
        <time>2021-09-10T10:40:19</time>
      </trkpt>
      <trkpt lat="44.35532" lon="4.57586">
        <ele>176.28465</ele>
        <time>2021-09-10T10:40:22</time>
      </trkpt>
      <trkpt lat="44.35533" lon="4.57586">
        <ele>176.28465</ele>
        <time>2021-09-10T10:40:23</time>
      </trkpt>
      <trkpt lat="44.35533" lon="4.57585">
        <ele>176.28465</ele>
        <time>2021-09-10T10:40:24</time>
      </trkpt>
      <trkpt lat="44.35533" lon="4.57585">
        <ele>176.28465</ele>
        <time>2021-09-10T10:40:29</time>
      </trkpt>
      <trkpt lat="44.35536" lon="4.57584">
        <ele>176.28465</ele>
        <time>2021-09-10T10:40:33</time>
      </trkpt>
      <trkpt lat="44.35536" lon="4.57584">
        <ele>176.28465</ele>
        <time>2021-09-10T10:40:34</time>
      </trkpt>
      <trkpt lat="44.35539" lon="4.57581">
        <ele>176.28465</ele>
        <time>2021-09-10T10:40:40</time>
      </trkpt>
      <trkpt lat="44.35539" lon="4.57581">
        <ele>176.28465</ele>
        <time>2021-09-10T10:40:41</time>
      </trkpt>
      <trkpt lat="44.35539" lon="4.57582">
        <ele>176.28465</ele>
        <time>2021-09-10T10:40:44</time>
      </trkpt>
      <trkpt lat="44.35539" lon="4.57582">
        <ele>176.28465</ele>
        <time>2021-09-10T10:40:45</time>
      </trkpt>
      <trkpt lat="44.3554" lon="4.57583">
        <ele>178.21799</ele>
        <time>2021-09-10T10:40:58</time>
      </trkpt>
      <trkpt lat="44.35541" lon="4.57583">
        <ele>178.21799</ele>
        <time>2021-09-10T10:40:59</time>
      </trkpt>
      <trkpt lat="44.35541" lon="4.57583">
        <ele>178.21799</ele>
        <time>2021-09-10T10:41:01</time>
      </trkpt>
      <trkpt lat="44.35541" lon="4.57583">
        <ele>178.21799</ele>
        <time>2021-09-10T10:41:02</time>
      </trkpt>
      <trkpt lat="44.35541" lon="4.57584">
        <ele>177.91798</ele>
        <time>2021-09-10T10:41:07</time>
      </trkpt>
      <trkpt lat="44.35543" lon="4.57586">
        <ele>177.91798</ele>
        <time>2021-09-10T10:41:11</time>
      </trkpt>
      <trkpt lat="44.35544" lon="4.57586">
        <ele>177.68466</ele>
        <time>2021-09-10T10:41:18</time>
      </trkpt>
      <trkpt lat="44.35544" lon="4.57587">
        <ele>177.68466</ele>
        <time>2021-09-10T10:41:19</time>
      </trkpt>
      <trkpt lat="44.35544" lon="4.57588">
        <ele>177.78465</ele>
        <time>2021-09-10T10:41:30</time>
      </trkpt>
      <trkpt lat="44.35545" lon="4.57591">
        <ele>177.78465</ele>
        <time>2021-09-10T10:41:32</time>
      </trkpt>
      <trkpt lat="44.35545" lon="4.57595">
        <ele>177.78465</ele>
        <time>2021-09-10T10:41:34</time>
      </trkpt>
      <trkpt lat="44.35543" lon="4.57603">
        <ele>178.18466</ele>
        <time>2021-09-10T10:41:36</time>
      </trkpt>
      <trkpt lat="44.3554" lon="4.57613">
        <ele>178.18466</ele>
        <time>2021-09-10T10:41:38</time>
      </trkpt>
      <trkpt lat="44.35533" lon="4.57646">
        <ele>178.18466</ele>
        <time>2021-09-10T10:41:43</time>
      </trkpt>
      <trkpt lat="44.35516" lon="4.57724">
        <ele>178.38466</ele>
        <time>2021-09-10T10:41:52</time>
      </trkpt>
      <trkpt lat="44.35461" lon="4.58015">
        <ele>172.18466</ele>
        <time>2021-09-10T10:42:22</time>
      </trkpt>
      <trkpt lat="44.35461" lon="4.58047">
        <ele>172.18466</ele>
        <time>2021-09-10T10:42:25</time>
      </trkpt>
      <trkpt lat="44.3547" lon="4.58136">
        <ele>169.28465</ele>
        <time>2021-09-10T10:42:35</time>
      </trkpt>
      <trkpt lat="44.35473" lon="4.58178">
        <ele>166.98465</ele>
        <time>2021-09-10T10:42:40</time>
      </trkpt>
      <trkpt lat="44.35478" lon="4.58195">
        <ele>166.98465</ele>
        <time>2021-09-10T10:42:42</time>
      </trkpt>
      <trkpt lat="44.35484" lon="4.58207">
        <ele>166.98465</ele>
        <time>2021-09-10T10:42:44</time>
      </trkpt>
      <trkpt lat="44.35495" lon="4.58227">
        <ele>164.18466</ele>
        <time>2021-09-10T10:42:47</time>
      </trkpt>
      <trkpt lat="44.35519" lon="4.58255">
        <ele>164.18466</ele>
        <time>2021-09-10T10:42:52</time>
      </trkpt>
      <trkpt lat="44.35591" lon="4.58338">
        <ele>158.08466</ele>
        <time>2021-09-10T10:43:07</time>
      </trkpt>
      <trkpt lat="44.35598" lon="4.58347">
        <ele>158.08466</ele>
        <time>2021-09-10T10:43:09</time>
      </trkpt>
      <trkpt lat="44.35603" lon="4.58354">
        <ele>158.08466</ele>
        <time>2021-09-10T10:43:10</time>
      </trkpt>
      <trkpt lat="44.35613" lon="4.58368">
        <ele>158.08466</ele>
        <time>2021-09-10T10:43:12</time>
      </trkpt>
      <trkpt lat="44.35616" lon="4.58377">
        <ele>158.08466</ele>
        <time>2021-09-10T10:43:13</time>
      </trkpt>
      <trkpt lat="44.35615" lon="4.58385">
        <ele>158.08466</ele>
        <time>2021-09-10T10:43:14</time>
      </trkpt>
      <trkpt lat="44.35613" lon="4.58392">
        <ele>158.08466</ele>
        <time>2021-09-10T10:43:15</time>
      </trkpt>
      <trkpt lat="44.35611" lon="4.58398">
        <ele>160.118</ele>
        <time>2021-09-10T10:43:16</time>
      </trkpt>
      <trkpt lat="44.35604" lon="4.58418">
        <ele>160.118</ele>
        <time>2021-09-10T10:43:20</time>
      </trkpt>
      <trkpt lat="44.35602" lon="4.5843">
        <ele>160.118</ele>
        <time>2021-09-10T10:43:22</time>
      </trkpt>
      <trkpt lat="44.35604" lon="4.58446">
        <ele>160.118</ele>
        <time>2021-09-10T10:43:25</time>
      </trkpt>
      <trkpt lat="44.35608" lon="4.5846">
        <ele>163.48465</ele>
        <time>2021-09-10T10:43:28</time>
      </trkpt>
      <trkpt lat="44.35609" lon="4.58467">
        <ele>163.48465</ele>
        <time>2021-09-10T10:43:29</time>
      </trkpt>
      <trkpt lat="44.35611" lon="4.58478">
        <ele>163.48465</ele>
        <time>2021-09-10T10:43:31</time>
      </trkpt>
      <trkpt lat="44.35617" lon="4.58498">
        <ele>163.48465</ele>
        <time>2021-09-10T10:43:35</time>
      </trkpt>
      <trkpt lat="44.35622" lon="4.58507">
        <ele>161.58466</ele>
        <time>2021-09-10T10:43:37</time>
      </trkpt>
      <trkpt lat="44.35625" lon="4.58511">
        <ele>161.58466</ele>
        <time>2021-09-10T10:43:38</time>
      </trkpt>
      <trkpt lat="44.35629" lon="4.58515">
        <ele>161.58466</ele>
        <time>2021-09-10T10:43:39</time>
      </trkpt>
      <trkpt lat="44.35656" lon="4.5854">
        <ele>160.71799</ele>
        <time>2021-09-10T10:43:47</time>
      </trkpt>
      <trkpt lat="44.35658" lon="4.58543">
        <ele>160.71799</ele>
        <time>2021-09-10T10:43:48</time>
      </trkpt>
      <trkpt lat="44.35659" lon="4.58547">
        <ele>160.71799</ele>
        <time>2021-09-10T10:43:49</time>
      </trkpt>
      <trkpt lat="44.35663" lon="4.58562">
        <ele>160.71799</ele>
        <time>2021-09-10T10:43:52</time>
      </trkpt>
      <trkpt lat="44.35665" lon="4.58573">
        <ele>160.71799</ele>
        <time>2021-09-10T10:43:54</time>
      </trkpt>
      <trkpt lat="44.35672" lon="4.58632">
        <ele>160.71799</ele>
        <time>2021-09-10T10:44:04</time>
      </trkpt>
      <trkpt lat="44.35674" lon="4.58646">
        <ele>166.48465</ele>
        <time>2021-09-10T10:44:06</time>
      </trkpt>
      <trkpt lat="44.35684" lon="4.58696">
        <ele>166.48465</ele>
        <time>2021-09-10T10:44:14</time>
      </trkpt>
      <trkpt lat="44.3569" lon="4.58725">
        <ele>166.48465</ele>
        <time>2021-09-10T10:44:18</time>
      </trkpt>
      <trkpt lat="44.35689" lon="4.58744">
        <ele>166.48465</ele>
        <time>2021-09-10T10:44:20</time>
      </trkpt>
      <trkpt lat="44.35687" lon="4.58762">
        <ele>166.48465</ele>
        <time>2021-09-10T10:44:22</time>
      </trkpt>
      <trkpt lat="44.35682" lon="4.58779">
        <ele>166.48465</ele>
        <time>2021-09-10T10:44:24</time>
      </trkpt>
      <trkpt lat="44.35663" lon="4.58835">
        <ele>171.28465</ele>
        <time>2021-09-10T10:44:31</time>
      </trkpt>
      <trkpt lat="44.35662" lon="4.58846">
        <ele>171.28465</ele>
        <time>2021-09-10T10:44:32</time>
      </trkpt>
      <trkpt lat="44.35661" lon="4.58875">
        <ele>171.28465</ele>
        <time>2021-09-10T10:44:35</time>
      </trkpt>
      <trkpt lat="44.35663" lon="4.5889">
        <ele>169.18466</ele>
        <time>2021-09-10T10:44:37</time>
      </trkpt>
      <trkpt lat="44.35666" lon="4.58905">
        <ele>169.18466</ele>
        <time>2021-09-10T10:44:39</time>
      </trkpt>
      <trkpt lat="44.35674" lon="4.58926">
        <ele>169.18466</ele>
        <time>2021-09-10T10:44:42</time>
      </trkpt>
      <trkpt lat="44.35702" lon="4.59007">
        <ele>169.38466</ele>
        <time>2021-09-10T10:44:54</time>
      </trkpt>
      <trkpt lat="44.35708" lon="4.59028">
        <ele>169.38466</ele>
        <time>2021-09-10T10:44:57</time>
      </trkpt>
      <trkpt lat="44.35711" lon="4.59063">
        <ele>169.38466</ele>
        <time>2021-09-10T10:45:01</time>
      </trkpt>
      <trkpt lat="44.35718" lon="4.59079">
        <ele>169.38466</ele>
        <time>2021-09-10T10:45:03</time>
      </trkpt>
      <trkpt lat="44.35727" lon="4.59092">
        <ele>169.38466</ele>
        <time>2021-09-10T10:45:05</time>
      </trkpt>
      <trkpt lat="44.35739" lon="4.59102">
        <ele>169.38466</ele>
        <time>2021-09-10T10:45:07</time>
      </trkpt>
      <trkpt lat="44.35753" lon="4.59112">
        <ele>169.38466</ele>
        <time>2021-09-10T10:45:09</time>
      </trkpt>
      <trkpt lat="44.35775" lon="4.59128">
        <ele>169.38466</ele>
        <time>2021-09-10T10:45:13</time>
      </trkpt>
      <trkpt lat="44.35791" lon="4.59145">
        <ele>167.38466</ele>
        <time>2021-09-10T10:45:16</time>
      </trkpt>
      <trkpt lat="44.35814" lon="4.59179">
        <ele>167.38466</ele>
        <time>2021-09-10T10:45:22</time>
      </trkpt>
      <trkpt lat="44.35883" lon="4.59278">
        <ele>168.38466</ele>
        <time>2021-09-10T10:45:39</time>
      </trkpt>
      <trkpt lat="44.35889" lon="4.59294">
        <ele>168.38466</ele>
        <time>2021-09-10T10:45:41</time>
      </trkpt>
      <trkpt lat="44.35892" lon="4.59311">
        <ele>168.38466</ele>
        <time>2021-09-10T10:45:43</time>
      </trkpt>
      <trkpt lat="44.35894" lon="4.59325">
        <ele>168.38466</ele>
        <time>2021-09-10T10:45:45</time>
      </trkpt>
      <trkpt lat="44.35894" lon="4.59343">
        <ele>165.18466</ele>
        <time>2021-09-10T10:45:47</time>
      </trkpt>
      <trkpt lat="44.35896" lon="4.5948">
        <ele>159.38466</ele>
        <time>2021-09-10T10:46:01</time>
      </trkpt>
      <trkpt lat="44.359" lon="4.59503">
        <ele>159.38466</ele>
        <time>2021-09-10T10:46:03</time>
      </trkpt>
      <trkpt lat="44.3591" lon="4.59547">
        <ele>155.48465</ele>
        <time>2021-09-10T10:46:07</time>
      </trkpt>
      <trkpt lat="44.35969" lon="4.59718">
        <ele>154.91798</ele>
        <time>2021-09-10T10:46:25</time>
      </trkpt>
      <trkpt lat="44.35985" lon="4.59754">
        <ele>154.91798</ele>
        <time>2021-09-10T10:46:29</time>
      </trkpt>
      <trkpt lat="44.35994" lon="4.59794">
        <ele>154.91798</ele>
        <time>2021-09-10T10:46:33</time>
      </trkpt>
      <trkpt lat="44.35995" lon="4.59819">
        <ele>150.58466</ele>
        <time>2021-09-10T10:46:36</time>
      </trkpt>
      <trkpt lat="44.35994" lon="4.59851">
        <ele>150.58466</ele>
        <time>2021-09-10T10:46:40</time>
      </trkpt>
      <trkpt lat="44.35973" lon="4.59996">
        <ele>146.65132</ele>
        <time>2021-09-10T10:46:57</time>
      </trkpt>
      <trkpt lat="44.3592" lon="4.60296">
        <ele>137.88466</ele>
        <time>2021-09-10T10:47:25</time>
      </trkpt>
      <trkpt lat="44.3592" lon="4.60325">
        <ele>138.01799</ele>
        <time>2021-09-10T10:47:28</time>
      </trkpt>
      <trkpt lat="44.35928" lon="4.60412">
        <ele>136.78465</ele>
        <time>2021-09-10T10:47:37</time>
      </trkpt>
      <trkpt lat="44.35933" lon="4.60431">
        <ele>136.78465</ele>
        <time>2021-09-10T10:47:39</time>
      </trkpt>
      <trkpt lat="44.35944" lon="4.60461">
        <ele>136.78465</ele>
        <time>2021-09-10T10:47:42</time>
      </trkpt>
      <trkpt lat="44.35952" lon="4.60478">
        <ele>136.78465</ele>
        <time>2021-09-10T10:47:44</time>
      </trkpt>
      <trkpt lat="44.35967" lon="4.6049">
        <ele>133.98465</ele>
        <time>2021-09-10T10:47:47</time>
      </trkpt>
      <trkpt lat="44.36106" lon="4.60651">
        <ele>137.08466</ele>
        <time>2021-09-10T10:48:16</time>
      </trkpt>
      <trkpt lat="44.36138" lon="4.60684">
        <ele>137.08466</ele>
        <time>2021-09-10T10:48:23</time>
      </trkpt>
      <trkpt lat="44.36153" lon="4.60709">
        <ele>137.08466</ele>
        <time>2021-09-10T10:48:27</time>
      </trkpt>
      <trkpt lat="44.3616" lon="4.60722">
        <ele>137.08466</ele>
        <time>2021-09-10T10:48:29</time>
      </trkpt>
      <trkpt lat="44.36192" lon="4.60806">
        <ele>134.78465</ele>
        <time>2021-09-10T10:48:42</time>
      </trkpt>
      <trkpt lat="44.36269" lon="4.60933">
        <ele>142.98465</ele>
        <time>2021-09-10T10:49:03</time>
      </trkpt>
      <trkpt lat="44.36281" lon="4.60947">
        <ele>142.98465</ele>
        <time>2021-09-10T10:49:05</time>
      </trkpt>
      <trkpt lat="44.36369" lon="4.61037">
        <ele>141.48465</ele>
        <time>2021-09-10T10:49:18</time>
      </trkpt>
      <trkpt lat="44.36381" lon="4.61055">
        <ele>141.48465</ele>
        <time>2021-09-10T10:49:20</time>
      </trkpt>
      <trkpt lat="44.36387" lon="4.61073">
        <ele>141.48465</ele>
        <time>2021-09-10T10:49:22</time>
      </trkpt>
      <trkpt lat="44.3643" lon="4.6124">
        <ele>130.28465</ele>
        <time>2021-09-10T10:49:37</time>
      </trkpt>
      <trkpt lat="44.3643" lon="4.61253">
        <ele>130.28465</ele>
        <time>2021-09-10T10:49:38</time>
      </trkpt>
      <trkpt lat="44.36428" lon="4.61275">
        <ele>130.28465</ele>
        <time>2021-09-10T10:49:40</time>
      </trkpt>
      <trkpt lat="44.36417" lon="4.61351">
        <ele>121.68466</ele>
        <time>2021-09-10T10:49:47</time>
      </trkpt>
      <trkpt lat="44.36419" lon="4.61362">
        <ele>121.68466</ele>
        <time>2021-09-10T10:49:48</time>
      </trkpt>
      <trkpt lat="44.36421" lon="4.61371">
        <ele>121.68466</ele>
        <time>2021-09-10T10:49:49</time>
      </trkpt>
      <trkpt lat="44.36433" lon="4.61397">
        <ele>121.68466</ele>
        <time>2021-09-10T10:49:52</time>
      </trkpt>
      <trkpt lat="44.36499" lon="4.61494">
        <ele>119.98465</ele>
        <time>2021-09-10T10:50:04</time>
      </trkpt>
      <trkpt lat="44.365" lon="4.61504">
        <ele>119.98465</ele>
        <time>2021-09-10T10:50:05</time>
      </trkpt>
      <trkpt lat="44.36502" lon="4.61527">
        <ele>112.584656</ele>
        <time>2021-09-10T10:50:07</time>
      </trkpt>
      <trkpt lat="44.36512" lon="4.61663">
        <ele>104.18466</ele>
        <time>2021-09-10T10:50:18</time>
      </trkpt>
      <trkpt lat="44.36519" lon="4.61687">
        <ele>104.18466</ele>
        <time>2021-09-10T10:50:20</time>
      </trkpt>
      <trkpt lat="44.36551" lon="4.61764">
        <ele>103.18466</ele>
        <time>2021-09-10T10:50:27</time>
      </trkpt>
      <trkpt lat="44.36563" lon="4.61781">
        <ele>103.18466</ele>
        <time>2021-09-10T10:50:29</time>
      </trkpt>
      <trkpt lat="44.36576" lon="4.61807">
        <ele>103.18466</ele>
        <time>2021-09-10T10:50:32</time>
      </trkpt>
      <trkpt lat="44.36579" lon="4.61821">
        <ele>103.18466</ele>
        <time>2021-09-10T10:50:34</time>
      </trkpt>
      <trkpt lat="44.36579" lon="4.6183">
        <ele>103.18466</ele>
        <time>2021-09-10T10:50:35</time>
      </trkpt>
      <trkpt lat="44.36576" lon="4.61838">
        <ele>99.38466</ele>
        <time>2021-09-10T10:50:36</time>
      </trkpt>
      <trkpt lat="44.36573" lon="4.61845">
        <ele>99.38466</ele>
        <time>2021-09-10T10:50:38</time>
      </trkpt>
      <trkpt lat="44.36563" lon="4.6186">
        <ele>99.38466</ele>
        <time>2021-09-10T10:50:39</time>
      </trkpt>
      <trkpt lat="44.3655" lon="4.61883">
        <ele>99.38466</ele>
        <time>2021-09-10T10:50:42</time>
      </trkpt>
      <trkpt lat="44.36546" lon="4.61891">
        <ele>99.38466</ele>
        <time>2021-09-10T10:50:43</time>
      </trkpt>
      <trkpt lat="44.36545" lon="4.61901">
        <ele>99.38466</ele>
        <time>2021-09-10T10:50:44</time>
      </trkpt>
      <trkpt lat="44.36545" lon="4.61908">
        <ele>99.38466</ele>
        <time>2021-09-10T10:50:45</time>
      </trkpt>
      <trkpt lat="44.36549" lon="4.61916">
        <ele>99.38466</ele>
        <time>2021-09-10T10:50:46</time>
      </trkpt>
      <trkpt lat="44.36554" lon="4.61922">
        <ele>99.38466</ele>
        <time>2021-09-10T10:50:47</time>
      </trkpt>
      <trkpt lat="44.3656" lon="4.61927">
        <ele>99.38466</ele>
        <time>2021-09-10T10:50:48</time>
      </trkpt>
      <trkpt lat="44.36643" lon="4.62018">
        <ele>99.38466</ele>
        <time>2021-09-10T10:51:01</time>
      </trkpt>
      <trkpt lat="44.36707" lon="4.62111">
        <ele>91.584656</ele>
        <time>2021-09-10T10:51:12</time>
      </trkpt>
      <trkpt lat="44.36735" lon="4.6214">
        <ele>91.584656</ele>
        <time>2021-09-10T10:51:16</time>
      </trkpt>
      <trkpt lat="44.36743" lon="4.62158">
        <ele>87.084656</ele>
        <time>2021-09-10T10:51:18</time>
      </trkpt>
      <trkpt lat="44.36755" lon="4.62199">
        <ele>87.084656</ele>
        <time>2021-09-10T10:51:22</time>
      </trkpt>
      <trkpt lat="44.36763" lon="4.62244">
        <ele>87.084656</ele>
        <time>2021-09-10T10:51:26</time>
      </trkpt>
      <trkpt lat="44.36763" lon="4.62282">
        <ele>79.38466</ele>
        <time>2021-09-10T10:51:29</time>
      </trkpt>
      <trkpt lat="44.36763" lon="4.62315">
        <ele>79.38466</ele>
        <time>2021-09-10T10:51:32</time>
      </trkpt>
      <trkpt lat="44.36766" lon="4.62338">
        <ele>79.38466</ele>
        <time>2021-09-10T10:51:34</time>
      </trkpt>
      <trkpt lat="44.36774" lon="4.62363">
        <ele>79.38466</ele>
        <time>2021-09-10T10:51:36</time>
      </trkpt>
      <trkpt lat="44.36788" lon="4.62397">
        <ele>71.084656</ele>
        <time>2021-09-10T10:51:39</time>
      </trkpt>
      <trkpt lat="44.36803" lon="4.62434">
        <ele>71.084656</ele>
        <time>2021-09-10T10:51:43</time>
      </trkpt>
      <trkpt lat="44.36804" lon="4.62444">
        <ele>71.084656</ele>
        <time>2021-09-10T10:51:44</time>
      </trkpt>
      <trkpt lat="44.36805" lon="4.62456">
        <ele>71.084656</ele>
        <time>2021-09-10T10:51:45</time>
      </trkpt>
      <trkpt lat="44.36805" lon="4.62467">
        <ele>71.084656</ele>
        <time>2021-09-10T10:51:46</time>
      </trkpt>
      <trkpt lat="44.36801" lon="4.62489">
        <ele>65.684654</ele>
        <time>2021-09-10T10:51:48</time>
      </trkpt>
      <trkpt lat="44.36791" lon="4.62544">
        <ele>65.684654</ele>
        <time>2021-09-10T10:51:53</time>
      </trkpt>
      <trkpt lat="44.36793" lon="4.62563">
        <ele>65.684654</ele>
        <time>2021-09-10T10:51:55</time>
      </trkpt>
      <trkpt lat="44.36795" lon="4.62587">
        <ele>59.784653</ele>
        <time>2021-09-10T10:51:57</time>
      </trkpt>
      <trkpt lat="44.36808" lon="4.62685">
        <ele>59.784653</ele>
        <time>2021-09-10T10:52:05</time>
      </trkpt>
      <trkpt lat="44.36808" lon="4.62706">
        <ele>59.784653</ele>
        <time>2021-09-10T10:52:07</time>
      </trkpt>
      <trkpt lat="44.36806" lon="4.62717">
        <ele>59.784653</ele>
        <time>2021-09-10T10:52:08</time>
      </trkpt>
      <trkpt lat="44.36801" lon="4.62733">
        <ele>59.784653</ele>
        <time>2021-09-10T10:52:10</time>
      </trkpt>
      <trkpt lat="44.36785" lon="4.62779">
        <ele>59.784653</ele>
        <time>2021-09-10T10:52:15</time>
      </trkpt>
      <trkpt lat="44.36773" lon="4.62857">
        <ele>55.584656</ele>
        <time>2021-09-10T10:52:24</time>
      </trkpt>
      <trkpt lat="44.36767" lon="4.62905">
        <ele>55.88466</ele>
        <time>2021-09-10T10:52:35</time>
      </trkpt>
      <trkpt lat="44.36767" lon="4.62907">
        <ele>52.88466</ele>
        <time>2021-09-10T10:52:52</time>
      </trkpt>
      <trkpt lat="44.36767" lon="4.62906">
        <ele>52.88466</ele>
        <time>2021-09-10T10:52:53</time>
      </trkpt>
      <trkpt lat="44.36768" lon="4.62906">
        <ele>52.88466</ele>
        <time>2021-09-10T10:52:56</time>
      </trkpt>
      <trkpt lat="44.36767" lon="4.62906">
        <ele>52.184654</ele>
        <time>2021-09-10T10:52:57</time>
      </trkpt>
      <trkpt lat="44.36767" lon="4.62906">
        <ele>52.184654</ele>
        <time>2021-09-10T10:52:59</time>
      </trkpt>
      <trkpt lat="44.36767" lon="4.62908">
        <ele>52.184654</ele>
        <time>2021-09-10T10:53:02</time>
      </trkpt>
      <trkpt lat="44.36767" lon="4.62912">
        <ele>52.184654</ele>
        <time>2021-09-10T10:53:04</time>
      </trkpt>
      <trkpt lat="44.36767" lon="4.62915">
        <ele>52.184654</ele>
        <time>2021-09-10T10:53:05</time>
      </trkpt>
      <trkpt lat="44.36766" lon="4.62926">
        <ele>52.184654</ele>
        <time>2021-09-10T10:53:08</time>
      </trkpt>
      <trkpt lat="44.36765" lon="4.62938">
        <ele>52.184654</ele>
        <time>2021-09-10T10:53:11</time>
      </trkpt>
      <trkpt lat="44.36763" lon="4.62985">
        <ele>52.184654</ele>
        <time>2021-09-10T10:53:21</time>
      </trkpt>
      <trkpt lat="44.36763" lon="4.62995">
        <ele>52.184654</ele>
        <time>2021-09-10T10:53:23</time>
      </trkpt>
      <trkpt lat="44.36761" lon="4.63121">
        <ele>52.184654</ele>
        <time>2021-09-10T10:53:49</time>
      </trkpt>
      <trkpt lat="44.36761" lon="4.63126">
        <ele>52.184654</ele>
        <time>2021-09-10T10:53:50</time>
      </trkpt>
      <trkpt lat="44.36761" lon="4.63162">
        <ele>52.184654</ele>
        <time>2021-09-10T10:53:58</time>
      </trkpt>
      <trkpt lat="44.36769" lon="4.63225">
        <ele>52.184654</ele>
        <time>2021-09-10T10:54:14</time>
      </trkpt>
      <trkpt lat="44.36773" lon="4.63243">
        <ele>52.184654</ele>
        <time>2021-09-10T10:54:18</time>
      </trkpt>
      <trkpt lat="44.36779" lon="4.63303">
        <ele>59.084656</ele>
        <time>2021-09-10T10:54:28</time>
      </trkpt>
      <trkpt lat="44.36806" lon="4.63473">
        <ele>57.084656</ele>
        <time>2021-09-10T10:54:48</time>
      </trkpt>
      <trkpt lat="44.36814" lon="4.63488">
        <ele>57.084656</ele>
        <time>2021-09-10T10:54:50</time>
      </trkpt>
      <trkpt lat="44.36824" lon="4.63504">
        <ele>57.084656</ele>
        <time>2021-09-10T10:54:52</time>
      </trkpt>
      <trkpt lat="44.36889" lon="4.63584">
        <ele>51.01799</ele>
        <time>2021-09-10T10:55:04</time>
      </trkpt>
      <trkpt lat="44.36891" lon="4.63591">
        <ele>51.01799</ele>
        <time>2021-09-10T10:55:05</time>
      </trkpt>
      <trkpt lat="44.36896" lon="4.63611">
        <ele>52.984657</ele>
        <time>2021-09-10T10:55:07</time>
      </trkpt>
      <trkpt lat="44.36901" lon="4.6364">
        <ele>52.984657</ele>
        <time>2021-09-10T10:55:10</time>
      </trkpt>
      <trkpt lat="44.36908" lon="4.63653">
        <ele>52.984657</ele>
        <time>2021-09-10T10:55:12</time>
      </trkpt>
      <trkpt lat="44.36916" lon="4.63668">
        <ele>52.984657</ele>
        <time>2021-09-10T10:55:14</time>
      </trkpt>
      <trkpt lat="44.3694" lon="4.63694">
        <ele>47.184654</ele>
        <time>2021-09-10T10:55:18</time>
      </trkpt>
      <trkpt lat="44.36956" lon="4.63717">
        <ele>47.184654</ele>
        <time>2021-09-10T10:55:21</time>
      </trkpt>
      <trkpt lat="44.36965" lon="4.63733">
        <ele>47.184654</ele>
        <time>2021-09-10T10:55:23</time>
      </trkpt>
      <trkpt lat="44.36969" lon="4.63744">
        <ele>47.184654</ele>
        <time>2021-09-10T10:55:24</time>
      </trkpt>
      <trkpt lat="44.36979" lon="4.63776">
        <ele>42.084656</ele>
        <time>2021-09-10T10:55:27</time>
      </trkpt>
      <trkpt lat="44.36984" lon="4.63786">
        <ele>42.084656</ele>
        <time>2021-09-10T10:55:28</time>
      </trkpt>
      <trkpt lat="44.36995" lon="4.63801">
        <ele>42.084656</ele>
        <time>2021-09-10T10:55:30</time>
      </trkpt>
      <trkpt lat="44.37008" lon="4.63816">
        <ele>42.084656</ele>
        <time>2021-09-10T10:55:32</time>
      </trkpt>
      <trkpt lat="44.37033" lon="4.6384">
        <ele>42.084656</ele>
        <time>2021-09-10T10:55:36</time>
      </trkpt>
      <trkpt lat="44.37039" lon="4.63845">
        <ele>43.284653</ele>
        <time>2021-09-10T10:55:37</time>
      </trkpt>
      <trkpt lat="44.37047" lon="4.63848">
        <ele>43.284653</ele>
        <time>2021-09-10T10:55:38</time>
      </trkpt>
      <trkpt lat="44.37061" lon="4.63849">
        <ele>43.284653</ele>
        <time>2021-09-10T10:55:40</time>
      </trkpt>
      <trkpt lat="44.37094" lon="4.63847">
        <ele>43.284653</ele>
        <time>2021-09-10T10:55:44</time>
      </trkpt>
      <trkpt lat="44.37109" lon="4.63845">
        <ele>43.284653</ele>
        <time>2021-09-10T10:55:46</time>
      </trkpt>
      <trkpt lat="44.37178" lon="4.63875">
        <ele>43.284653</ele>
        <time>2021-09-10T10:55:55</time>
      </trkpt>
      <trkpt lat="44.3719" lon="4.63885">
        <ele>43.284653</ele>
        <time>2021-09-10T10:55:57</time>
      </trkpt>
      <trkpt lat="44.37198" lon="4.63899">
        <ele>43.284653</ele>
        <time>2021-09-10T10:56:00</time>
      </trkpt>
      <trkpt lat="44.37241" lon="4.63978">
        <ele>29.98466</ele>
        <time>2021-09-10T10:56:08</time>
      </trkpt>
      <trkpt lat="44.37252" lon="4.64023">
        <ele>29.98466</ele>
        <time>2021-09-10T10:56:12</time>
      </trkpt>
      <trkpt lat="44.37265" lon="4.64068">
        <ele>29.98466</ele>
        <time>2021-09-10T10:56:16</time>
      </trkpt>
      <trkpt lat="44.3728" lon="4.64103">
        <ele>24.284655</ele>
        <time>2021-09-10T10:56:20</time>
      </trkpt>
      <trkpt lat="44.37291" lon="4.64128">
        <ele>24.284655</ele>
        <time>2021-09-10T10:56:25</time>
      </trkpt>
      <trkpt lat="44.37294" lon="4.64134">
        <ele>24.284655</ele>
        <time>2021-09-10T10:56:26</time>
      </trkpt>
      <trkpt lat="44.37294" lon="4.64141">
        <ele>24.284655</ele>
        <time>2021-09-10T10:56:27</time>
      </trkpt>
      <trkpt lat="44.37296" lon="4.64155">
        <ele>14.984658</ele>
        <time>2021-09-10T10:56:29</time>
      </trkpt>
      <trkpt lat="44.37297" lon="4.64169">
        <ele>14.984658</ele>
        <time>2021-09-10T10:56:31</time>
      </trkpt>
      <trkpt lat="44.37301" lon="4.64175">
        <ele>14.984658</ele>
        <time>2021-09-10T10:56:32</time>
      </trkpt>
      <trkpt lat="44.37304" lon="4.64178">
        <ele>14.984658</ele>
        <time>2021-09-10T10:56:33</time>
      </trkpt>
      <trkpt lat="44.37307" lon="4.64179">
        <ele>14.984658</ele>
        <time>2021-09-10T10:56:34</time>
      </trkpt>
      <trkpt lat="44.3731" lon="4.64176">
        <ele>14.984658</ele>
        <time>2021-09-10T10:56:35</time>
      </trkpt>
      <trkpt lat="44.37313" lon="4.6417">
        <ele>14.984658</ele>
        <time>2021-09-10T10:56:36</time>
      </trkpt>
      <trkpt lat="44.37316" lon="4.64163">
        <ele>14.984658</ele>
        <time>2021-09-10T10:56:37</time>
      </trkpt>
      <trkpt lat="44.37316" lon="4.64153">
        <ele>18.88466</ele>
        <time>2021-09-10T10:56:39</time>
      </trkpt>
      <trkpt lat="44.37315" lon="4.64143">
        <ele>18.88466</ele>
        <time>2021-09-10T10:56:41</time>
      </trkpt>
      <trkpt lat="44.37317" lon="4.6414">
        <ele>18.88466</ele>
        <time>2021-09-10T10:56:42</time>
      </trkpt>
      <trkpt lat="44.37318" lon="4.64138">
        <ele>18.88466</ele>
        <time>2021-09-10T10:56:43</time>
      </trkpt>
      <trkpt lat="44.37319" lon="4.64137">
        <ele>18.88466</ele>
        <time>2021-09-10T10:56:44</time>
      </trkpt>
      <trkpt lat="44.3732" lon="4.64137">
        <ele>18.88466</ele>
        <time>2021-09-10T10:56:45</time>
      </trkpt>
      <trkpt lat="44.37321" lon="4.64138">
        <ele>18.88466</ele>
        <time>2021-09-10T10:56:47</time>
      </trkpt>
      <trkpt lat="44.37321" lon="4.64138">
        <ele>20.284655</ele>
        <time>2021-09-10T10:56:50</time>
      </trkpt>
      <trkpt lat="44.37321" lon="4.64139">
        <ele>20.284655</ele>
        <time>2021-09-10T10:56:52</time>
      </trkpt>
      <trkpt lat="44.3732" lon="4.64139">
        <ele>23.48466</ele>
        <time>2021-09-10T10:56:59</time>
      </trkpt>
      <trkpt lat="44.3732" lon="4.64138">
        <ele>23.48466</ele>
        <time>2021-09-10T10:57:00</time>
      </trkpt>
      <trkpt lat="44.3732" lon="4.64136">
        <ele>22.684656</ele>
        <time>2021-09-10T10:57:31</time>
      </trkpt>
      <trkpt lat="44.3732" lon="4.64136">
        <ele>22.684656</ele>
        <time>2021-09-10T10:57:35</time>
      </trkpt>
      <trkpt lat="44.3732" lon="4.64136">
        <ele>22.684656</ele>
        <time>2021-09-10T10:57:38</time>
      </trkpt>
      <trkpt lat="44.37321" lon="4.64138">
        <ele>19.084658</ele>
        <time>2021-09-10T10:58:10</time>
      </trkpt>
      <trkpt lat="44.37321" lon="4.64139">
        <ele>19.084658</ele>
        <time>2021-09-10T10:58:11</time>
      </trkpt>
      <trkpt lat="44.3732" lon="4.64139">
        <ele>19.084658</ele>
        <time>2021-09-10T10:58:12</time>
      </trkpt>
      <trkpt lat="44.3732" lon="4.64137">
        <ele>19.084658</ele>
        <time>2021-09-10T10:58:15</time>
      </trkpt>
      <trkpt lat="44.37319" lon="4.64136">
        <ele>19.084658</ele>
        <time>2021-09-10T10:58:16</time>
      </trkpt>
      <trkpt lat="44.37319" lon="4.64136">
        <ele>17.98466</ele>
        <time>2021-09-10T10:58:46</time>
      </trkpt>
      <trkpt lat="44.37319" lon="4.64135">
        <ele>17.98466</ele>
        <time>2021-09-10T10:59:07</time>
      </trkpt>
      <trkpt lat="44.37319" lon="4.64134">
        <ele>17.98466</ele>
        <time>2021-09-10T10:59:08</time>
      </trkpt>
      <trkpt lat="44.37319" lon="4.64132">
        <ele>17.98466</ele>
        <time>2021-09-10T10:59:10</time>
      </trkpt>
      <trkpt lat="44.37317" lon="4.64131">
        <ele>17.98466</ele>
        <time>2021-09-10T10:59:11</time>
      </trkpt>
      <trkpt lat="44.37315" lon="4.64131">
        <ele>17.98466</ele>
        <time>2021-09-10T10:59:12</time>
      </trkpt>
      <trkpt lat="44.37311" lon="4.64129">
        <ele>17.98466</ele>
        <time>2021-09-10T10:59:15</time>
      </trkpt>
      <trkpt lat="44.37311" lon="4.64126">
        <ele>17.98466</ele>
        <time>2021-09-10T10:59:16</time>
      </trkpt>
      <trkpt lat="44.3731" lon="4.6412">
        <ele>17.98466</ele>
        <time>2021-09-10T10:59:18</time>
      </trkpt>
      <trkpt lat="44.3731" lon="4.64117">
        <ele>17.98466</ele>
        <time>2021-09-10T10:59:19</time>
      </trkpt>
      <trkpt lat="44.37316" lon="4.64102">
        <ele>17.98466</ele>
        <time>2021-09-10T10:59:24</time>
      </trkpt>
      <trkpt lat="44.37325" lon="4.64086">
        <ele>24.684656</ele>
        <time>2021-09-10T10:59:30</time>
      </trkpt>
      <trkpt lat="44.37327" lon="4.64083">
        <ele>24.684656</ele>
        <time>2021-09-10T10:59:31</time>
      </trkpt>
      <trkpt lat="44.37328" lon="4.64081">
        <ele>24.684656</ele>
        <time>2021-09-10T10:59:32</time>
      </trkpt>
      <trkpt lat="44.3733" lon="4.6408">
        <ele>24.684656</ele>
        <time>2021-09-10T10:59:33</time>
      </trkpt>
      <trkpt lat="44.37334" lon="4.64078">
        <ele>24.684656</ele>
        <time>2021-09-10T10:59:36</time>
      </trkpt>
      <trkpt lat="44.37334" lon="4.64079">
        <ele>24.684656</ele>
        <time>2021-09-10T10:59:37</time>
      </trkpt>
      <trkpt lat="44.37335" lon="4.64078">
        <ele>26.084658</ele>
        <time>2021-09-10T10:59:40</time>
      </trkpt>
      <trkpt lat="44.37335" lon="4.64077">
        <ele>26.084658</ele>
        <time>2021-09-10T10:59:41</time>
      </trkpt>
      <trkpt lat="44.37338" lon="4.64073">
        <ele>26.084658</ele>
        <time>2021-09-10T10:59:44</time>
      </trkpt>
      <trkpt lat="44.37342" lon="4.6407">
        <ele>26.084658</ele>
        <time>2021-09-10T10:59:46</time>
      </trkpt>
      <trkpt lat="44.37345" lon="4.64068">
        <ele>26.084658</ele>
        <time>2021-09-10T10:59:47</time>
      </trkpt>
      <trkpt lat="44.37354" lon="4.64065">
        <ele>24.684656</ele>
        <time>2021-09-10T10:59:51</time>
      </trkpt>
      <trkpt lat="44.37356" lon="4.64065">
        <ele>24.684656</ele>
        <time>2021-09-10T10:59:52</time>
      </trkpt>
      <trkpt lat="44.37373" lon="4.64056">
        <ele>24.684656</ele>
        <time>2021-09-10T10:59:59</time>
      </trkpt>
      <trkpt lat="44.37383" lon="4.6405">
        <ele>24.684656</ele>
        <time>2021-09-10T11:00:03</time>
      </trkpt>
      <trkpt lat="44.37446" lon="4.64033">
        <ele>24.684656</ele>
        <time>2021-09-10T11:00:24</time>
      </trkpt>
      <trkpt lat="44.37454" lon="4.6403">
        <ele>24.684656</ele>
        <time>2021-09-10T11:00:27</time>
      </trkpt>
      <trkpt lat="44.3747" lon="4.64026">
        <ele>24.684656</ele>
        <time>2021-09-10T11:00:32</time>
      </trkpt>
      <trkpt lat="44.375" lon="4.64016">
        <ele>25.284655</ele>
        <time>2021-09-10T11:00:42</time>
      </trkpt>
      <trkpt lat="44.37517" lon="4.64005">
        <ele>25.284655</ele>
        <time>2021-09-10T11:00:49</time>
      </trkpt>
      <trkpt lat="44.37545" lon="4.63977">
        <ele>25.284655</ele>
        <time>2021-09-10T11:01:01</time>
      </trkpt>
      <trkpt lat="44.3756" lon="4.63969">
        <ele>25.284655</ele>
        <time>2021-09-10T11:01:06</time>
      </trkpt>
      <trkpt lat="44.37577" lon="4.6396">
        <ele>28.284655</ele>
        <time>2021-09-10T11:01:12</time>
      </trkpt>
      <trkpt lat="44.3759" lon="4.6395">
        <ele>28.284655</ele>
        <time>2021-09-10T11:01:17</time>
      </trkpt>
      <trkpt lat="44.37592" lon="4.63947">
        <ele>31.684656</ele>
        <time>2021-09-10T11:01:18</time>
      </trkpt>
      <trkpt lat="44.37601" lon="4.63929">
        <ele>31.684656</ele>
        <time>2021-09-10T11:01:24</time>
      </trkpt>
      <trkpt lat="44.37606" lon="4.63916">
        <ele>31.684656</ele>
        <time>2021-09-10T11:01:28</time>
      </trkpt>
      <trkpt lat="44.37608" lon="4.63909">
        <ele>38.984657</ele>
        <time>2021-09-10T11:01:30</time>
      </trkpt>
      <trkpt lat="44.37627" lon="4.63859">
        <ele>40.484657</ele>
        <time>2021-09-10T11:01:45</time>
      </trkpt>
      <trkpt lat="44.37639" lon="4.63816">
        <ele>44.684654</ele>
        <time>2021-09-10T11:01:57</time>
      </trkpt>
      <trkpt lat="44.3765" lon="4.63782">
        <ele>44.684654</ele>
        <time>2021-09-10T11:02:07</time>
      </trkpt>
      <trkpt lat="44.37653" lon="4.63774">
        <ele>44.684654</ele>
        <time>2021-09-10T11:02:10</time>
      </trkpt>
      <trkpt lat="44.37654" lon="4.63772">
        <ele>44.684654</ele>
        <time>2021-09-10T11:02:11</time>
      </trkpt>
      <trkpt lat="44.37659" lon="4.63756">
        <ele>44.684654</ele>
        <time>2021-09-10T11:02:16</time>
      </trkpt>
      <trkpt lat="44.3766" lon="4.63753">
        <ele>44.684654</ele>
        <time>2021-09-10T11:02:17</time>
      </trkpt>
      <trkpt lat="44.37684" lon="4.63668">
        <ele>44.784653</ele>
        <time>2021-09-10T11:02:39</time>
      </trkpt>
      <trkpt lat="44.37699" lon="4.63631">
        <ele>52.11799</ele>
        <time>2021-09-10T11:02:51</time>
      </trkpt>
      <trkpt lat="44.37707" lon="4.63604">
        <ele>52.11799</ele>
        <time>2021-09-10T11:02:59</time>
      </trkpt>
      <trkpt lat="44.37708" lon="4.636">
        <ele>52.11799</ele>
        <time>2021-09-10T11:03:00</time>
      </trkpt>
      <trkpt lat="44.37712" lon="4.6359">
        <ele>52.11799</ele>
        <time>2021-09-10T11:03:03</time>
      </trkpt>
      <trkpt lat="44.37725" lon="4.63552">
        <ele>52.11799</ele>
        <time>2021-09-10T11:03:13</time>
      </trkpt>
      <trkpt lat="44.37733" lon="4.63539">
        <ele>52.11799</ele>
        <time>2021-09-10T11:03:17</time>
      </trkpt>
      <trkpt lat="44.37742" lon="4.63526">
        <ele>52.11799</ele>
        <time>2021-09-10T11:03:22</time>
      </trkpt>
      <trkpt lat="44.37747" lon="4.63516">
        <ele>52.11799</ele>
        <time>2021-09-10T11:03:25</time>
      </trkpt>
      <trkpt lat="44.37749" lon="4.63513">
        <ele>52.11799</ele>
        <time>2021-09-10T11:03:26</time>
      </trkpt>
      <trkpt lat="44.37769" lon="4.63486">
        <ele>52.11799</ele>
        <time>2021-09-10T11:03:36</time>
      </trkpt>
      <trkpt lat="44.37792" lon="4.63445">
        <ele>63.284653</ele>
        <time>2021-09-10T11:03:49</time>
      </trkpt>
      <trkpt lat="44.3781" lon="4.63407">
        <ele>67.584656</ele>
        <time>2021-09-10T11:04:00</time>
      </trkpt>
      <trkpt lat="44.3782" lon="4.63394">
        <ele>67.584656</ele>
        <time>2021-09-10T11:04:04</time>
      </trkpt>
      <trkpt lat="44.37844" lon="4.63371">
        <ele>67.584656</ele>
        <time>2021-09-10T11:04:14</time>
      </trkpt>
      <trkpt lat="44.37871" lon="4.63354">
        <ele>64.184654</ele>
        <time>2021-09-10T11:04:24</time>
      </trkpt>
      <trkpt lat="44.37919" lon="4.63328">
        <ele>63.484657</ele>
        <time>2021-09-10T11:04:40</time>
      </trkpt>
      <trkpt lat="44.37926" lon="4.63325">
        <ele>63.484657</ele>
        <time>2021-09-10T11:04:42</time>
      </trkpt>
      <trkpt lat="44.37932" lon="4.63322">
        <ele>63.484657</ele>
        <time>2021-09-10T11:04:44</time>
      </trkpt>
      <trkpt lat="44.37956" lon="4.63312">
        <ele>63.484657</ele>
        <time>2021-09-10T11:04:51</time>
      </trkpt>
      <trkpt lat="44.37976" lon="4.63303">
        <ele>63.484657</ele>
        <time>2021-09-10T11:04:57</time>
      </trkpt>
      <trkpt lat="44.37987" lon="4.633">
        <ele>63.484657</ele>
        <time>2021-09-10T11:05:00</time>
      </trkpt>
      <trkpt lat="44.37991" lon="4.63299">
        <ele>63.484657</ele>
        <time>2021-09-10T11:05:01</time>
      </trkpt>
      <trkpt lat="44.38027" lon="4.63289">
        <ele>65.584656</ele>
        <time>2021-09-10T11:05:11</time>
      </trkpt>
      <trkpt lat="44.38052" lon="4.63276">
        <ele>65.584656</ele>
        <time>2021-09-10T11:05:18</time>
      </trkpt>
      <trkpt lat="44.38066" lon="4.63263">
        <ele>65.584656</ele>
        <time>2021-09-10T11:05:22</time>
      </trkpt>
      <trkpt lat="44.38082" lon="4.63239">
        <ele>65.584656</ele>
        <time>2021-09-10T11:05:27</time>
      </trkpt>
      <trkpt lat="44.3811" lon="4.6319">
        <ele>65.584656</ele>
        <time>2021-09-10T11:05:37</time>
      </trkpt>
      <trkpt lat="44.38117" lon="4.63181">
        <ele>70.48466</ele>
        <time>2021-09-10T11:05:39</time>
      </trkpt>
      <trkpt lat="44.38179" lon="4.63058">
        <ele>69.184654</ele>
        <time>2021-09-10T11:06:03</time>
      </trkpt>
      <trkpt lat="44.38189" lon="4.6304">
        <ele>69.184654</ele>
        <time>2021-09-10T11:06:07</time>
      </trkpt>
      <trkpt lat="44.38211" lon="4.63005">
        <ele>69.184654</ele>
        <time>2021-09-10T11:06:16</time>
      </trkpt>
      <trkpt lat="44.38241" lon="4.62965">
        <ele>69.184654</ele>
        <time>2021-09-10T11:06:27</time>
      </trkpt>
      <trkpt lat="44.38256" lon="4.6295">
        <ele>69.184654</ele>
        <time>2021-09-10T11:06:32</time>
      </trkpt>
      <trkpt lat="44.38268" lon="4.62935">
        <ele>69.184654</ele>
        <time>2021-09-10T11:06:36</time>
      </trkpt>
      <trkpt lat="44.38271" lon="4.62932">
        <ele>69.184654</ele>
        <time>2021-09-10T11:06:37</time>
      </trkpt>
      <trkpt lat="44.38349" lon="4.62839">
        <ele>75.38466</ele>
        <time>2021-09-10T11:07:05</time>
      </trkpt>
      <trkpt lat="44.38354" lon="4.62827">
        <ele>75.38466</ele>
        <time>2021-09-10T11:07:08</time>
      </trkpt>
      <trkpt lat="44.38354" lon="4.62822">
        <ele>75.38466</ele>
        <time>2021-09-10T11:07:09</time>
      </trkpt>
      <trkpt lat="44.38354" lon="4.62818">
        <ele>75.38466</ele>
        <time>2021-09-10T11:07:10</time>
      </trkpt>
      <trkpt lat="44.38351" lon="4.62809">
        <ele>78.98465</ele>
        <time>2021-09-10T11:07:12</time>
      </trkpt>
      <trkpt lat="44.38345" lon="4.62802">
        <ele>78.98465</ele>
        <time>2021-09-10T11:07:14</time>
      </trkpt>
      <trkpt lat="44.38342" lon="4.62799">
        <ele>78.98465</ele>
        <time>2021-09-10T11:07:15</time>
      </trkpt>
      <trkpt lat="44.38336" lon="4.62797">
        <ele>78.98465</ele>
        <time>2021-09-10T11:07:17</time>
      </trkpt>
      <trkpt lat="44.38333" lon="4.62796">
        <ele>78.98465</ele>
        <time>2021-09-10T11:07:18</time>
      </trkpt>
      <trkpt lat="44.38329" lon="4.62797">
        <ele>78.98465</ele>
        <time>2021-09-10T11:07:19</time>
      </trkpt>
      <trkpt lat="44.38326" lon="4.62798">
        <ele>78.98465</ele>
        <time>2021-09-10T11:07:20</time>
      </trkpt>
      <trkpt lat="44.38315" lon="4.62804">
        <ele>78.98465</ele>
        <time>2021-09-10T11:07:23</time>
      </trkpt>
      <trkpt lat="44.38274" lon="4.62825">
        <ele>86.78465</ele>
        <time>2021-09-10T11:07:34</time>
      </trkpt>
      <trkpt lat="44.38266" lon="4.62828">
        <ele>86.78465</ele>
        <time>2021-09-10T11:07:36</time>
      </trkpt>
      <trkpt lat="44.38251" lon="4.6283">
        <ele>86.78465</ele>
        <time>2021-09-10T11:07:40</time>
      </trkpt>
      <trkpt lat="44.38247" lon="4.62829">
        <ele>86.78465</ele>
        <time>2021-09-10T11:07:41</time>
      </trkpt>
      <trkpt lat="44.38236" lon="4.62825">
        <ele>90.71799</ele>
        <time>2021-09-10T11:07:44</time>
      </trkpt>
      <trkpt lat="44.3819" lon="4.62798">
        <ele>96.78465</ele>
        <time>2021-09-10T11:08:00</time>
      </trkpt>
      <trkpt lat="44.38164" lon="4.62792">
        <ele>98.15132</ele>
        <time>2021-09-10T11:08:09</time>
      </trkpt>
      <trkpt lat="44.38159" lon="4.62787">
        <ele>98.15132</ele>
        <time>2021-09-10T11:08:11</time>
      </trkpt>
      <trkpt lat="44.38154" lon="4.62776">
        <ele>98.15132</ele>
        <time>2021-09-10T11:08:14</time>
      </trkpt>
      <trkpt lat="44.38152" lon="4.62772">
        <ele>98.15132</ele>
        <time>2021-09-10T11:08:15</time>
      </trkpt>
      <trkpt lat="44.38151" lon="4.62768">
        <ele>98.15132</ele>
        <time>2021-09-10T11:08:16</time>
      </trkpt>
      <trkpt lat="44.38151" lon="4.62765">
        <ele>98.15132</ele>
        <time>2021-09-10T11:08:17</time>
      </trkpt>
      <trkpt lat="44.38151" lon="4.62761">
        <ele>98.15132</ele>
        <time>2021-09-10T11:08:18</time>
      </trkpt>
      <trkpt lat="44.38151" lon="4.62751">
        <ele>98.15132</ele>
        <time>2021-09-10T11:08:21</time>
      </trkpt>
      <trkpt lat="44.38153" lon="4.62745">
        <ele>98.15132</ele>
        <time>2021-09-10T11:08:23</time>
      </trkpt>
      <trkpt lat="44.38156" lon="4.62735">
        <ele>98.15132</ele>
        <time>2021-09-10T11:08:26</time>
      </trkpt>
      <trkpt lat="44.38164" lon="4.62724">
        <ele>98.15132</ele>
        <time>2021-09-10T11:08:30</time>
      </trkpt>
      <trkpt lat="44.38174" lon="4.62715">
        <ele>98.15132</ele>
        <time>2021-09-10T11:08:34</time>
      </trkpt>
      <trkpt lat="44.3819" lon="4.62704">
        <ele>98.15132</ele>
        <time>2021-09-10T11:08:40</time>
      </trkpt>
      <trkpt lat="44.38205" lon="4.62702">
        <ele>98.15132</ele>
        <time>2021-09-10T11:08:45</time>
      </trkpt>
      <trkpt lat="44.38212" lon="4.62701">
        <ele>98.15132</ele>
        <time>2021-09-10T11:08:48</time>
      </trkpt>
      <trkpt lat="44.38221" lon="4.62695">
        <ele>98.15132</ele>
        <time>2021-09-10T11:08:52</time>
      </trkpt>
      <trkpt lat="44.38226" lon="4.6269">
        <ele>98.15132</ele>
        <time>2021-09-10T11:08:54</time>
      </trkpt>
      <trkpt lat="44.3823" lon="4.62684">
        <ele>98.15132</ele>
        <time>2021-09-10T11:08:56</time>
      </trkpt>
      <trkpt lat="44.38238" lon="4.62668">
        <ele>98.15132</ele>
        <time>2021-09-10T11:09:01</time>
      </trkpt>
      <trkpt lat="44.38246" lon="4.62654">
        <ele>98.15132</ele>
        <time>2021-09-10T11:09:05</time>
      </trkpt>
      <trkpt lat="44.3825" lon="4.62649">
        <ele>98.15132</ele>
        <time>2021-09-10T11:09:07</time>
      </trkpt>
      <trkpt lat="44.38264" lon="4.62634">
        <ele>98.15132</ele>
        <time>2021-09-10T11:09:13</time>
      </trkpt>
      <trkpt lat="44.38268" lon="4.6263">
        <ele>98.15132</ele>
        <time>2021-09-10T11:09:15</time>
      </trkpt>
      <trkpt lat="44.38289" lon="4.62609">
        <ele>98.15132</ele>
        <time>2021-09-10T11:09:25</time>
      </trkpt>
      <trkpt lat="44.38344" lon="4.62564">
        <ele>98.15132</ele>
        <time>2021-09-10T11:09:50</time>
      </trkpt>
      <trkpt lat="44.38362" lon="4.62545">
        <ele>109.98465</ele>
        <time>2021-09-10T11:09:58</time>
      </trkpt>
      <trkpt lat="44.38378" lon="4.62532">
        <ele>109.98465</ele>
        <time>2021-09-10T11:10:05</time>
      </trkpt>
      <trkpt lat="44.3838" lon="4.6253">
        <ele>109.98465</ele>
        <time>2021-09-10T11:10:06</time>
      </trkpt>
      <trkpt lat="44.38399" lon="4.62513">
        <ele>110.084656</ele>
        <time>2021-09-10T11:10:15</time>
      </trkpt>
      <trkpt lat="44.38401" lon="4.62511">
        <ele>110.084656</ele>
        <time>2021-09-10T11:10:16</time>
      </trkpt>
      <trkpt lat="44.38413" lon="4.62501">
        <ele>110.084656</ele>
        <time>2021-09-10T11:10:21</time>
      </trkpt>
      <trkpt lat="44.38439" lon="4.62466">
        <ele>117.48465</ele>
        <time>2021-09-10T11:10:34</time>
      </trkpt>
      <trkpt lat="44.38442" lon="4.62461">
        <ele>117.48465</ele>
        <time>2021-09-10T11:10:36</time>
      </trkpt>
      <trkpt lat="44.38444" lon="4.62458">
        <ele>117.48465</ele>
        <time>2021-09-10T11:10:37</time>
      </trkpt>
      <trkpt lat="44.38469" lon="4.62421">
        <ele>119.68466</ele>
        <time>2021-09-10T11:10:50</time>
      </trkpt>
      <trkpt lat="44.38484" lon="4.62396">
        <ele>120.28465</ele>
        <time>2021-09-10T11:10:58</time>
      </trkpt>
      <trkpt lat="44.38492" lon="4.6238">
        <ele>120.28465</ele>
        <time>2021-09-10T11:11:03</time>
      </trkpt>
      <trkpt lat="44.3852" lon="4.6232">
        <ele>120.28465</ele>
        <time>2021-09-10T11:11:23</time>
      </trkpt>
      <trkpt lat="44.38522" lon="4.62317">
        <ele>120.28465</ele>
        <time>2021-09-10T11:11:24</time>
      </trkpt>
      <trkpt lat="44.38555" lon="4.62246">
        <ele>131.88466</ele>
        <time>2021-09-10T11:11:43</time>
      </trkpt>
      <trkpt lat="44.3856" lon="4.62236">
        <ele>131.88466</ele>
        <time>2021-09-10T11:11:46</time>
      </trkpt>
      <trkpt lat="44.38565" lon="4.62225">
        <ele>131.88466</ele>
        <time>2021-09-10T11:11:49</time>
      </trkpt>
      <trkpt lat="44.38568" lon="4.62218">
        <ele>131.88466</ele>
        <time>2021-09-10T11:11:51</time>
      </trkpt>
      <trkpt lat="44.38587" lon="4.62189">
        <ele>131.88466</ele>
        <time>2021-09-10T11:12:00</time>
      </trkpt>
      <trkpt lat="44.38592" lon="4.62182">
        <ele>131.88466</ele>
        <time>2021-09-10T11:12:02</time>
      </trkpt>
      <trkpt lat="44.38594" lon="4.62179">
        <ele>131.88466</ele>
        <time>2021-09-10T11:12:03</time>
      </trkpt>
      <trkpt lat="44.38632" lon="4.62126">
        <ele>131.88466</ele>
        <time>2021-09-10T11:12:19</time>
      </trkpt>
      <trkpt lat="44.38641" lon="4.62117">
        <ele>136.98465</ele>
        <time>2021-09-10T11:12:22</time>
      </trkpt>
      <trkpt lat="44.38656" lon="4.62096">
        <ele>136.98465</ele>
        <time>2021-09-10T11:12:28</time>
      </trkpt>
      <trkpt lat="44.38658" lon="4.62092">
        <ele>136.98465</ele>
        <time>2021-09-10T11:12:29</time>
      </trkpt>
      <trkpt lat="44.38666" lon="4.62082">
        <ele>135.48465</ele>
        <time>2021-09-10T11:12:32</time>
      </trkpt>
      <trkpt lat="44.38693" lon="4.62043">
        <ele>139.38466</ele>
        <time>2021-09-10T11:12:44</time>
      </trkpt>
      <trkpt lat="44.38696" lon="4.6204">
        <ele>139.38466</ele>
        <time>2021-09-10T11:12:45</time>
      </trkpt>
      <trkpt lat="44.38704" lon="4.62028">
        <ele>139.38466</ele>
        <time>2021-09-10T11:12:48</time>
      </trkpt>
      <trkpt lat="44.38765" lon="4.61942">
        <ele>141.48465</ele>
        <time>2021-09-10T11:13:12</time>
      </trkpt>
      <trkpt lat="44.388" lon="4.61911">
        <ele>141.48465</ele>
        <time>2021-09-10T11:13:24</time>
      </trkpt>
      <trkpt lat="44.38803" lon="4.61908">
        <ele>141.48465</ele>
        <time>2021-09-10T11:13:25</time>
      </trkpt>
      <trkpt lat="44.38891" lon="4.61832">
        <ele>140.18466</ele>
        <time>2021-09-10T11:13:55</time>
      </trkpt>
      <trkpt lat="44.38906" lon="4.6182">
        <ele>140.18466</ele>
        <time>2021-09-10T11:14:00</time>
      </trkpt>
      <trkpt lat="44.38935" lon="4.61809">
        <ele>140.18466</ele>
        <time>2021-09-10T11:14:09</time>
      </trkpt>
      <trkpt lat="44.38945" lon="4.61807">
        <ele>140.18466</ele>
        <time>2021-09-10T11:14:12</time>
      </trkpt>
      <trkpt lat="44.38963" lon="4.61805">
        <ele>140.18466</ele>
        <time>2021-09-10T11:14:17</time>
      </trkpt>
      <trkpt lat="44.3897" lon="4.61806">
        <ele>140.18466</ele>
        <time>2021-09-10T11:14:19</time>
      </trkpt>
      <trkpt lat="44.38973" lon="4.61806">
        <ele>140.18466</ele>
        <time>2021-09-10T11:14:20</time>
      </trkpt>
      <trkpt lat="44.39007" lon="4.61807">
        <ele>140.18466</ele>
        <time>2021-09-10T11:14:31</time>
      </trkpt>
      <trkpt lat="44.39018" lon="4.6181">
        <ele>140.18466</ele>
        <time>2021-09-10T11:14:34</time>
      </trkpt>
      <trkpt lat="44.39029" lon="4.61811">
        <ele>140.18466</ele>
        <time>2021-09-10T11:14:37</time>
      </trkpt>
      <trkpt lat="44.39039" lon="4.61812">
        <ele>140.18466</ele>
        <time>2021-09-10T11:14:40</time>
      </trkpt>
      <trkpt lat="44.39042" lon="4.61812">
        <ele>140.18466</ele>
        <time>2021-09-10T11:14:41</time>
      </trkpt>
      <trkpt lat="44.39063" lon="4.6181">
        <ele>140.18466</ele>
        <time>2021-09-10T11:14:47</time>
      </trkpt>
      <trkpt lat="44.3908" lon="4.61804">
        <ele>140.18466</ele>
        <time>2021-09-10T11:14:52</time>
      </trkpt>
      <trkpt lat="44.39089" lon="4.61798">
        <ele>140.18466</ele>
        <time>2021-09-10T11:14:55</time>
      </trkpt>
      <trkpt lat="44.39095" lon="4.61794">
        <ele>140.18466</ele>
        <time>2021-09-10T11:14:57</time>
      </trkpt>
      <trkpt lat="44.39184" lon="4.61757">
        <ele>155.85132</ele>
        <time>2021-09-10T11:15:27</time>
      </trkpt>
      <trkpt lat="44.39191" lon="4.61753">
        <ele>155.85132</ele>
        <time>2021-09-10T11:15:30</time>
      </trkpt>
      <trkpt lat="44.39207" lon="4.61747">
        <ele>155.85132</ele>
        <time>2021-09-10T11:15:37</time>
      </trkpt>
      <trkpt lat="44.39214" lon="4.61744">
        <ele>155.85132</ele>
        <time>2021-09-10T11:15:40</time>
      </trkpt>
      <trkpt lat="44.39227" lon="4.61741">
        <ele>155.85132</ele>
        <time>2021-09-10T11:15:45</time>
      </trkpt>
      <trkpt lat="44.39235" lon="4.61739">
        <ele>155.85132</ele>
        <time>2021-09-10T11:15:48</time>
      </trkpt>
      <trkpt lat="44.39312" lon="4.61714">
        <ele>155.85132</ele>
        <time>2021-09-10T11:16:17</time>
      </trkpt>
      <trkpt lat="44.39315" lon="4.61713">
        <ele>155.85132</ele>
        <time>2021-09-10T11:16:18</time>
      </trkpt>
      <trkpt lat="44.3932" lon="4.61712">
        <ele>155.85132</ele>
        <time>2021-09-10T11:16:20</time>
      </trkpt>
      <trkpt lat="44.39354" lon="4.617">
        <ele>166.68466</ele>
        <time>2021-09-10T11:16:31</time>
      </trkpt>
      <trkpt lat="44.39362" lon="4.61695">
        <ele>168.98465</ele>
        <time>2021-09-10T11:16:34</time>
      </trkpt>
      <trkpt lat="44.39368" lon="4.61694">
        <ele>168.98465</ele>
        <time>2021-09-10T11:16:36</time>
      </trkpt>
      <trkpt lat="44.39379" lon="4.61692">
        <ele>168.98465</ele>
        <time>2021-09-10T11:16:40</time>
      </trkpt>
      <trkpt lat="44.39382" lon="4.61691">
        <ele>168.98465</ele>
        <time>2021-09-10T11:16:41</time>
      </trkpt>
      <trkpt lat="44.39387" lon="4.6169">
        <ele>170.08466</ele>
        <time>2021-09-10T11:16:43</time>
      </trkpt>
      <trkpt lat="44.3939" lon="4.61689">
        <ele>170.08466</ele>
        <time>2021-09-10T11:16:44</time>
      </trkpt>
      <trkpt lat="44.39398" lon="4.61686">
        <ele>170.08466</ele>
        <time>2021-09-10T11:16:47</time>
      </trkpt>
      <trkpt lat="44.39403" lon="4.61683">
        <ele>170.08466</ele>
        <time>2021-09-10T11:16:49</time>
      </trkpt>
      <trkpt lat="44.39436" lon="4.61675">
        <ele>171.68466</ele>
        <time>2021-09-10T11:17:00</time>
      </trkpt>
      <trkpt lat="44.39445" lon="4.61674">
        <ele>175.08466</ele>
        <time>2021-09-10T11:17:03</time>
      </trkpt>
      <trkpt lat="44.39475" lon="4.61664">
        <ele>175.08466</ele>
        <time>2021-09-10T11:17:14</time>
      </trkpt>
      <trkpt lat="44.3948" lon="4.61663">
        <ele>175.08466</ele>
        <time>2021-09-10T11:17:16</time>
      </trkpt>
      <trkpt lat="44.39483" lon="4.61662">
        <ele>175.08466</ele>
        <time>2021-09-10T11:17:17</time>
      </trkpt>
      <trkpt lat="44.39499" lon="4.6166">
        <ele>175.08466</ele>
        <time>2021-09-10T11:17:23</time>
      </trkpt>
      <trkpt lat="44.3951" lon="4.61659">
        <ele>175.08466</ele>
        <time>2021-09-10T11:17:27</time>
      </trkpt>
      <trkpt lat="44.39513" lon="4.61659">
        <ele>175.08466</ele>
        <time>2021-09-10T11:17:28</time>
      </trkpt>
      <trkpt lat="44.39516" lon="4.61659">
        <ele>175.08466</ele>
        <time>2021-09-10T11:17:29</time>
      </trkpt>
      <trkpt lat="44.39519" lon="4.61659">
        <ele>175.08466</ele>
        <time>2021-09-10T11:17:30</time>
      </trkpt>
      <trkpt lat="44.39533" lon="4.61661">
        <ele>175.08466</ele>
        <time>2021-09-10T11:17:35</time>
      </trkpt>
      <trkpt lat="44.39544" lon="4.6166">
        <ele>175.08466</ele>
        <time>2021-09-10T11:17:40</time>
      </trkpt>
      <trkpt lat="44.39555" lon="4.61656">
        <ele>181.18466</ele>
        <time>2021-09-10T11:17:45</time>
      </trkpt>
      <trkpt lat="44.39557" lon="4.61655">
        <ele>181.18466</ele>
        <time>2021-09-10T11:17:46</time>
      </trkpt>
      <trkpt lat="44.39562" lon="4.61653">
        <ele>181.18466</ele>
        <time>2021-09-10T11:17:48</time>
      </trkpt>
      <trkpt lat="44.39575" lon="4.61653">
        <ele>181.18466</ele>
        <time>2021-09-10T11:17:52</time>
      </trkpt>
      <trkpt lat="44.39584" lon="4.61654">
        <ele>185.48465</ele>
        <time>2021-09-10T11:17:55</time>
      </trkpt>
      <trkpt lat="44.39605" lon="4.61652">
        <ele>185.48465</ele>
        <time>2021-09-10T11:18:02</time>
      </trkpt>
      <trkpt lat="44.39628" lon="4.6165">
        <ele>185.48465</ele>
        <time>2021-09-10T11:18:10</time>
      </trkpt>
      <trkpt lat="44.39636" lon="4.6165">
        <ele>185.48465</ele>
        <time>2021-09-10T11:18:13</time>
      </trkpt>
      <trkpt lat="44.39641" lon="4.61649">
        <ele>185.48465</ele>
        <time>2021-09-10T11:18:15</time>
      </trkpt>
      <trkpt lat="44.39649" lon="4.61648">
        <ele>185.48465</ele>
        <time>2021-09-10T11:18:18</time>
      </trkpt>
      <trkpt lat="44.3966" lon="4.61647">
        <ele>185.48465</ele>
        <time>2021-09-10T11:18:22</time>
      </trkpt>
      <trkpt lat="44.39663" lon="4.61647">
        <ele>185.48465</ele>
        <time>2021-09-10T11:18:23</time>
      </trkpt>
      <trkpt lat="44.3968" lon="4.61646">
        <ele>185.48465</ele>
        <time>2021-09-10T11:18:29</time>
      </trkpt>
      <trkpt lat="44.39688" lon="4.61643">
        <ele>185.48465</ele>
        <time>2021-09-10T11:18:33</time>
      </trkpt>
      <trkpt lat="44.3969" lon="4.61642">
        <ele>185.48465</ele>
        <time>2021-09-10T11:18:34</time>
      </trkpt>
      <trkpt lat="44.39693" lon="4.6164">
        <ele>185.48465</ele>
        <time>2021-09-10T11:18:35</time>
      </trkpt>
      <trkpt lat="44.39695" lon="4.61639">
        <ele>185.48465</ele>
        <time>2021-09-10T11:18:36</time>
      </trkpt>
      <trkpt lat="44.39698" lon="4.61637">
        <ele>185.48465</ele>
        <time>2021-09-10T11:18:37</time>
      </trkpt>
      <trkpt lat="44.39705" lon="4.61632">
        <ele>185.48465</ele>
        <time>2021-09-10T11:18:40</time>
      </trkpt>
      <trkpt lat="44.39708" lon="4.61631">
        <ele>185.48465</ele>
        <time>2021-09-10T11:18:41</time>
      </trkpt>
      <trkpt lat="44.3971" lon="4.61629">
        <ele>185.48465</ele>
        <time>2021-09-10T11:18:42</time>
      </trkpt>
      <trkpt lat="44.39715" lon="4.61624">
        <ele>185.48465</ele>
        <time>2021-09-10T11:18:44</time>
      </trkpt>
      <trkpt lat="44.39726" lon="4.61614">
        <ele>185.48465</ele>
        <time>2021-09-10T11:18:49</time>
      </trkpt>
      <trkpt lat="44.39741" lon="4.61607">
        <ele>185.48465</ele>
        <time>2021-09-10T11:18:55</time>
      </trkpt>
      <trkpt lat="44.3976" lon="4.61604">
        <ele>185.48465</ele>
        <time>2021-09-10T11:19:02</time>
      </trkpt>
      <trkpt lat="44.39766" lon="4.61605">
        <ele>185.48465</ele>
        <time>2021-09-10T11:19:04</time>
      </trkpt>
      <trkpt lat="44.39785" lon="4.61613">
        <ele>185.48465</ele>
        <time>2021-09-10T11:19:11</time>
      </trkpt>
      <trkpt lat="44.39808" lon="4.61626">
        <ele>185.48465</ele>
        <time>2021-09-10T11:19:19</time>
      </trkpt>
      <trkpt lat="44.39818" lon="4.61631">
        <ele>208.18466</ele>
        <time>2021-09-10T11:19:23</time>
      </trkpt>
      <trkpt lat="44.39836" lon="4.61637">
        <ele>208.18466</ele>
        <time>2021-09-10T11:19:29</time>
      </trkpt>
      <trkpt lat="44.39858" lon="4.61641">
        <ele>208.18466</ele>
        <time>2021-09-10T11:19:37</time>
      </trkpt>
      <trkpt lat="44.3986" lon="4.61641">
        <ele>208.18466</ele>
        <time>2021-09-10T11:19:38</time>
      </trkpt>
      <trkpt lat="44.39884" lon="4.61639">
        <ele>208.18466</ele>
        <time>2021-09-10T11:19:48</time>
      </trkpt>
      <trkpt lat="44.39887" lon="4.61639">
        <ele>208.18466</ele>
        <time>2021-09-10T11:19:49</time>
      </trkpt>
      <trkpt lat="44.39888" lon="4.61639">
        <ele>208.18466</ele>
        <time>2021-09-10T11:19:50</time>
      </trkpt>
      <trkpt lat="44.39914" lon="4.61634">
        <ele>214.58466</ele>
        <time>2021-09-10T11:20:00</time>
      </trkpt>
      <trkpt lat="44.39917" lon="4.61635">
        <ele>214.58466</ele>
        <time>2021-09-10T11:20:01</time>
      </trkpt>
      <trkpt lat="44.3993" lon="4.61634">
        <ele>214.58466</ele>
        <time>2021-09-10T11:20:06</time>
      </trkpt>
      <trkpt lat="44.39935" lon="4.61634">
        <ele>214.58466</ele>
        <time>2021-09-10T11:20:08</time>
      </trkpt>
      <trkpt lat="44.39938" lon="4.61635">
        <ele>214.58466</ele>
        <time>2021-09-10T11:20:09</time>
      </trkpt>
      <trkpt lat="44.39955" lon="4.61633">
        <ele>214.58466</ele>
        <time>2021-09-10T11:20:16</time>
      </trkpt>
      <trkpt lat="44.39962" lon="4.61631">
        <ele>214.58466</ele>
        <time>2021-09-10T11:20:19</time>
      </trkpt>
      <trkpt lat="44.39972" lon="4.6163">
        <ele>214.58466</ele>
        <time>2021-09-10T11:20:23</time>
      </trkpt>
      <trkpt lat="44.39974" lon="4.6163">
        <ele>214.58466</ele>
        <time>2021-09-10T11:20:24</time>
      </trkpt>
      <trkpt lat="44.39981" lon="4.6163">
        <ele>214.58466</ele>
        <time>2021-09-10T11:20:27</time>
      </trkpt>
      <trkpt lat="44.39984" lon="4.6163">
        <ele>214.58466</ele>
        <time>2021-09-10T11:20:28</time>
      </trkpt>
      <trkpt lat="44.39995" lon="4.61628">
        <ele>214.58466</ele>
        <time>2021-09-10T11:20:32</time>
      </trkpt>
      <trkpt lat="44.39997" lon="4.61628">
        <ele>211.68466</ele>
        <time>2021-09-10T11:20:33</time>
      </trkpt>
      <trkpt lat="44.40007" lon="4.61625">
        <ele>211.68466</ele>
        <time>2021-09-10T11:20:37</time>
      </trkpt>
      <trkpt lat="44.40071" lon="4.61604">
        <ele>211.68466</ele>
        <time>2021-09-10T11:21:01</time>
      </trkpt>
      <trkpt lat="44.40096" lon="4.61587">
        <ele>218.98465</ele>
        <time>2021-09-10T11:21:11</time>
      </trkpt>
      <trkpt lat="44.40117" lon="4.61577">
        <ele>217.68466</ele>
        <time>2021-09-10T11:21:20</time>
      </trkpt>
      <trkpt lat="44.40147" lon="4.61557">
        <ele>217.68466</ele>
        <time>2021-09-10T11:21:32</time>
      </trkpt>
      <trkpt lat="44.40149" lon="4.61555">
        <ele>217.68466</ele>
        <time>2021-09-10T11:21:33</time>
      </trkpt>
      <trkpt lat="44.40157" lon="4.61543">
        <ele>217.68466</ele>
        <time>2021-09-10T11:21:37</time>
      </trkpt>
      <trkpt lat="44.40161" lon="4.61535">
        <ele>217.68466</ele>
        <time>2021-09-10T11:21:39</time>
      </trkpt>
      <trkpt lat="44.40162" lon="4.61531">
        <ele>217.68466</ele>
        <time>2021-09-10T11:21:40</time>
      </trkpt>
      <trkpt lat="44.40166" lon="4.61516">
        <ele>217.68466</ele>
        <time>2021-09-10T11:21:44</time>
      </trkpt>
      <trkpt lat="44.40167" lon="4.61513">
        <ele>217.68466</ele>
        <time>2021-09-10T11:21:45</time>
      </trkpt>
      <trkpt lat="44.40166" lon="4.61488">
        <ele>217.68466</ele>
        <time>2021-09-10T11:21:51</time>
      </trkpt>
      <trkpt lat="44.40164" lon="4.61477">
        <ele>231.18466</ele>
        <time>2021-09-10T11:21:54</time>
      </trkpt>
      <trkpt lat="44.4016" lon="4.6147">
        <ele>231.18466</ele>
        <time>2021-09-10T11:21:56</time>
      </trkpt>
      <trkpt lat="44.40153" lon="4.61457">
        <ele>231.18466</ele>
        <time>2021-09-10T11:22:00</time>
      </trkpt>
      <trkpt lat="44.40149" lon="4.61453">
        <ele>231.18466</ele>
        <time>2021-09-10T11:22:02</time>
      </trkpt>
      <trkpt lat="44.40142" lon="4.61446">
        <ele>231.18466</ele>
        <time>2021-09-10T11:22:05</time>
      </trkpt>
      <trkpt lat="44.40108" lon="4.61415">
        <ele>231.18466</ele>
        <time>2021-09-10T11:22:19</time>
      </trkpt>
      <trkpt lat="44.40097" lon="4.61408">
        <ele>236.48465</ele>
        <time>2021-09-10T11:22:23</time>
      </trkpt>
      <trkpt lat="44.40067" lon="4.61377">
        <ele>237.78467</ele>
        <time>2021-09-10T11:22:35</time>
      </trkpt>
      <trkpt lat="44.40053" lon="4.61356">
        <ele>237.78467</ele>
        <time>2021-09-10T11:22:42</time>
      </trkpt>
      <trkpt lat="44.40051" lon="4.61353">
        <ele>239.98465</ele>
        <time>2021-09-10T11:22:43</time>
      </trkpt>
      <trkpt lat="44.40021" lon="4.61316">
        <ele>239.98465</ele>
        <time>2021-09-10T11:22:58</time>
      </trkpt>
      <trkpt lat="44.39992" lon="4.61291">
        <ele>239.98465</ele>
        <time>2021-09-10T11:23:10</time>
      </trkpt>
      <trkpt lat="44.39989" lon="4.61289">
        <ele>239.98465</ele>
        <time>2021-09-10T11:23:11</time>
      </trkpt>
      <trkpt lat="44.39987" lon="4.61287">
        <ele>239.98465</ele>
        <time>2021-09-10T11:23:12</time>
      </trkpt>
      <trkpt lat="44.39985" lon="4.61285">
        <ele>239.98465</ele>
        <time>2021-09-10T11:23:13</time>
      </trkpt>
      <trkpt lat="44.39916" lon="4.61221">
        <ele>239.98465</ele>
        <time>2021-09-10T11:23:43</time>
      </trkpt>
      <trkpt lat="44.399" lon="4.61208">
        <ele>239.98465</ele>
        <time>2021-09-10T11:23:50</time>
      </trkpt>
      <trkpt lat="44.39898" lon="4.61207">
        <ele>239.98465</ele>
        <time>2021-09-10T11:23:51</time>
      </trkpt>
      <trkpt lat="44.39891" lon="4.612">
        <ele>249.78467</ele>
        <time>2021-09-10T11:23:54</time>
      </trkpt>
      <trkpt lat="44.3988" lon="4.61189">
        <ele>249.78467</ele>
        <time>2021-09-10T11:23:59</time>
      </trkpt>
      <trkpt lat="44.39876" lon="4.61186">
        <ele>249.78467</ele>
        <time>2021-09-10T11:24:01</time>
      </trkpt>
      <trkpt lat="44.39862" lon="4.61168">
        <ele>249.78467</ele>
        <time>2021-09-10T11:24:07</time>
      </trkpt>
      <trkpt lat="44.39832" lon="4.61119">
        <ele>262.28467</ele>
        <time>2021-09-10T11:24:24</time>
      </trkpt>
      <trkpt lat="44.39821" lon="4.61108">
        <ele>262.28467</ele>
        <time>2021-09-10T11:24:29</time>
      </trkpt>
      <trkpt lat="44.39797" lon="4.6109">
        <ele>261.58466</ele>
        <time>2021-09-10T11:24:38</time>
      </trkpt>
      <trkpt lat="44.39767" lon="4.6107">
        <ele>261.58466</ele>
        <time>2021-09-10T11:24:50</time>
      </trkpt>
      <trkpt lat="44.39764" lon="4.61068">
        <ele>261.58466</ele>
        <time>2021-09-10T11:24:51</time>
      </trkpt>
      <trkpt lat="44.39743" lon="4.61052">
        <ele>261.58466</ele>
        <time>2021-09-10T11:25:00</time>
      </trkpt>
      <trkpt lat="44.39719" lon="4.61026">
        <ele>261.58466</ele>
        <time>2021-09-10T11:25:11</time>
      </trkpt>
      <trkpt lat="44.39718" lon="4.61024">
        <ele>261.58466</ele>
        <time>2021-09-10T11:25:12</time>
      </trkpt>
      <trkpt lat="44.39716" lon="4.61022">
        <ele>261.58466</ele>
        <time>2021-09-10T11:25:13</time>
      </trkpt>
      <trkpt lat="44.39713" lon="4.61016">
        <ele>261.58466</ele>
        <time>2021-09-10T11:25:15</time>
      </trkpt>
      <trkpt lat="44.39706" lon="4.61001">
        <ele>261.58466</ele>
        <time>2021-09-10T11:25:20</time>
      </trkpt>
      <trkpt lat="44.39695" lon="4.60966">
        <ele>261.58466</ele>
        <time>2021-09-10T11:25:30</time>
      </trkpt>
      <trkpt lat="44.39675" lon="4.60922">
        <ele>261.58466</ele>
        <time>2021-09-10T11:25:43</time>
      </trkpt>
      <trkpt lat="44.39652" lon="4.60859">
        <ele>261.58466</ele>
        <time>2021-09-10T11:26:01</time>
      </trkpt>
      <trkpt lat="44.39651" lon="4.60851">
        <ele>282.18466</ele>
        <time>2021-09-10T11:26:03</time>
      </trkpt>
      <trkpt lat="44.39651" lon="4.60842">
        <ele>282.18466</ele>
        <time>2021-09-10T11:26:05</time>
      </trkpt>
      <trkpt lat="44.39651" lon="4.60838">
        <ele>282.18466</ele>
        <time>2021-09-10T11:26:06</time>
      </trkpt>
      <trkpt lat="44.39657" lon="4.60816">
        <ele>282.18466</ele>
        <time>2021-09-10T11:26:12</time>
      </trkpt>
      <trkpt lat="44.39661" lon="4.6081">
        <ele>281.68466</ele>
        <time>2021-09-10T11:26:14</time>
      </trkpt>
      <trkpt lat="44.39665" lon="4.60804">
        <ele>281.68466</ele>
        <time>2021-09-10T11:26:16</time>
      </trkpt>
      <trkpt lat="44.39676" lon="4.60794">
        <ele>281.68466</ele>
        <time>2021-09-10T11:26:20</time>
      </trkpt>
      <trkpt lat="44.39681" lon="4.60791">
        <ele>281.68466</ele>
        <time>2021-09-10T11:26:22</time>
      </trkpt>
      <trkpt lat="44.39684" lon="4.60791">
        <ele>282.718</ele>
        <time>2021-09-10T11:26:23</time>
      </trkpt>
      <trkpt lat="44.39709" lon="4.6079">
        <ele>282.718</ele>
        <time>2021-09-10T11:26:32</time>
      </trkpt>
      <trkpt lat="44.39711" lon="4.60791">
        <ele>283.38464</ele>
        <time>2021-09-10T11:26:33</time>
      </trkpt>
      <trkpt lat="44.39714" lon="4.60791">
        <ele>283.38464</ele>
        <time>2021-09-10T11:26:34</time>
      </trkpt>
      <trkpt lat="44.39716" lon="4.60791">
        <ele>283.38464</ele>
        <time>2021-09-10T11:26:35</time>
      </trkpt>
      <trkpt lat="44.39719" lon="4.60792">
        <ele>283.38464</ele>
        <time>2021-09-10T11:26:36</time>
      </trkpt>
      <trkpt lat="44.39721" lon="4.60792">
        <ele>283.38464</ele>
        <time>2021-09-10T11:26:37</time>
      </trkpt>
      <trkpt lat="44.39723" lon="4.60792">
        <ele>283.38464</ele>
        <time>2021-09-10T11:26:38</time>
      </trkpt>
      <trkpt lat="44.3973" lon="4.60791">
        <ele>283.38464</ele>
        <time>2021-09-10T11:26:41</time>
      </trkpt>
      <trkpt lat="44.39735" lon="4.60791">
        <ele>283.38464</ele>
        <time>2021-09-10T11:26:43</time>
      </trkpt>
      <trkpt lat="44.39742" lon="4.6079">
        <ele>283.38464</ele>
        <time>2021-09-10T11:26:46</time>
      </trkpt>
      <trkpt lat="44.39744" lon="4.60789">
        <ele>283.38464</ele>
        <time>2021-09-10T11:26:47</time>
      </trkpt>
      <trkpt lat="44.39752" lon="4.60789">
        <ele>283.38464</ele>
        <time>2021-09-10T11:26:50</time>
      </trkpt>
      <trkpt lat="44.39754" lon="4.60789">
        <ele>283.38464</ele>
        <time>2021-09-10T11:26:51</time>
      </trkpt>
      <trkpt lat="44.39761" lon="4.60789">
        <ele>283.38464</ele>
        <time>2021-09-10T11:26:54</time>
      </trkpt>
      <trkpt lat="44.3977" lon="4.60789">
        <ele>283.38464</ele>
        <time>2021-09-10T11:26:57</time>
      </trkpt>
      <trkpt lat="44.39773" lon="4.60789">
        <ele>283.38464</ele>
        <time>2021-09-10T11:26:58</time>
      </trkpt>
      <trkpt lat="44.39796" lon="4.60788">
        <ele>283.38464</ele>
        <time>2021-09-10T11:27:07</time>
      </trkpt>
      <trkpt lat="44.39799" lon="4.60788">
        <ele>283.38464</ele>
        <time>2021-09-10T11:27:08</time>
      </trkpt>
      <trkpt lat="44.39809" lon="4.60787">
        <ele>292.78467</ele>
        <time>2021-09-10T11:27:13</time>
      </trkpt>
      <trkpt lat="44.39821" lon="4.60788">
        <ele>292.78467</ele>
        <time>2021-09-10T11:27:18</time>
      </trkpt>
      <trkpt lat="44.39827" lon="4.60788">
        <ele>292.78467</ele>
        <time>2021-09-10T11:27:21</time>
      </trkpt>
      <trkpt lat="44.39829" lon="4.60788">
        <ele>292.78467</ele>
        <time>2021-09-10T11:27:22</time>
      </trkpt>
      <trkpt lat="44.39832" lon="4.60788">
        <ele>291.58466</ele>
        <time>2021-09-10T11:27:23</time>
      </trkpt>
      <trkpt lat="44.39842" lon="4.60788">
        <ele>291.58466</ele>
        <time>2021-09-10T11:27:27</time>
      </trkpt>
      <trkpt lat="44.39847" lon="4.60787">
        <ele>291.58466</ele>
        <time>2021-09-10T11:27:29</time>
      </trkpt>
      <trkpt lat="44.39849" lon="4.60787">
        <ele>291.58466</ele>
        <time>2021-09-10T11:27:30</time>
      </trkpt>
      <trkpt lat="44.39854" lon="4.60787">
        <ele>291.58466</ele>
        <time>2021-09-10T11:27:32</time>
      </trkpt>
      <trkpt lat="44.39856" lon="4.60786">
        <ele>297.98465</ele>
        <time>2021-09-10T11:27:33</time>
      </trkpt>
      <trkpt lat="44.39876" lon="4.60784">
        <ele>297.98465</ele>
        <time>2021-09-10T11:27:41</time>
      </trkpt>
      <trkpt lat="44.3988" lon="4.60783">
        <ele>297.18466</ele>
        <time>2021-09-10T11:27:43</time>
      </trkpt>
      <trkpt lat="44.39884" lon="4.60782">
        <ele>297.18466</ele>
        <time>2021-09-10T11:27:45</time>
      </trkpt>
      <trkpt lat="44.39891" lon="4.60782">
        <ele>297.18466</ele>
        <time>2021-09-10T11:27:48</time>
      </trkpt>
      <trkpt lat="44.399" lon="4.60782">
        <ele>297.18466</ele>
        <time>2021-09-10T11:27:52</time>
      </trkpt>
      <trkpt lat="44.39903" lon="4.60782">
        <ele>299.98465</ele>
        <time>2021-09-10T11:27:53</time>
      </trkpt>
      <trkpt lat="44.39906" lon="4.60783">
        <ele>299.98465</ele>
        <time>2021-09-10T11:27:55</time>
      </trkpt>
      <trkpt lat="44.39909" lon="4.60783">
        <ele>299.98465</ele>
        <time>2021-09-10T11:27:56</time>
      </trkpt>
      <trkpt lat="44.39916" lon="4.60782">
        <ele>299.98465</ele>
        <time>2021-09-10T11:27:59</time>
      </trkpt>
      <trkpt lat="44.39919" lon="4.60782">
        <ele>299.98465</ele>
        <time>2021-09-10T11:28:00</time>
      </trkpt>
      <trkpt lat="44.39921" lon="4.60782">
        <ele>299.98465</ele>
        <time>2021-09-10T11:28:01</time>
      </trkpt>
      <trkpt lat="44.39923" lon="4.60782">
        <ele>299.98465</ele>
        <time>2021-09-10T11:28:02</time>
      </trkpt>
      <trkpt lat="44.39925" lon="4.60782">
        <ele>299.98465</ele>
        <time>2021-09-10T11:28:03</time>
      </trkpt>
      <trkpt lat="44.39928" lon="4.60782">
        <ele>299.98465</ele>
        <time>2021-09-10T11:28:04</time>
      </trkpt>
      <trkpt lat="44.3993" lon="4.60782">
        <ele>299.98465</ele>
        <time>2021-09-10T11:28:05</time>
      </trkpt>
      <trkpt lat="44.39935" lon="4.60783">
        <ele>299.98465</ele>
        <time>2021-09-10T11:28:07</time>
      </trkpt>
      <trkpt lat="44.39944" lon="4.60785">
        <ele>299.98465</ele>
        <time>2021-09-10T11:28:11</time>
      </trkpt>
      <trkpt lat="44.39951" lon="4.60787">
        <ele>299.98465</ele>
        <time>2021-09-10T11:28:14</time>
      </trkpt>
      <trkpt lat="44.39958" lon="4.6079">
        <ele>299.98465</ele>
        <time>2021-09-10T11:28:17</time>
      </trkpt>
      <trkpt lat="44.39987" lon="4.60795">
        <ele>299.98465</ele>
        <time>2021-09-10T11:28:31</time>
      </trkpt>
      <trkpt lat="44.39991" lon="4.60795">
        <ele>306.88464</ele>
        <time>2021-09-10T11:28:33</time>
      </trkpt>
      <trkpt lat="44.39993" lon="4.60794">
        <ele>306.88464</ele>
        <time>2021-09-10T11:28:34</time>
      </trkpt>
      <trkpt lat="44.39999" lon="4.60793">
        <ele>306.88464</ele>
        <time>2021-09-10T11:28:37</time>
      </trkpt>
      <trkpt lat="44.40001" lon="4.60792">
        <ele>306.88464</ele>
        <time>2021-09-10T11:28:38</time>
      </trkpt>
      <trkpt lat="44.40003" lon="4.60791">
        <ele>306.88464</ele>
        <time>2021-09-10T11:28:39</time>
      </trkpt>
      <trkpt lat="44.40005" lon="4.60789">
        <ele>306.88464</ele>
        <time>2021-09-10T11:28:40</time>
      </trkpt>
      <trkpt lat="44.4001" lon="4.60783">
        <ele>306.88464</ele>
        <time>2021-09-10T11:28:43</time>
      </trkpt>
      <trkpt lat="44.40011" lon="4.60781">
        <ele>306.88464</ele>
        <time>2021-09-10T11:28:44</time>
      </trkpt>
      <trkpt lat="44.40013" lon="4.60778">
        <ele>306.88464</ele>
        <time>2021-09-10T11:28:45</time>
      </trkpt>
      <trkpt lat="44.40015" lon="4.60774">
        <ele>306.88464</ele>
        <time>2021-09-10T11:28:47</time>
      </trkpt>
      <trkpt lat="44.40016" lon="4.60765">
        <ele>306.88464</ele>
        <time>2021-09-10T11:28:51</time>
      </trkpt>
      <trkpt lat="44.40016" lon="4.60757">
        <ele>306.88464</ele>
        <time>2021-09-10T11:28:54</time>
      </trkpt>
      <trkpt lat="44.40015" lon="4.60754">
        <ele>306.88464</ele>
        <time>2021-09-10T11:28:55</time>
      </trkpt>
      <trkpt lat="44.4001" lon="4.60728">
        <ele>306.88464</ele>
        <time>2021-09-10T11:29:04</time>
      </trkpt>
      <trkpt lat="44.40009" lon="4.60725">
        <ele>306.88464</ele>
        <time>2021-09-10T11:29:05</time>
      </trkpt>
      <trkpt lat="44.40008" lon="4.60719">
        <ele>306.88464</ele>
        <time>2021-09-10T11:29:07</time>
      </trkpt>
      <trkpt lat="44.40008" lon="4.60715">
        <ele>306.88464</ele>
        <time>2021-09-10T11:29:08</time>
      </trkpt>
      <trkpt lat="44.40008" lon="4.60708">
        <ele>306.88464</ele>
        <time>2021-09-10T11:29:10</time>
      </trkpt>
      <trkpt lat="44.4001" lon="4.60702">
        <ele>306.88464</ele>
        <time>2021-09-10T11:29:12</time>
      </trkpt>
      <trkpt lat="44.40012" lon="4.60694">
        <ele>306.88464</ele>
        <time>2021-09-10T11:29:15</time>
      </trkpt>
      <trkpt lat="44.40015" lon="4.60688">
        <ele>306.88464</ele>
        <time>2021-09-10T11:29:17</time>
      </trkpt>
      <trkpt lat="44.40017" lon="4.60685">
        <ele>306.88464</ele>
        <time>2021-09-10T11:29:18</time>
      </trkpt>
      <trkpt lat="44.40021" lon="4.6068">
        <ele>306.88464</ele>
        <time>2021-09-10T11:29:20</time>
      </trkpt>
      <trkpt lat="44.40035" lon="4.60669">
        <ele>306.88464</ele>
        <time>2021-09-10T11:29:27</time>
      </trkpt>
      <trkpt lat="44.4004" lon="4.60668">
        <ele>306.88464</ele>
        <time>2021-09-10T11:29:29</time>
      </trkpt>
      <trkpt lat="44.40051" lon="4.60667">
        <ele>306.88464</ele>
        <time>2021-09-10T11:29:34</time>
      </trkpt>
      <trkpt lat="44.40054" lon="4.60667">
        <ele>306.88464</ele>
        <time>2021-09-10T11:29:35</time>
      </trkpt>
      <trkpt lat="44.40066" lon="4.60667">
        <ele>306.88464</ele>
        <time>2021-09-10T11:29:40</time>
      </trkpt>
      <trkpt lat="44.40069" lon="4.60667">
        <ele>306.88464</ele>
        <time>2021-09-10T11:29:41</time>
      </trkpt>
      <trkpt lat="44.40071" lon="4.60667">
        <ele>306.88464</ele>
        <time>2021-09-10T11:29:42</time>
      </trkpt>
      <trkpt lat="44.40076" lon="4.60665">
        <ele>306.88464</ele>
        <time>2021-09-10T11:29:44</time>
      </trkpt>
      <trkpt lat="44.40086" lon="4.60661">
        <ele>306.88464</ele>
        <time>2021-09-10T11:29:49</time>
      </trkpt>
      <trkpt lat="44.40094" lon="4.6066">
        <ele>306.88464</ele>
        <time>2021-09-10T11:29:53</time>
      </trkpt>
      <trkpt lat="44.40105" lon="4.60656">
        <ele>306.88464</ele>
        <time>2021-09-10T11:29:59</time>
      </trkpt>
      <trkpt lat="44.40118" lon="4.60654">
        <ele>306.88464</ele>
        <time>2021-09-10T11:30:05</time>
      </trkpt>
      <trkpt lat="44.40122" lon="4.60653">
        <ele>306.88464</ele>
        <time>2021-09-10T11:30:07</time>
      </trkpt>
      <trkpt lat="44.40134" lon="4.60652">
        <ele>306.88464</ele>
        <time>2021-09-10T11:30:12</time>
      </trkpt>
      <trkpt lat="44.40143" lon="4.60648">
        <ele>306.88464</ele>
        <time>2021-09-10T11:30:16</time>
      </trkpt>
      <trkpt lat="44.40169" lon="4.60642">
        <ele>306.88464</ele>
        <time>2021-09-10T11:30:26</time>
      </trkpt>
      <trkpt lat="44.40191" lon="4.6063">
        <ele>306.88464</ele>
        <time>2021-09-10T11:30:35</time>
      </trkpt>
      <trkpt lat="44.40193" lon="4.60629">
        <ele>306.88464</ele>
        <time>2021-09-10T11:30:36</time>
      </trkpt>
      <trkpt lat="44.40206" lon="4.60625">
        <ele>306.88464</ele>
        <time>2021-09-10T11:30:41</time>
      </trkpt>
      <trkpt lat="44.40211" lon="4.60623">
        <ele>306.88464</ele>
        <time>2021-09-10T11:30:43</time>
      </trkpt>
      <trkpt lat="44.40213" lon="4.60622">
        <ele>306.88464</ele>
        <time>2021-09-10T11:30:44</time>
      </trkpt>
      <trkpt lat="44.40224" lon="4.60616">
        <ele>306.88464</ele>
        <time>2021-09-10T11:30:49</time>
      </trkpt>
      <trkpt lat="44.40247" lon="4.6061">
        <ele>330.18466</ele>
        <time>2021-09-10T11:30:58</time>
      </trkpt>
      <trkpt lat="44.4026" lon="4.60605">
        <ele>330.18466</ele>
        <time>2021-09-10T11:31:03</time>
      </trkpt>
      <trkpt lat="44.40271" lon="4.606">
        <ele>330.18466</ele>
        <time>2021-09-10T11:31:08</time>
      </trkpt>
      <trkpt lat="44.40276" lon="4.60597">
        <ele>330.18466</ele>
        <time>2021-09-10T11:31:10</time>
      </trkpt>
      <trkpt lat="44.40285" lon="4.6059">
        <ele>333.18466</ele>
        <time>2021-09-10T11:31:14</time>
      </trkpt>
      <trkpt lat="44.40298" lon="4.60571">
        <ele>333.18466</ele>
        <time>2021-09-10T11:31:21</time>
      </trkpt>
      <trkpt lat="44.40301" lon="4.60565">
        <ele>333.18466</ele>
        <time>2021-09-10T11:31:23</time>
      </trkpt>
      <trkpt lat="44.40304" lon="4.60559">
        <ele>333.18466</ele>
        <time>2021-09-10T11:31:25</time>
      </trkpt>
      <trkpt lat="44.40306" lon="4.60546">
        <ele>333.18466</ele>
        <time>2021-09-10T11:31:29</time>
      </trkpt>
      <trkpt lat="44.40307" lon="4.60536">
        <ele>333.18466</ele>
        <time>2021-09-10T11:31:32</time>
      </trkpt>
      <trkpt lat="44.40305" lon="4.60521">
        <ele>340.18466</ele>
        <time>2021-09-10T11:31:36</time>
      </trkpt>
      <trkpt lat="44.40302" lon="4.6051">
        <ele>340.18466</ele>
        <time>2021-09-10T11:31:39</time>
      </trkpt>
      <trkpt lat="44.40295" lon="4.60493">
        <ele>340.18466</ele>
        <time>2021-09-10T11:31:44</time>
      </trkpt>
      <trkpt lat="44.40293" lon="4.60488">
        <ele>340.18466</ele>
        <time>2021-09-10T11:31:46</time>
      </trkpt>
      <trkpt lat="44.40291" lon="4.60479">
        <ele>340.18466</ele>
        <time>2021-09-10T11:31:49</time>
      </trkpt>
      <trkpt lat="44.40289" lon="4.60476">
        <ele>340.18466</ele>
        <time>2021-09-10T11:31:50</time>
      </trkpt>
      <trkpt lat="44.40263" lon="4.60403">
        <ele>340.18466</ele>
        <time>2021-09-10T11:32:11</time>
      </trkpt>
      <trkpt lat="44.4025" lon="4.60373">
        <ele>340.18466</ele>
        <time>2021-09-10T11:32:20</time>
      </trkpt>
      <trkpt lat="44.40248" lon="4.60366">
        <ele>340.18466</ele>
        <time>2021-09-10T11:32:22</time>
      </trkpt>
      <trkpt lat="44.4024" lon="4.60348">
        <ele>342.48465</ele>
        <time>2021-09-10T11:32:28</time>
      </trkpt>
      <trkpt lat="44.40229" lon="4.60315">
        <ele>342.48465</ele>
        <time>2021-09-10T11:32:38</time>
      </trkpt>
      <trkpt lat="44.40225" lon="4.60305">
        <ele>342.48465</ele>
        <time>2021-09-10T11:32:41</time>
      </trkpt>
      <trkpt lat="44.40208" lon="4.60244">
        <ele>342.48465</ele>
        <time>2021-09-10T11:32:57</time>
      </trkpt>
      <trkpt lat="44.4019" lon="4.60196">
        <ele>342.48465</ele>
        <time>2021-09-10T11:33:10</time>
      </trkpt>
      <trkpt lat="44.40169" lon="4.60124">
        <ele>350.58466</ele>
        <time>2021-09-10T11:33:30</time>
      </trkpt>
      <trkpt lat="44.40159" lon="4.601">
        <ele>350.58466</ele>
        <time>2021-09-10T11:33:37</time>
      </trkpt>
      <trkpt lat="44.40119" lon="4.59972">
        <ele>362.68466</ele>
        <time>2021-09-10T11:34:04</time>
      </trkpt>
      <trkpt lat="44.40115" lon="4.59961">
        <ele>362.68466</ele>
        <time>2021-09-10T11:34:06</time>
      </trkpt>
      <trkpt lat="44.40109" lon="4.59942">
        <ele>362.68466</ele>
        <time>2021-09-10T11:34:09</time>
      </trkpt>
      <trkpt lat="44.40107" lon="4.59937">
        <ele>362.68466</ele>
        <time>2021-09-10T11:34:10</time>
      </trkpt>
      <trkpt lat="44.40105" lon="4.59931">
        <ele>362.68466</ele>
        <time>2021-09-10T11:34:11</time>
      </trkpt>
      <trkpt lat="44.401" lon="4.59918">
        <ele>358.718</ele>
        <time>2021-09-10T11:34:13</time>
      </trkpt>
      <trkpt lat="44.40099" lon="4.59913">
        <ele>358.718</ele>
        <time>2021-09-10T11:34:14</time>
      </trkpt>
      <trkpt lat="44.40082" lon="4.59864">
        <ele>358.718</ele>
        <time>2021-09-10T11:34:21</time>
      </trkpt>
      <trkpt lat="44.40071" lon="4.59835">
        <ele>356.98465</ele>
        <time>2021-09-10T11:34:25</time>
      </trkpt>
      <trkpt lat="44.40063" lon="4.59813">
        <ele>356.98465</ele>
        <time>2021-09-10T11:34:28</time>
      </trkpt>
      <trkpt lat="44.40046" lon="4.59775">
        <ele>355.78467</ele>
        <time>2021-09-10T11:34:33</time>
      </trkpt>
      <trkpt lat="44.39979" lon="4.5966">
        <ele>348.58466</ele>
        <time>2021-09-10T11:34:48</time>
      </trkpt>
      <trkpt lat="44.39902" lon="4.59565">
        <ele>345.68466</ele>
        <time>2021-09-10T11:35:03</time>
      </trkpt>
      <trkpt lat="44.399" lon="4.5956">
        <ele>345.68466</ele>
        <time>2021-09-10T11:35:05</time>
      </trkpt>
      <trkpt lat="44.39899" lon="4.59557">
        <ele>345.68466</ele>
        <time>2021-09-10T11:35:08</time>
      </trkpt>
      <trkpt lat="44.399" lon="4.59556">
        <ele>345.68466</ele>
        <time>2021-09-10T11:35:09</time>
      </trkpt>
      <trkpt lat="44.39899" lon="4.59556">
        <ele>345.68466</ele>
        <time>2021-09-10T11:35:10</time>
      </trkpt>
      <trkpt lat="44.39901" lon="4.59554">
        <ele>342.65134</ele>
        <time>2021-09-10T11:35:13</time>
      </trkpt>
      <trkpt lat="44.39903" lon="4.59553">
        <ele>342.65134</ele>
        <time>2021-09-10T11:35:17</time>
      </trkpt>
      <trkpt lat="44.39904" lon="4.59554">
        <ele>342.65134</ele>
        <time>2021-09-10T11:35:21</time>
      </trkpt>
      <trkpt lat="44.39907" lon="4.59555">
        <ele>342.48465</ele>
        <time>2021-09-10T11:35:25</time>
      </trkpt>
      <trkpt lat="44.39909" lon="4.59554">
        <ele>342.48465</ele>
        <time>2021-09-10T11:35:28</time>
      </trkpt>
      <trkpt lat="44.3991" lon="4.59554">
        <ele>341.38464</ele>
        <time>2021-09-10T11:35:59</time>
      </trkpt>
      <trkpt lat="44.3991" lon="4.59554">
        <ele>341.38464</ele>
        <time>2021-09-10T11:36:00</time>
      </trkpt>
      <trkpt lat="44.3991" lon="4.59554">
        <ele>341.38464</ele>
        <time>2021-09-10T11:36:01</time>
      </trkpt>
      <trkpt lat="44.39911" lon="4.59551">
        <ele>341.38464</ele>
        <time>2021-09-10T11:36:03</time>
      </trkpt>
      <trkpt lat="44.39911" lon="4.59551">
        <ele>341.38464</ele>
        <time>2021-09-10T11:36:05</time>
      </trkpt>
      <trkpt lat="44.39911" lon="4.59551">
        <ele>341.38464</ele>
        <time>2021-09-10T11:36:06</time>
      </trkpt>
      <trkpt lat="44.3991" lon="4.59551">
        <ele>341.38464</ele>
        <time>2021-09-10T11:36:09</time>
      </trkpt>
      <trkpt lat="44.39909" lon="4.59551">
        <ele>341.38464</ele>
        <time>2021-09-10T11:36:10</time>
      </trkpt>
      <trkpt lat="44.39907" lon="4.59552">
        <ele>348.48465</ele>
        <time>2021-09-10T11:36:29</time>
      </trkpt>
      <trkpt lat="44.39907" lon="4.59552">
        <ele>348.48465</ele>
        <time>2021-09-10T11:36:30</time>
      </trkpt>
      <trkpt lat="44.39906" lon="4.59554">
        <ele>348.58466</ele>
        <time>2021-09-10T11:36:39</time>
      </trkpt>
      <trkpt lat="44.39905" lon="4.59555">
        <ele>348.58466</ele>
        <time>2021-09-10T11:36:40</time>
      </trkpt>
      <trkpt lat="44.39902" lon="4.59556">
        <ele>348.58466</ele>
        <time>2021-09-10T11:36:43</time>
      </trkpt>
      <trkpt lat="44.399" lon="4.59556">
        <ele>350.78467</ele>
        <time>2021-09-10T11:36:48</time>
      </trkpt>
      <trkpt lat="44.399" lon="4.59555">
        <ele>351.58466</ele>
        <time>2021-09-10T11:37:03</time>
      </trkpt>
      <trkpt lat="44.39898" lon="4.59554">
        <ele>347.18466</ele>
        <time>2021-09-10T11:37:06</time>
      </trkpt>
      <trkpt lat="44.39897" lon="4.59554">
        <ele>347.18466</ele>
        <time>2021-09-10T11:37:07</time>
      </trkpt>
      <trkpt lat="44.39895" lon="4.59553">
        <ele>347.18466</ele>
        <time>2021-09-10T11:37:09</time>
      </trkpt>
      <trkpt lat="44.39891" lon="4.59551">
        <ele>347.18466</ele>
        <time>2021-09-10T11:37:11</time>
      </trkpt>
      <trkpt lat="44.3982" lon="4.59456">
        <ele>347.48465</ele>
        <time>2021-09-10T11:37:41</time>
      </trkpt>
      <trkpt lat="44.39705" lon="4.59308">
        <ele>349.88464</ele>
        <time>2021-09-10T11:38:11</time>
      </trkpt>
      <trkpt lat="44.39578" lon="4.59157">
        <ele>343.15134</ele>
        <time>2021-09-10T11:38:32</time>
      </trkpt>
      <trkpt lat="44.39571" lon="4.59139">
        <ele>337.58466</ele>
        <time>2021-09-10T11:38:34</time>
      </trkpt>
      <trkpt lat="44.39565" lon="4.5912">
        <ele>337.58466</ele>
        <time>2021-09-10T11:38:36</time>
      </trkpt>
      <trkpt lat="44.39564" lon="4.59099">
        <ele>337.58466</ele>
        <time>2021-09-10T11:38:38</time>
      </trkpt>
      <trkpt lat="44.39563" lon="4.59054">
        <ele>337.58466</ele>
        <time>2021-09-10T11:38:42</time>
      </trkpt>
      <trkpt lat="44.39568" lon="4.58968">
        <ele>334.38464</ele>
        <time>2021-09-10T11:38:51</time>
      </trkpt>
      <trkpt lat="44.39568" lon="4.58959">
        <ele>334.38464</ele>
        <time>2021-09-10T11:38:52</time>
      </trkpt>
      <trkpt lat="44.39571" lon="4.58596">
        <ele>336.38464</ele>
        <time>2021-09-10T11:39:22</time>
      </trkpt>
      <trkpt lat="44.39567" lon="4.58471">
        <ele>325.38464</ele>
        <time>2021-09-10T11:39:35</time>
      </trkpt>
      <trkpt lat="44.39568" lon="4.58464">
        <ele>325.38464</ele>
        <time>2021-09-10T11:39:36</time>
      </trkpt>
      <trkpt lat="44.39566" lon="4.5845">
        <ele>325.38464</ele>
        <time>2021-09-10T11:39:38</time>
      </trkpt>
      <trkpt lat="44.39566" lon="4.58443">
        <ele>325.38464</ele>
        <time>2021-09-10T11:39:39</time>
      </trkpt>
      <trkpt lat="44.39564" lon="4.58361">
        <ele>327.28467</ele>
        <time>2021-09-10T11:39:51</time>
      </trkpt>
      <trkpt lat="44.39563" lon="4.58353">
        <ele>327.28467</ele>
        <time>2021-09-10T11:39:52</time>
      </trkpt>
      <trkpt lat="44.3956" lon="4.58263">
        <ele>332.48465</ele>
        <time>2021-09-10T11:40:02</time>
      </trkpt>
      <trkpt lat="44.39558" lon="4.58253">
        <ele>332.48465</ele>
        <time>2021-09-10T11:40:03</time>
      </trkpt>
      <trkpt lat="44.39545" lon="4.57906">
        <ele>323.78467</ele>
        <time>2021-09-10T11:40:33</time>
      </trkpt>
      <trkpt lat="44.3954" lon="4.57807">
        <ele>319.18466</ele>
        <time>2021-09-10T11:40:47</time>
      </trkpt>
      <trkpt lat="44.3954" lon="4.57798">
        <ele>319.18466</ele>
        <time>2021-09-10T11:40:48</time>
      </trkpt>
      <trkpt lat="44.39538" lon="4.57698">
        <ele>317.58466</ele>
        <time>2021-09-10T11:40:59</time>
      </trkpt>
      <trkpt lat="44.39538" lon="4.57654">
        <ele>317.98465</ele>
        <time>2021-09-10T11:41:04</time>
      </trkpt>
      <trkpt lat="44.39537" lon="4.57627">
        <ele>317.98465</ele>
        <time>2021-09-10T11:41:07</time>
      </trkpt>
      <trkpt lat="44.39537" lon="4.57585">
        <ele>317.98465</ele>
        <time>2021-09-10T11:41:12</time>
      </trkpt>
      <trkpt lat="44.39536" lon="4.57563">
        <ele>316.78467</ele>
        <time>2021-09-10T11:41:15</time>
      </trkpt>
      <trkpt lat="44.39527" lon="4.57349">
        <ele>321.98465</ele>
        <time>2021-09-10T11:41:45</time>
      </trkpt>
      <trkpt lat="44.39527" lon="4.57334">
        <ele>321.98465</ele>
        <time>2021-09-10T11:41:47</time>
      </trkpt>
      <trkpt lat="44.39525" lon="4.57318">
        <ele>321.98465</ele>
        <time>2021-09-10T11:41:49</time>
      </trkpt>
      <trkpt lat="44.39524" lon="4.57232">
        <ele>320.58466</ele>
        <time>2021-09-10T11:42:00</time>
      </trkpt>
      <trkpt lat="44.39525" lon="4.57223">
        <ele>320.58466</ele>
        <time>2021-09-10T11:42:01</time>
      </trkpt>
      <trkpt lat="44.39518" lon="4.57024">
        <ele>325.98465</ele>
        <time>2021-09-10T11:42:27</time>
      </trkpt>
      <trkpt lat="44.39517" lon="4.57004">
        <ele>325.98465</ele>
        <time>2021-09-10T11:42:30</time>
      </trkpt>
      <trkpt lat="44.39517" lon="4.56946">
        <ele>322.98465</ele>
        <time>2021-09-10T11:42:39</time>
      </trkpt>
      <trkpt lat="44.39514" lon="4.56898">
        <ele>323.48465</ele>
        <time>2021-09-10T11:42:47</time>
      </trkpt>
      <trkpt lat="44.39514" lon="4.56892">
        <ele>323.48465</ele>
        <time>2021-09-10T11:42:48</time>
      </trkpt>
      <trkpt lat="44.39515" lon="4.5683">
        <ele>323.98465</ele>
        <time>2021-09-10T11:42:57</time>
      </trkpt>
      <trkpt lat="44.39514" lon="4.56823">
        <ele>323.98465</ele>
        <time>2021-09-10T11:42:58</time>
      </trkpt>
      <trkpt lat="44.39511" lon="4.56754">
        <ele>329.08466</ele>
        <time>2021-09-10T11:43:08</time>
      </trkpt>
      <trkpt lat="44.39511" lon="4.56739">
        <ele>329.08466</ele>
        <time>2021-09-10T11:43:10</time>
      </trkpt>
      <trkpt lat="44.3951" lon="4.5673">
        <ele>329.08466</ele>
        <time>2021-09-10T11:43:11</time>
      </trkpt>
      <trkpt lat="44.39508" lon="4.56722">
        <ele>329.08466</ele>
        <time>2021-09-10T11:43:12</time>
      </trkpt>
      <trkpt lat="44.39507" lon="4.56705">
        <ele>331.58466</ele>
        <time>2021-09-10T11:43:14</time>
      </trkpt>
      <trkpt lat="44.395" lon="4.56404">
        <ele>331.88464</ele>
        <time>2021-09-10T11:43:44</time>
      </trkpt>
      <trkpt lat="44.39495" lon="4.56114">
        <ele>327.18466</ele>
        <time>2021-09-10T11:44:14</time>
      </trkpt>
      <trkpt lat="44.39489" lon="4.56038">
        <ele>327.18466</ele>
        <time>2021-09-10T11:44:22</time>
      </trkpt>
      <trkpt lat="44.39489" lon="4.56021">
        <ele>319.48465</ele>
        <time>2021-09-10T11:44:24</time>
      </trkpt>
      <trkpt lat="44.39484" lon="4.55924">
        <ele>321.98465</ele>
        <time>2021-09-10T11:44:35</time>
      </trkpt>
      <trkpt lat="44.39464" lon="4.55719">
        <ele>319.78467</ele>
        <time>2021-09-10T11:44:56</time>
      </trkpt>
      <trkpt lat="44.39462" lon="4.55425">
        <ele>318.7513</ele>
        <time>2021-09-10T11:45:26</time>
      </trkpt>
      <trkpt lat="44.39452" lon="4.55154">
        <ele>318.48465</ele>
        <time>2021-09-10T11:45:56</time>
      </trkpt>
      <trkpt lat="44.39427" lon="4.549">
        <ele>316.85132</ele>
        <time>2021-09-10T11:46:26</time>
      </trkpt>
      <trkpt lat="44.39391" lon="4.54693">
        <ele>317.98465</ele>
        <time>2021-09-10T11:46:50</time>
      </trkpt>
      <trkpt lat="44.39349" lon="4.5453">
        <ele>315.88464</ele>
        <time>2021-09-10T11:47:10</time>
      </trkpt>
      <trkpt lat="44.3927" lon="4.54281">
        <ele>313.88464</ele>
        <time>2021-09-10T11:47:40</time>
      </trkpt>
      <trkpt lat="44.39195" lon="4.54037">
        <ele>313.88464</ele>
        <time>2021-09-10T11:48:10</time>
      </trkpt>
      <trkpt lat="44.39119" lon="4.53798">
        <ele>313.88464</ele>
        <time>2021-09-10T11:48:40</time>
      </trkpt>
      <trkpt lat="44.39052" lon="4.53555">
        <ele>315.88464</ele>
        <time>2021-09-10T11:49:10</time>
      </trkpt>
      <trkpt lat="44.39023" lon="4.53478">
        <ele>315.88464</ele>
        <time>2021-09-10T11:49:21</time>
      </trkpt>
      <trkpt lat="44.39017" lon="4.53467">
        <ele>315.88464</ele>
        <time>2021-09-10T11:49:23</time>
      </trkpt>
      <trkpt lat="44.3899" lon="4.53426">
        <ele>315.88464</ele>
        <time>2021-09-10T11:49:30</time>
      </trkpt>
      <trkpt lat="44.38887" lon="4.53273">
        <ele>315.88464</ele>
        <time>2021-09-10T11:50:00</time>
      </trkpt>
      <trkpt lat="44.38775" lon="4.53097">
        <ele>315.88464</ele>
        <time>2021-09-10T11:50:30</time>
      </trkpt>
      <trkpt lat="44.38675" lon="4.52913">
        <ele>315.88464</ele>
        <time>2021-09-10T11:51:00</time>
      </trkpt>
      <trkpt lat="44.38553" lon="4.52657">
        <ele>315.88464</ele>
        <time>2021-09-10T11:51:30</time>
      </trkpt>
      <trkpt lat="44.38517" lon="4.52582">
        <ele>315.88464</ele>
        <time>2021-09-10T11:51:38</time>
      </trkpt>
      <trkpt lat="44.38446" lon="4.52467">
        <ele>323.38464</ele>
        <time>2021-09-10T11:51:51</time>
      </trkpt>
      <trkpt lat="44.38439" lon="4.52445">
        <ele>323.38464</ele>
        <time>2021-09-10T11:51:53</time>
      </trkpt>
      <trkpt lat="44.38435" lon="4.52424">
        <ele>323.38464</ele>
        <time>2021-09-10T11:51:55</time>
      </trkpt>
      <trkpt lat="44.38434" lon="4.52397">
        <ele>323.38464</ele>
        <time>2021-09-10T11:51:58</time>
      </trkpt>
      <trkpt lat="44.38434" lon="4.52222">
        <ele>330.78467</ele>
        <time>2021-09-10T11:52:28</time>
      </trkpt>
      <trkpt lat="44.38437" lon="4.52143">
        <ele>334.28467</ele>
        <time>2021-09-10T11:52:40</time>
      </trkpt>
      <trkpt lat="44.38437" lon="4.52137">
        <ele>334.28467</ele>
        <time>2021-09-10T11:52:41</time>
      </trkpt>
      <trkpt lat="44.38438" lon="4.52118">
        <ele>333.88464</ele>
        <time>2021-09-10T11:52:44</time>
      </trkpt>
      <trkpt lat="44.38444" lon="4.52057">
        <ele>333.88464</ele>
        <time>2021-09-10T11:52:52</time>
      </trkpt>
      <trkpt lat="44.38499" lon="4.51826">
        <ele>328.38464</ele>
        <time>2021-09-10T11:53:18</time>
      </trkpt>
      <trkpt lat="44.38519" lon="4.51771">
        <ele>328.38464</ele>
        <time>2021-09-10T11:53:23</time>
      </trkpt>
      <trkpt lat="44.38541" lon="4.51729">
        <ele>328.38464</ele>
        <time>2021-09-10T11:53:27</time>
      </trkpt>
      <trkpt lat="44.38663" lon="4.51534">
        <ele>328.38464</ele>
        <time>2021-09-10T11:53:57</time>
      </trkpt>
      <trkpt lat="44.38713" lon="4.51448">
        <ele>328.38464</ele>
        <time>2021-09-10T11:54:16</time>
      </trkpt>
      <trkpt lat="44.38743" lon="4.51385">
        <ele>328.38464</ele>
        <time>2021-09-10T11:54:29</time>
      </trkpt>
      <trkpt lat="44.3876" lon="4.51361">
        <ele>328.38464</ele>
        <time>2021-09-10T11:54:35</time>
      </trkpt>
      <trkpt lat="44.38816" lon="4.51296">
        <ele>328.38464</ele>
        <time>2021-09-10T11:54:52</time>
      </trkpt>
      <trkpt lat="44.38863" lon="4.51238">
        <ele>328.38464</ele>
        <time>2021-09-10T11:55:05</time>
      </trkpt>
      <trkpt lat="44.38879" lon="4.51222">
        <ele>328.38464</ele>
        <time>2021-09-10T11:55:09</time>
      </trkpt>
      <trkpt lat="44.38898" lon="4.51211">
        <ele>328.38464</ele>
        <time>2021-09-10T11:55:14</time>
      </trkpt>
      <trkpt lat="44.38936" lon="4.51191">
        <ele>328.38464</ele>
        <time>2021-09-10T11:55:23</time>
      </trkpt>
      <trkpt lat="44.38987" lon="4.51165">
        <ele>328.38464</ele>
        <time>2021-09-10T11:55:34</time>
      </trkpt>
      <trkpt lat="44.3906" lon="4.51125">
        <ele>328.38464</ele>
        <time>2021-09-10T11:55:50</time>
      </trkpt>
      <trkpt lat="44.39112" lon="4.5109">
        <ele>328.38464</ele>
        <time>2021-09-10T11:56:02</time>
      </trkpt>
      <trkpt lat="44.39125" lon="4.51075">
        <ele>328.38464</ele>
        <time>2021-09-10T11:56:05</time>
      </trkpt>
      <trkpt lat="44.39135" lon="4.51058">
        <ele>328.38464</ele>
        <time>2021-09-10T11:56:08</time>
      </trkpt>
      <trkpt lat="44.39145" lon="4.51036">
        <ele>328.38464</ele>
        <time>2021-09-10T11:56:11</time>
      </trkpt>
      <trkpt lat="44.39148" lon="4.51028">
        <ele>328.38464</ele>
        <time>2021-09-10T11:56:12</time>
      </trkpt>
      <trkpt lat="44.39206" lon="4.50757">
        <ele>330.38464</ele>
        <time>2021-09-10T11:56:42</time>
      </trkpt>
      <trkpt lat="44.39263" lon="4.5052">
        <ele>330.78467</ele>
        <time>2021-09-10T11:57:06</time>
      </trkpt>
      <trkpt lat="44.39264" lon="4.50514">
        <ele>330.78467</ele>
        <time>2021-09-10T11:57:07</time>
      </trkpt>
      <trkpt lat="44.39264" lon="4.50506">
        <ele>330.78467</ele>
        <time>2021-09-10T11:57:08</time>
      </trkpt>
      <trkpt lat="44.39261" lon="4.50503">
        <ele>330.78467</ele>
        <time>2021-09-10T11:57:09</time>
      </trkpt>
      <trkpt lat="44.39257" lon="4.50499">
        <ele>330.78467</ele>
        <time>2021-09-10T11:57:10</time>
      </trkpt>
      <trkpt lat="44.39253" lon="4.505">
        <ele>330.78467</ele>
        <time>2021-09-10T11:57:11</time>
      </trkpt>
      <trkpt lat="44.39246" lon="4.50501">
        <ele>330.78467</ele>
        <time>2021-09-10T11:57:13</time>
      </trkpt>
      <trkpt lat="44.39244" lon="4.50497">
        <ele>323.58466</ele>
        <time>2021-09-10T11:57:14</time>
      </trkpt>
      <trkpt lat="44.39242" lon="4.50492">
        <ele>323.58466</ele>
        <time>2021-09-10T11:57:15</time>
      </trkpt>
      <trkpt lat="44.39241" lon="4.50478">
        <ele>323.58466</ele>
        <time>2021-09-10T11:57:17</time>
      </trkpt>
      <trkpt lat="44.39239" lon="4.50474">
        <ele>323.58466</ele>
        <time>2021-09-10T11:57:18</time>
      </trkpt>
      <trkpt lat="44.39239" lon="4.50467">
        <ele>323.58466</ele>
        <time>2021-09-10T11:57:19</time>
      </trkpt>
      <trkpt lat="44.3925" lon="4.50336">
        <ele>321.08466</ele>
        <time>2021-09-10T11:57:37</time>
      </trkpt>
      <trkpt lat="44.3925" lon="4.50332">
        <ele>321.08466</ele>
        <time>2021-09-10T11:57:38</time>
      </trkpt>
      <trkpt lat="44.39251" lon="4.50327">
        <ele>321.08466</ele>
        <time>2021-09-10T11:57:39</time>
      </trkpt>
      <trkpt lat="44.39254" lon="4.50323">
        <ele>321.08466</ele>
        <time>2021-09-10T11:57:41</time>
      </trkpt>
      <trkpt lat="44.39256" lon="4.50323">
        <ele>321.08466</ele>
        <time>2021-09-10T11:57:42</time>
      </trkpt>
      <trkpt lat="44.39259" lon="4.50323">
        <ele>321.08466</ele>
        <time>2021-09-10T11:57:43</time>
      </trkpt>
      <trkpt lat="44.39262" lon="4.50321">
        <ele>319.48465</ele>
        <time>2021-09-10T11:57:46</time>
      </trkpt>
      <trkpt lat="44.39262" lon="4.50321">
        <ele>319.48465</ele>
        <time>2021-09-10T11:57:47</time>
      </trkpt>
      <trkpt lat="44.39261" lon="4.50323">
        <ele>314.08466</ele>
        <time>2021-09-10T11:58:17</time>
      </trkpt>
      <trkpt lat="44.39261" lon="4.50323">
        <ele>314.38464</ele>
        <time>2021-09-10T11:58:30</time>
      </trkpt>
      <trkpt lat="44.39261" lon="4.50323">
        <ele>314.38464</ele>
        <time>2021-09-10T11:58:31</time>
      </trkpt>
      <trkpt lat="44.39262" lon="4.50323">
        <ele>316.18466</ele>
        <time>2021-09-10T11:59:11</time>
      </trkpt>
      <trkpt lat="44.39262" lon="4.50322">
        <ele>316.18466</ele>
        <time>2021-09-10T11:59:33</time>
      </trkpt>
      <trkpt lat="44.39262" lon="4.50322">
        <ele>315.58466</ele>
        <time>2021-09-10T11:59:34</time>
      </trkpt>
      <trkpt lat="44.39261" lon="4.50325">
        <ele>318.28467</ele>
        <time>2021-09-10T12:00:05</time>
      </trkpt>
      <trkpt lat="44.39261" lon="4.50325">
        <ele>318.28467</ele>
        <time>2021-09-10T12:00:07</time>
      </trkpt>
      <trkpt lat="44.39262" lon="4.50325">
        <ele>318.28467</ele>
        <time>2021-09-10T12:00:12</time>
      </trkpt>
      <trkpt lat="44.39262" lon="4.50325">
        <ele>318.28467</ele>
        <time>2021-09-10T12:00:13</time>
      </trkpt>
      <trkpt lat="44.39262" lon="4.50325">
        <ele>318.28467</ele>
        <time>2021-09-10T12:00:21</time>
      </trkpt>
      <trkpt lat="44.39262" lon="4.50325">
        <ele>318.28467</ele>
        <time>2021-09-10T12:00:22</time>
      </trkpt>
      <trkpt lat="44.39261" lon="4.50326">
        <ele>318.28467</ele>
        <time>2021-09-10T12:00:23</time>
      </trkpt>
      <trkpt lat="44.39261" lon="4.50328">
        <ele>318.08466</ele>
        <time>2021-09-10T12:00:25</time>
      </trkpt>
      <trkpt lat="44.39261" lon="4.5033">
        <ele>319.18466</ele>
        <time>2021-09-10T12:00:42</time>
      </trkpt>
      <trkpt lat="44.39261" lon="4.50329">
        <ele>319.18466</ele>
        <time>2021-09-10T12:00:43</time>
      </trkpt>
      <trkpt lat="44.3926" lon="4.50327">
        <ele>318.28467</ele>
        <time>2021-09-10T12:00:46</time>
      </trkpt>
      <trkpt lat="44.39261" lon="4.50327">
        <ele>318.28467</ele>
        <time>2021-09-10T12:00:48</time>
      </trkpt>
      <trkpt lat="44.39261" lon="4.50328">
        <ele>318.28467</ele>
        <time>2021-09-10T12:00:49</time>
      </trkpt>
      <trkpt lat="44.39261" lon="4.50328">
        <ele>318.28467</ele>
        <time>2021-09-10T12:00:50</time>
      </trkpt>
      <trkpt lat="44.39261" lon="4.50329">
        <ele>318.28467</ele>
        <time>2021-09-10T12:00:51</time>
      </trkpt>
      <trkpt lat="44.39264" lon="4.50332">
        <ele>317.38464</ele>
        <time>2021-09-10T12:07:15</time>
      </trkpt>
      <trkpt lat="44.39264" lon="4.50332">
        <ele>317.38464</ele>
        <time>2021-09-10T12:07:16</time>
      </trkpt>
      <trkpt lat="44.39264" lon="4.50333">
        <ele>319.58466</ele>
        <time>2021-09-10T12:07:31</time>
      </trkpt>
      <trkpt lat="44.39265" lon="4.50333">
        <ele>319.58466</ele>
        <time>2021-09-10T12:07:32</time>
      </trkpt>
      <trkpt lat="44.39264" lon="4.50332">
        <ele>322.18466</ele>
        <time>2021-09-10T12:08:06</time>
      </trkpt>
      <trkpt lat="44.39264" lon="4.50332">
        <ele>322.28467</ele>
        <time>2021-09-10T12:08:27</time>
      </trkpt>
      <trkpt lat="44.39264" lon="4.50332">
        <ele>322.28467</ele>
        <time>2021-09-10T12:08:28</time>
      </trkpt>
      <trkpt lat="44.39263" lon="4.5033">
        <ele>321.18466</ele>
        <time>2021-09-10T12:08:42</time>
      </trkpt>
      <trkpt lat="44.39263" lon="4.50329">
        <ele>321.18466</ele>
        <time>2021-09-10T12:08:43</time>
      </trkpt>
      <trkpt lat="44.39263" lon="4.50329">
        <ele>321.18466</ele>
        <time>2021-09-10T12:08:44</time>
      </trkpt>
      <trkpt lat="44.39263" lon="4.50327">
        <ele>317.45132</ele>
        <time>2021-09-10T12:09:05</time>
      </trkpt>
      <trkpt lat="44.39263" lon="4.50328">
        <ele>317.45132</ele>
        <time>2021-09-10T12:09:08</time>
      </trkpt>
      <trkpt lat="44.39261" lon="4.50325">
        <ele>317.38464</ele>
        <time>2021-09-10T12:09:21</time>
      </trkpt>
      <trkpt lat="44.39257" lon="4.50323">
        <ele>317.38464</ele>
        <time>2021-09-10T12:09:23</time>
      </trkpt>
      <trkpt lat="44.39255" lon="4.50323">
        <ele>317.38464</ele>
        <time>2021-09-10T12:09:24</time>
      </trkpt>
      <trkpt lat="44.39252" lon="4.50324">
        <ele>317.38464</ele>
        <time>2021-09-10T12:09:25</time>
      </trkpt>
      <trkpt lat="44.39251" lon="4.50326">
        <ele>317.38464</ele>
        <time>2021-09-10T12:09:26</time>
      </trkpt>
      <trkpt lat="44.3925" lon="4.50335">
        <ele>317.38464</ele>
        <time>2021-09-10T12:09:28</time>
      </trkpt>
      <trkpt lat="44.39247" lon="4.50384">
        <ele>317.68466</ele>
        <time>2021-09-10T12:09:38</time>
      </trkpt>
      <trkpt lat="44.39236" lon="4.50484">
        <ele>317.418</ele>
        <time>2021-09-10T12:09:58</time>
      </trkpt>
      <trkpt lat="44.39237" lon="4.50493">
        <ele>318.98465</ele>
        <time>2021-09-10T12:10:00</time>
      </trkpt>
      <trkpt lat="44.39238" lon="4.50497">
        <ele>318.98465</ele>
        <time>2021-09-10T12:10:01</time>
      </trkpt>
      <trkpt lat="44.3924" lon="4.50502">
        <ele>318.98465</ele>
        <time>2021-09-10T12:10:02</time>
      </trkpt>
      <trkpt lat="44.39242" lon="4.50506">
        <ele>318.98465</ele>
        <time>2021-09-10T12:10:03</time>
      </trkpt>
      <trkpt lat="44.39245" lon="4.5051">
        <ele>318.98465</ele>
        <time>2021-09-10T12:10:04</time>
      </trkpt>
      <trkpt lat="44.39252" lon="4.50515">
        <ele>318.98465</ele>
        <time>2021-09-10T12:10:06</time>
      </trkpt>
      <trkpt lat="44.3926" lon="4.50516">
        <ele>318.98465</ele>
        <time>2021-09-10T12:10:08</time>
      </trkpt>
      <trkpt lat="44.39263" lon="4.50513">
        <ele>318.78467</ele>
        <time>2021-09-10T12:10:09</time>
      </trkpt>
      <trkpt lat="44.39265" lon="4.50508">
        <ele>318.78467</ele>
        <time>2021-09-10T12:10:10</time>
      </trkpt>
      <trkpt lat="44.39266" lon="4.50501">
        <ele>318.78467</ele>
        <time>2021-09-10T12:10:11</time>
      </trkpt>
      <trkpt lat="44.39263" lon="4.50487">
        <ele>318.78467</ele>
        <time>2021-09-10T12:10:12</time>
      </trkpt>
      <trkpt lat="44.39264" lon="4.50481">
        <ele>318.78467</ele>
        <time>2021-09-10T12:10:13</time>
      </trkpt>
      <trkpt lat="44.39295" lon="4.50353">
        <ele>319.78467</ele>
        <time>2021-09-10T12:10:29</time>
      </trkpt>
      <trkpt lat="44.39313" lon="4.50268">
        <ele>319.78467</ele>
        <time>2021-09-10T12:10:38</time>
      </trkpt>
      <trkpt lat="44.39317" lon="4.5023">
        <ele>321.08466</ele>
        <time>2021-09-10T12:10:42</time>
      </trkpt>
      <trkpt lat="44.39341" lon="4.49953">
        <ele>319.18466</ele>
        <time>2021-09-10T12:11:12</time>
      </trkpt>
      <trkpt lat="44.39348" lon="4.49869">
        <ele>319.08466</ele>
        <time>2021-09-10T12:11:22</time>
      </trkpt>
      <trkpt lat="44.39351" lon="4.49863">
        <ele>319.08466</ele>
        <time>2021-09-10T12:11:23</time>
      </trkpt>
      <trkpt lat="44.39359" lon="4.4985">
        <ele>319.08466</ele>
        <time>2021-09-10T12:11:25</time>
      </trkpt>
      <trkpt lat="44.39394" lon="4.49793">
        <ele>319.28467</ele>
        <time>2021-09-10T12:11:35</time>
      </trkpt>
      <trkpt lat="44.39454" lon="4.49644">
        <ele>317.38464</ele>
        <time>2021-09-10T12:11:59</time>
      </trkpt>
      <trkpt lat="44.39461" lon="4.49614">
        <ele>317.38464</ele>
        <time>2021-09-10T12:12:03</time>
      </trkpt>
      <trkpt lat="44.3947" lon="4.49543">
        <ele>321.45132</ele>
        <time>2021-09-10T12:12:12</time>
      </trkpt>
      <trkpt lat="44.39488" lon="4.49277">
        <ele>319.28467</ele>
        <time>2021-09-10T12:12:41</time>
      </trkpt>
      <trkpt lat="44.3952" lon="4.48999">
        <ele>318.98465</ele>
        <time>2021-09-10T12:13:10</time>
      </trkpt>
      <trkpt lat="44.39547" lon="4.48703">
        <ele>320.318</ele>
        <time>2021-09-10T12:13:40</time>
      </trkpt>
      <trkpt lat="44.39564" lon="4.48615">
        <ele>323.18466</ele>
        <time>2021-09-10T12:13:49</time>
      </trkpt>
      <trkpt lat="44.39571" lon="4.48592">
        <ele>323.18466</ele>
        <time>2021-09-10T12:13:52</time>
      </trkpt>
      <trkpt lat="44.39619" lon="4.48475">
        <ele>320.28467</ele>
        <time>2021-09-10T12:14:09</time>
      </trkpt>
      <trkpt lat="44.3964" lon="4.48437">
        <ele>320.28467</ele>
        <time>2021-09-10T12:14:15</time>
      </trkpt>
      <trkpt lat="44.39708" lon="4.4832">
        <ele>329.98465</ele>
        <time>2021-09-10T12:14:34</time>
      </trkpt>
      <trkpt lat="44.39735" lon="4.48255">
        <ele>331.98465</ele>
        <time>2021-09-10T12:14:43</time>
      </trkpt>
      <trkpt lat="44.39776" lon="4.48142">
        <ele>331.98465</ele>
        <time>2021-09-10T12:14:57</time>
      </trkpt>
      <trkpt lat="44.3979" lon="4.48116">
        <ele>331.98465</ele>
        <time>2021-09-10T12:15:00</time>
      </trkpt>
      <trkpt lat="44.39803" lon="4.48103">
        <ele>331.98465</ele>
        <time>2021-09-10T12:15:02</time>
      </trkpt>
      <trkpt lat="44.39824" lon="4.48088">
        <ele>331.98465</ele>
        <time>2021-09-10T12:15:05</time>
      </trkpt>
      <trkpt lat="44.39838" lon="4.48079">
        <ele>331.98465</ele>
        <time>2021-09-10T12:15:07</time>
      </trkpt>
      <trkpt lat="44.39864" lon="4.48072">
        <ele>325.98465</ele>
        <time>2021-09-10T12:15:10</time>
      </trkpt>
      <trkpt lat="44.39994" lon="4.48045">
        <ele>324.11798</ele>
        <time>2021-09-10T12:15:24</time>
      </trkpt>
      <trkpt lat="44.40013" lon="4.48048">
        <ele>324.11798</ele>
        <time>2021-09-10T12:15:26</time>
      </trkpt>
      <trkpt lat="44.40041" lon="4.48059">
        <ele>320.28467</ele>
        <time>2021-09-10T12:15:29</time>
      </trkpt>
      <trkpt lat="44.40059" lon="4.48073">
        <ele>320.28467</ele>
        <time>2021-09-10T12:15:31</time>
      </trkpt>
      <trkpt lat="44.40095" lon="4.48099">
        <ele>320.28467</ele>
        <time>2021-09-10T12:15:35</time>
      </trkpt>
      <trkpt lat="44.40127" lon="4.48135">
        <ele>317.418</ele>
        <time>2021-09-10T12:15:39</time>
      </trkpt>
      <trkpt lat="44.40155" lon="4.48177">
        <ele>317.418</ele>
        <time>2021-09-10T12:15:43</time>
      </trkpt>
      <trkpt lat="44.40171" lon="4.48194">
        <ele>317.418</ele>
        <time>2021-09-10T12:15:48</time>
      </trkpt>
      <trkpt lat="44.40207" lon="4.48202">
        <ele>317.418</ele>
        <time>2021-09-10T12:15:49</time>
      </trkpt>
      <trkpt lat="44.40214" lon="4.48196">
        <ele>317.418</ele>
        <time>2021-09-10T12:15:50</time>
      </trkpt>
      <trkpt lat="44.40219" lon="4.48187">
        <ele>317.418</ele>
        <time>2021-09-10T12:15:51</time>
      </trkpt>
      <trkpt lat="44.40222" lon="4.48178">
        <ele>311.58466</ele>
        <time>2021-09-10T12:15:52</time>
      </trkpt>
      <trkpt lat="44.40224" lon="4.48167">
        <ele>311.58466</ele>
        <time>2021-09-10T12:15:53</time>
      </trkpt>
      <trkpt lat="44.40225" lon="4.48158">
        <ele>311.58466</ele>
        <time>2021-09-10T12:15:54</time>
      </trkpt>
      <trkpt lat="44.40225" lon="4.48138">
        <ele>311.58466</ele>
        <time>2021-09-10T12:15:56</time>
      </trkpt>
      <trkpt lat="44.40223" lon="4.4813">
        <ele>311.58466</ele>
        <time>2021-09-10T12:15:57</time>
      </trkpt>
      <trkpt lat="44.402" lon="4.47938">
        <ele>311.18466</ele>
        <time>2021-09-10T12:16:27</time>
      </trkpt>
      <trkpt lat="44.40195" lon="4.47916">
        <ele>311.18466</ele>
        <time>2021-09-10T12:16:31</time>
      </trkpt>
      <trkpt lat="44.40161" lon="4.47797">
        <ele>306.08466</ele>
        <time>2021-09-10T12:16:56</time>
      </trkpt>
      <trkpt lat="44.40145" lon="4.47763">
        <ele>303.98465</ele>
        <time>2021-09-10T12:17:04</time>
      </trkpt>
      <trkpt lat="44.4012" lon="4.47709">
        <ele>311.48465</ele>
        <time>2021-09-10T12:17:17</time>
      </trkpt>
      <trkpt lat="44.40116" lon="4.47696">
        <ele>311.48465</ele>
        <time>2021-09-10T12:17:20</time>
      </trkpt>
      <trkpt lat="44.40115" lon="4.47687">
        <ele>311.48465</ele>
        <time>2021-09-10T12:17:22</time>
      </trkpt>
      <trkpt lat="44.40114" lon="4.47674">
        <ele>314.78467</ele>
        <time>2021-09-10T12:17:25</time>
      </trkpt>
      <trkpt lat="44.40113" lon="4.47653">
        <ele>314.78467</ele>
        <time>2021-09-10T12:17:30</time>
      </trkpt>
      <trkpt lat="44.40111" lon="4.47645">
        <ele>314.78467</ele>
        <time>2021-09-10T12:17:32</time>
      </trkpt>
      <trkpt lat="44.40101" lon="4.47626">
        <ele>319.88464</ele>
        <time>2021-09-10T12:17:37</time>
      </trkpt>
      <trkpt lat="44.40077" lon="4.47602">
        <ele>320.18466</ele>
        <time>2021-09-10T12:17:46</time>
      </trkpt>
      <trkpt lat="44.40054" lon="4.47575">
        <ele>320.18466</ele>
        <time>2021-09-10T12:17:55</time>
      </trkpt>
      <trkpt lat="44.40041" lon="4.47567">
        <ele>320.18466</ele>
        <time>2021-09-10T12:17:59</time>
      </trkpt>
      <trkpt lat="44.40034" lon="4.47565">
        <ele>320.18466</ele>
        <time>2021-09-10T12:18:01</time>
      </trkpt>
      <trkpt lat="44.39979" lon="4.47553">
        <ele>330.58466</ele>
        <time>2021-09-10T12:18:17</time>
      </trkpt>
      <trkpt lat="44.39976" lon="4.47551">
        <ele>330.58466</ele>
        <time>2021-09-10T12:18:18</time>
      </trkpt>
      <trkpt lat="44.39961" lon="4.47538">
        <ele>330.58466</ele>
        <time>2021-09-10T12:18:23</time>
      </trkpt>
      <trkpt lat="44.39957" lon="4.4753">
        <ele>330.78467</ele>
        <time>2021-09-10T12:18:25</time>
      </trkpt>
      <trkpt lat="44.39953" lon="4.47522">
        <ele>330.78467</ele>
        <time>2021-09-10T12:18:27</time>
      </trkpt>
      <trkpt lat="44.39948" lon="4.47506">
        <ele>330.78467</ele>
        <time>2021-09-10T12:18:31</time>
      </trkpt>
      <trkpt lat="44.39925" lon="4.4743">
        <ele>332.88464</ele>
        <time>2021-09-10T12:18:50</time>
      </trkpt>
      <trkpt lat="44.39923" lon="4.47416">
        <ele>332.88464</ele>
        <time>2021-09-10T12:18:52</time>
      </trkpt>
      <trkpt lat="44.3992" lon="4.47388">
        <ele>332.98465</ele>
        <time>2021-09-10T12:18:58</time>
      </trkpt>
      <trkpt lat="44.39922" lon="4.4735">
        <ele>331.98465</ele>
        <time>2021-09-10T12:19:06</time>
      </trkpt>
      <trkpt lat="44.39927" lon="4.47327">
        <ele>331.98465</ele>
        <time>2021-09-10T12:19:11</time>
      </trkpt>
      <trkpt lat="44.39929" lon="4.47322">
        <ele>331.98465</ele>
        <time>2021-09-10T12:19:12</time>
      </trkpt>
      <trkpt lat="44.39936" lon="4.47304">
        <ele>338.68466</ele>
        <time>2021-09-10T12:19:16</time>
      </trkpt>
      <trkpt lat="44.39943" lon="4.47293">
        <ele>338.68466</ele>
        <time>2021-09-10T12:19:19</time>
      </trkpt>
      <trkpt lat="44.39956" lon="4.47276">
        <ele>338.68466</ele>
        <time>2021-09-10T12:19:24</time>
      </trkpt>
      <trkpt lat="44.39967" lon="4.47266">
        <ele>339.58466</ele>
        <time>2021-09-10T12:19:28</time>
      </trkpt>
      <trkpt lat="44.39973" lon="4.47261">
        <ele>339.58466</ele>
        <time>2021-09-10T12:19:30</time>
      </trkpt>
      <trkpt lat="44.39982" lon="4.47253">
        <ele>339.58466</ele>
        <time>2021-09-10T12:19:33</time>
      </trkpt>
      <trkpt lat="44.40034" lon="4.47214">
        <ele>347.68466</ele>
        <time>2021-09-10T12:19:51</time>
      </trkpt>
      <trkpt lat="44.40052" lon="4.47194">
        <ele>346.38464</ele>
        <time>2021-09-10T12:19:58</time>
      </trkpt>
      <trkpt lat="44.40061" lon="4.47172">
        <ele>346.38464</ele>
        <time>2021-09-10T12:20:03</time>
      </trkpt>
      <trkpt lat="44.4007" lon="4.4714">
        <ele>356.818</ele>
        <time>2021-09-10T12:20:09</time>
      </trkpt>
      <trkpt lat="44.40079" lon="4.47103">
        <ele>355.98465</ele>
        <time>2021-09-10T12:20:16</time>
      </trkpt>
      <trkpt lat="44.40095" lon="4.47064">
        <ele>355.98465</ele>
        <time>2021-09-10T12:20:23</time>
      </trkpt>
      <trkpt lat="44.40102" lon="4.4705">
        <ele>354.38464</ele>
        <time>2021-09-10T12:20:26</time>
      </trkpt>
      <trkpt lat="44.40123" lon="4.47022">
        <ele>354.38464</ele>
        <time>2021-09-10T12:20:33</time>
      </trkpt>
      <trkpt lat="44.4014" lon="4.47008">
        <ele>351.01797</ele>
        <time>2021-09-10T12:20:38</time>
      </trkpt>
      <trkpt lat="44.40155" lon="4.46999">
        <ele>351.01797</ele>
        <time>2021-09-10T12:20:42</time>
      </trkpt>
      <trkpt lat="44.40181" lon="4.46987">
        <ele>358.88464</ele>
        <time>2021-09-10T12:20:49</time>
      </trkpt>
      <trkpt lat="44.40308" lon="4.46931">
        <ele>362.38464</ele>
        <time>2021-09-10T12:21:15</time>
      </trkpt>
      <trkpt lat="44.40321" lon="4.46918">
        <ele>365.38464</ele>
        <time>2021-09-10T12:21:18</time>
      </trkpt>
      <trkpt lat="44.40374" lon="4.46869">
        <ele>358.98465</ele>
        <time>2021-09-10T12:21:28</time>
      </trkpt>
      <trkpt lat="44.40384" lon="4.46863">
        <ele>358.98465</ele>
        <time>2021-09-10T12:21:30</time>
      </trkpt>
      <trkpt lat="44.40395" lon="4.46864">
        <ele>358.98465</ele>
        <time>2021-09-10T12:21:32</time>
      </trkpt>
      <trkpt lat="44.40401" lon="4.46866">
        <ele>358.98465</ele>
        <time>2021-09-10T12:21:33</time>
      </trkpt>
      <trkpt lat="44.40437" lon="4.46869">
        <ele>360.28467</ele>
        <time>2021-09-10T12:21:39</time>
      </trkpt>
      <trkpt lat="44.40448" lon="4.46864">
        <ele>360.28467</ele>
        <time>2021-09-10T12:21:41</time>
      </trkpt>
      <trkpt lat="44.40453" lon="4.46859">
        <ele>360.28467</ele>
        <time>2021-09-10T12:21:42</time>
      </trkpt>
      <trkpt lat="44.40463" lon="4.46848">
        <ele>360.28467</ele>
        <time>2021-09-10T12:21:44</time>
      </trkpt>
      <trkpt lat="44.40467" lon="4.46841">
        <ele>360.28467</ele>
        <time>2021-09-10T12:21:45</time>
      </trkpt>
      <trkpt lat="44.4047" lon="4.46834">
        <ele>363.28467</ele>
        <time>2021-09-10T12:21:46</time>
      </trkpt>
      <trkpt lat="44.40472" lon="4.46827">
        <ele>363.28467</ele>
        <time>2021-09-10T12:21:47</time>
      </trkpt>
      <trkpt lat="44.40475" lon="4.46811">
        <ele>363.28467</ele>
        <time>2021-09-10T12:21:49</time>
      </trkpt>
      <trkpt lat="44.40475" lon="4.46804">
        <ele>363.28467</ele>
        <time>2021-09-10T12:21:50</time>
      </trkpt>
      <trkpt lat="44.40473" lon="4.46791">
        <ele>363.28467</ele>
        <time>2021-09-10T12:21:52</time>
      </trkpt>
      <trkpt lat="44.40471" lon="4.46785">
        <ele>363.28467</ele>
        <time>2021-09-10T12:21:53</time>
      </trkpt>
      <trkpt lat="44.40465" lon="4.46769">
        <ele>358.58466</ele>
        <time>2021-09-10T12:21:56</time>
      </trkpt>
      <trkpt lat="44.40459" lon="4.46762">
        <ele>358.58466</ele>
        <time>2021-09-10T12:21:58</time>
      </trkpt>
      <trkpt lat="44.40451" lon="4.46754">
        <ele>358.58466</ele>
        <time>2021-09-10T12:22:01</time>
      </trkpt>
      <trkpt lat="44.40445" lon="4.4675">
        <ele>358.58466</ele>
        <time>2021-09-10T12:22:03</time>
      </trkpt>
      <trkpt lat="44.40427" lon="4.46739">
        <ele>363.18466</ele>
        <time>2021-09-10T12:22:10</time>
      </trkpt>
      <trkpt lat="44.40424" lon="4.46737">
        <ele>363.18466</ele>
        <time>2021-09-10T12:22:11</time>
      </trkpt>
      <trkpt lat="44.40341" lon="4.46687">
        <ele>368.88464</ele>
        <time>2021-09-10T12:22:40</time>
      </trkpt>
      <trkpt lat="44.40333" lon="4.46681">
        <ele>368.88464</ele>
        <time>2021-09-10T12:22:43</time>
      </trkpt>
      <trkpt lat="44.40327" lon="4.46677">
        <ele>368.88464</ele>
        <time>2021-09-10T12:22:45</time>
      </trkpt>
      <trkpt lat="44.40317" lon="4.46664">
        <ele>366.48465</ele>
        <time>2021-09-10T12:22:49</time>
      </trkpt>
      <trkpt lat="44.40314" lon="4.46657">
        <ele>366.48465</ele>
        <time>2021-09-10T12:22:51</time>
      </trkpt>
      <trkpt lat="44.40312" lon="4.4665">
        <ele>366.48465</ele>
        <time>2021-09-10T12:22:53</time>
      </trkpt>
      <trkpt lat="44.40307" lon="4.46628">
        <ele>363.58466</ele>
        <time>2021-09-10T12:22:59</time>
      </trkpt>
      <trkpt lat="44.40307" lon="4.46617">
        <ele>363.58466</ele>
        <time>2021-09-10T12:23:02</time>
      </trkpt>
      <trkpt lat="44.40309" lon="4.4661">
        <ele>363.58466</ele>
        <time>2021-09-10T12:23:04</time>
      </trkpt>
      <trkpt lat="44.40313" lon="4.46593">
        <ele>361.65134</ele>
        <time>2021-09-10T12:23:08</time>
      </trkpt>
      <trkpt lat="44.40318" lon="4.4658">
        <ele>361.65134</ele>
        <time>2021-09-10T12:23:11</time>
      </trkpt>
      <trkpt lat="44.40331" lon="4.46541">
        <ele>361.78467</ele>
        <time>2021-09-10T12:23:19</time>
      </trkpt>
      <trkpt lat="44.40342" lon="4.4651">
        <ele>361.78467</ele>
        <time>2021-09-10T12:23:25</time>
      </trkpt>
      <trkpt lat="44.40392" lon="4.46364">
        <ele>371.28467</ele>
        <time>2021-09-10T12:23:45</time>
      </trkpt>
      <trkpt lat="44.40394" lon="4.46346">
        <ele>372.18466</ele>
        <time>2021-09-10T12:23:47</time>
      </trkpt>
      <trkpt lat="44.40393" lon="4.46327">
        <ele>372.18466</ele>
        <time>2021-09-10T12:23:49</time>
      </trkpt>
      <trkpt lat="44.40388" lon="4.46309">
        <ele>372.18466</ele>
        <time>2021-09-10T12:23:51</time>
      </trkpt>
      <trkpt lat="44.4033" lon="4.46099">
        <ele>373.48465</ele>
        <time>2021-09-10T12:24:13</time>
      </trkpt>
      <trkpt lat="44.40224" lon="4.4576">
        <ele>370.08466</ele>
        <time>2021-09-10T12:24:43</time>
      </trkpt>
      <trkpt lat="44.40165" lon="4.45558">
        <ele>367.68466</ele>
        <time>2021-09-10T12:25:03</time>
      </trkpt>
      <trkpt lat="44.40162" lon="4.45517">
        <ele>367.68466</ele>
        <time>2021-09-10T12:25:07</time>
      </trkpt>
      <trkpt lat="44.40163" lon="4.45486">
        <ele>367.68466</ele>
        <time>2021-09-10T12:25:10</time>
      </trkpt>
      <trkpt lat="44.40184" lon="4.4517">
        <ele>356.48465</ele>
        <time>2021-09-10T12:25:40</time>
      </trkpt>
      <trkpt lat="44.40188" lon="4.45156">
        <ele>356.48465</ele>
        <time>2021-09-10T12:25:42</time>
      </trkpt>
      <trkpt lat="44.4019" lon="4.45149">
        <ele>356.48465</ele>
        <time>2021-09-10T12:25:43</time>
      </trkpt>
      <trkpt lat="44.40194" lon="4.45142">
        <ele>356.48465</ele>
        <time>2021-09-10T12:25:44</time>
      </trkpt>
      <trkpt lat="44.40205" lon="4.45131">
        <ele>357.98465</ele>
        <time>2021-09-10T12:25:46</time>
      </trkpt>
      <trkpt lat="44.40212" lon="4.45128">
        <ele>357.98465</ele>
        <time>2021-09-10T12:25:47</time>
      </trkpt>
      <trkpt lat="44.40219" lon="4.45126">
        <ele>357.98465</ele>
        <time>2021-09-10T12:25:48</time>
      </trkpt>
      <trkpt lat="44.40226" lon="4.45124">
        <ele>357.98465</ele>
        <time>2021-09-10T12:25:49</time>
      </trkpt>
      <trkpt lat="44.40234" lon="4.45126">
        <ele>357.98465</ele>
        <time>2021-09-10T12:25:50</time>
      </trkpt>
      <trkpt lat="44.40241" lon="4.4513">
        <ele>357.98465</ele>
        <time>2021-09-10T12:25:51</time>
      </trkpt>
      <trkpt lat="44.40247" lon="4.45138">
        <ele>357.98465</ele>
        <time>2021-09-10T12:25:52</time>
      </trkpt>
      <trkpt lat="44.4026" lon="4.45154">
        <ele>357.98465</ele>
        <time>2021-09-10T12:25:54</time>
      </trkpt>
      <trkpt lat="44.40337" lon="4.45247">
        <ele>355.918</ele>
        <time>2021-09-10T12:26:04</time>
      </trkpt>
      <trkpt lat="44.40346" lon="4.45254">
        <ele>355.918</ele>
        <time>2021-09-10T12:26:05</time>
      </trkpt>
      <trkpt lat="44.40356" lon="4.4526">
        <ele>343.98465</ele>
        <time>2021-09-10T12:26:06</time>
      </trkpt>
      <trkpt lat="44.40376" lon="4.45266">
        <ele>343.98465</ele>
        <time>2021-09-10T12:26:08</time>
      </trkpt>
      <trkpt lat="44.4041" lon="4.45266">
        <ele>343.98465</ele>
        <time>2021-09-10T12:26:11</time>
      </trkpt>
      <trkpt lat="44.40421" lon="4.45265">
        <ele>343.98465</ele>
        <time>2021-09-10T12:26:12</time>
      </trkpt>
      <trkpt lat="44.40444" lon="4.45265">
        <ele>343.98465</ele>
        <time>2021-09-10T12:26:14</time>
      </trkpt>
      <trkpt lat="44.40455" lon="4.45268">
        <ele>343.98465</ele>
        <time>2021-09-10T12:26:15</time>
      </trkpt>
      <trkpt lat="44.40466" lon="4.45276">
        <ele>338.88464</ele>
        <time>2021-09-10T12:26:16</time>
      </trkpt>
      <trkpt lat="44.40476" lon="4.45285">
        <ele>338.88464</ele>
        <time>2021-09-10T12:26:17</time>
      </trkpt>
      <trkpt lat="44.40493" lon="4.45306">
        <ele>338.88464</ele>
        <time>2021-09-10T12:26:19</time>
      </trkpt>
      <trkpt lat="44.40501" lon="4.4532">
        <ele>338.88464</ele>
        <time>2021-09-10T12:26:20</time>
      </trkpt>
      <trkpt lat="44.40539" lon="4.4539">
        <ele>338.88464</ele>
        <time>2021-09-10T12:26:25</time>
      </trkpt>
      <trkpt lat="44.40622" lon="4.45507">
        <ele>337.08466</ele>
        <time>2021-09-10T12:26:35</time>
      </trkpt>
      <trkpt lat="44.4063" lon="4.4551">
        <ele>325.08466</ele>
        <time>2021-09-10T12:26:36</time>
      </trkpt>
      <trkpt lat="44.4064" lon="4.4551">
        <ele>325.08466</ele>
        <time>2021-09-10T12:26:37</time>
      </trkpt>
      <trkpt lat="44.40648" lon="4.45504">
        <ele>325.08466</ele>
        <time>2021-09-10T12:26:38</time>
      </trkpt>
      <trkpt lat="44.40655" lon="4.45497">
        <ele>325.08466</ele>
        <time>2021-09-10T12:26:39</time>
      </trkpt>
      <trkpt lat="44.40658" lon="4.45485">
        <ele>325.08466</ele>
        <time>2021-09-10T12:26:40</time>
      </trkpt>
      <trkpt lat="44.40661" lon="4.45472">
        <ele>325.08466</ele>
        <time>2021-09-10T12:26:41</time>
      </trkpt>
      <trkpt lat="44.40659" lon="4.45459">
        <ele>325.08466</ele>
        <time>2021-09-10T12:26:42</time>
      </trkpt>
      <trkpt lat="44.40655" lon="4.45447">
        <ele>325.08466</ele>
        <time>2021-09-10T12:26:43</time>
      </trkpt>
      <trkpt lat="44.40645" lon="4.45424">
        <ele>325.08466</ele>
        <time>2021-09-10T12:26:45</time>
      </trkpt>
      <trkpt lat="44.40588" lon="4.453">
        <ele>321.38464</ele>
        <time>2021-09-10T12:26:56</time>
      </trkpt>
      <trkpt lat="44.4058" lon="4.4526">
        <ele>321.38464</ele>
        <time>2021-09-10T12:26:59</time>
      </trkpt>
      <trkpt lat="44.40576" lon="4.45219">
        <ele>321.38464</ele>
        <time>2021-09-10T12:27:02</time>
      </trkpt>
      <trkpt lat="44.40574" lon="4.45177">
        <ele>321.38464</ele>
        <time>2021-09-10T12:27:05</time>
      </trkpt>
      <trkpt lat="44.40576" lon="4.45147">
        <ele>314.68466</ele>
        <time>2021-09-10T12:27:07</time>
      </trkpt>
      <trkpt lat="44.40587" lon="4.45091">
        <ele>314.68466</ele>
        <time>2021-09-10T12:27:11</time>
      </trkpt>
      <trkpt lat="44.40593" lon="4.45048">
        <ele>314.68466</ele>
        <time>2021-09-10T12:27:14</time>
      </trkpt>
      <trkpt lat="44.40593" lon="4.45019">
        <ele>307.98465</ele>
        <time>2021-09-10T12:27:16</time>
      </trkpt>
      <trkpt lat="44.40592" lon="4.44848">
        <ele>292.318</ele>
        <time>2021-09-10T12:27:28</time>
      </trkpt>
      <trkpt lat="44.40608" lon="4.44776">
        <ele>292.318</ele>
        <time>2021-09-10T12:27:33</time>
      </trkpt>
      <trkpt lat="44.40626" lon="4.44669">
        <ele>286.98465</ele>
        <time>2021-09-10T12:27:40</time>
      </trkpt>
      <trkpt lat="44.40637" lon="4.4448">
        <ele>285.78467</ele>
        <time>2021-09-10T12:27:52</time>
      </trkpt>
      <trkpt lat="44.40633" lon="4.44448">
        <ele>285.78467</ele>
        <time>2021-09-10T12:27:54</time>
      </trkpt>
      <trkpt lat="44.40615" lon="4.44297">
        <ele>285.78467</ele>
        <time>2021-09-10T12:28:04</time>
      </trkpt>
      <trkpt lat="44.40617" lon="4.44282">
        <ele>285.78467</ele>
        <time>2021-09-10T12:28:05</time>
      </trkpt>
      <trkpt lat="44.40624" lon="4.44254">
        <ele>285.78467</ele>
        <time>2021-09-10T12:28:07</time>
      </trkpt>
      <trkpt lat="44.4064" lon="4.44214">
        <ele>285.78467</ele>
        <time>2021-09-10T12:28:10</time>
      </trkpt>
      <trkpt lat="44.40654" lon="4.44172">
        <ele>285.78467</ele>
        <time>2021-09-10T12:28:13</time>
      </trkpt>
      <trkpt lat="44.40661" lon="4.44125">
        <ele>285.78467</ele>
        <time>2021-09-10T12:28:16</time>
      </trkpt>
      <trkpt lat="44.40673" lon="4.44065">
        <ele>285.78467</ele>
        <time>2021-09-10T12:28:20</time>
      </trkpt>
      <trkpt lat="44.407" lon="4.43966">
        <ele>285.78467</ele>
        <time>2021-09-10T12:28:27</time>
      </trkpt>
      <trkpt lat="44.40717" lon="4.43811">
        <ele>285.78467</ele>
        <time>2021-09-10T12:28:37</time>
      </trkpt>
      <trkpt lat="44.40712" lon="4.43747">
        <ele>285.78467</ele>
        <time>2021-09-10T12:28:41</time>
      </trkpt>
      <trkpt lat="44.40693" lon="4.43581">
        <ele>242.68466</ele>
        <time>2021-09-10T12:28:52</time>
      </trkpt>
      <trkpt lat="44.40685" lon="4.43553">
        <ele>242.68466</ele>
        <time>2021-09-10T12:28:54</time>
      </trkpt>
      <trkpt lat="44.4067" lon="4.43495">
        <ele>231.05133</ele>
        <time>2021-09-10T12:28:58</time>
      </trkpt>
      <trkpt lat="44.40671" lon="4.43479">
        <ele>231.05133</ele>
        <time>2021-09-10T12:28:59</time>
      </trkpt>
      <trkpt lat="44.40675" lon="4.43465">
        <ele>231.05133</ele>
        <time>2021-09-10T12:29:00</time>
      </trkpt>
      <trkpt lat="44.40693" lon="4.43385">
        <ele>231.05133</ele>
        <time>2021-09-10T12:29:06</time>
      </trkpt>
      <trkpt lat="44.40692" lon="4.43358">
        <ele>224.38464</ele>
        <time>2021-09-10T12:29:08</time>
      </trkpt>
      <trkpt lat="44.40688" lon="4.43333">
        <ele>224.38464</ele>
        <time>2021-09-10T12:29:10</time>
      </trkpt>
      <trkpt lat="44.4068" lon="4.4331">
        <ele>224.38464</ele>
        <time>2021-09-10T12:29:12</time>
      </trkpt>
      <trkpt lat="44.40671" lon="4.43289">
        <ele>224.38464</ele>
        <time>2021-09-10T12:29:14</time>
      </trkpt>
      <trkpt lat="44.40658" lon="4.43271">
        <ele>224.38464</ele>
        <time>2021-09-10T12:29:16</time>
      </trkpt>
      <trkpt lat="44.40645" lon="4.43254">
        <ele>220.48465</ele>
        <time>2021-09-10T12:29:18</time>
      </trkpt>
      <trkpt lat="44.40598" lon="4.432">
        <ele>220.48465</ele>
        <time>2021-09-10T12:29:26</time>
      </trkpt>
      <trkpt lat="44.40598" lon="4.43197">
        <ele>220.48465</ele>
        <time>2021-09-10T12:29:27</time>
      </trkpt>
      <trkpt lat="44.40592" lon="4.4318">
        <ele>220.48465</ele>
        <time>2021-09-10T12:29:32</time>
      </trkpt>
      <trkpt lat="44.40587" lon="4.43169">
        <ele>220.48465</ele>
        <time>2021-09-10T12:29:34</time>
      </trkpt>
      <trkpt lat="44.40584" lon="4.43165">
        <ele>220.48465</ele>
        <time>2021-09-10T12:29:35</time>
      </trkpt>
      <trkpt lat="44.4058" lon="4.43163">
        <ele>220.48465</ele>
        <time>2021-09-10T12:29:36</time>
      </trkpt>
      <trkpt lat="44.40575" lon="4.43161">
        <ele>219.28467</ele>
        <time>2021-09-10T12:29:37</time>
      </trkpt>
      <trkpt lat="44.40569" lon="4.4316">
        <ele>219.28467</ele>
        <time>2021-09-10T12:29:38</time>
      </trkpt>
      <trkpt lat="44.40557" lon="4.43156">
        <ele>219.28467</ele>
        <time>2021-09-10T12:29:40</time>
      </trkpt>
      <trkpt lat="44.40552" lon="4.43151">
        <ele>219.28467</ele>
        <time>2021-09-10T12:29:41</time>
      </trkpt>
      <trkpt lat="44.40541" lon="4.43141">
        <ele>219.28467</ele>
        <time>2021-09-10T12:29:43</time>
      </trkpt>
      <trkpt lat="44.40466" lon="4.43058">
        <ele>213.48465</ele>
        <time>2021-09-10T12:29:57</time>
      </trkpt>
      <trkpt lat="44.40444" lon="4.43028">
        <ele>213.48465</ele>
        <time>2021-09-10T12:30:01</time>
      </trkpt>
      <trkpt lat="44.40433" lon="4.43009">
        <ele>213.48465</ele>
        <time>2021-09-10T12:30:03</time>
      </trkpt>
      <trkpt lat="44.40375" lon="4.42837">
        <ele>206.18466</ele>
        <time>2021-09-10T12:30:18</time>
      </trkpt>
      <trkpt lat="44.40372" lon="4.42813">
        <ele>206.18466</ele>
        <time>2021-09-10T12:30:20</time>
      </trkpt>
      <trkpt lat="44.40373" lon="4.42788">
        <ele>206.18466</ele>
        <time>2021-09-10T12:30:22</time>
      </trkpt>
      <trkpt lat="44.40378" lon="4.42764">
        <ele>206.18466</ele>
        <time>2021-09-10T12:30:24</time>
      </trkpt>
      <trkpt lat="44.40384" lon="4.42744">
        <ele>206.18466</ele>
        <time>2021-09-10T12:30:26</time>
      </trkpt>
      <trkpt lat="44.40392" lon="4.42724">
        <ele>200.68466</ele>
        <time>2021-09-10T12:30:28</time>
      </trkpt>
      <trkpt lat="44.40403" lon="4.42706">
        <ele>200.68466</ele>
        <time>2021-09-10T12:30:30</time>
      </trkpt>
      <trkpt lat="44.40415" lon="4.4269">
        <ele>200.68466</ele>
        <time>2021-09-10T12:30:32</time>
      </trkpt>
      <trkpt lat="44.40429" lon="4.42678">
        <ele>200.68466</ele>
        <time>2021-09-10T12:30:34</time>
      </trkpt>
      <trkpt lat="44.40444" lon="4.4267">
        <ele>200.68466</ele>
        <time>2021-09-10T12:30:36</time>
      </trkpt>
      <trkpt lat="44.40462" lon="4.42665">
        <ele>200.58466</ele>
        <time>2021-09-10T12:30:38</time>
      </trkpt>
      <trkpt lat="44.40527" lon="4.42648">
        <ele>200.58466</ele>
        <time>2021-09-10T12:30:46</time>
      </trkpt>
      <trkpt lat="44.40534" lon="4.42643">
        <ele>200.58466</ele>
        <time>2021-09-10T12:30:47</time>
      </trkpt>
      <trkpt lat="44.40541" lon="4.42635">
        <ele>200.58466</ele>
        <time>2021-09-10T12:30:48</time>
      </trkpt>
      <trkpt lat="44.40545" lon="4.42627">
        <ele>200.58466</ele>
        <time>2021-09-10T12:30:49</time>
      </trkpt>
      <trkpt lat="44.40554" lon="4.42607">
        <ele>200.58466</ele>
        <time>2021-09-10T12:30:51</time>
      </trkpt>
      <trkpt lat="44.40561" lon="4.42585">
        <ele>200.58466</ele>
        <time>2021-09-10T12:30:53</time>
      </trkpt>
      <trkpt lat="44.406" lon="4.42453">
        <ele>198.18466</ele>
        <time>2021-09-10T12:31:05</time>
      </trkpt>
      <trkpt lat="44.40619" lon="4.42399">
        <ele>196.58466</ele>
        <time>2021-09-10T12:31:10</time>
      </trkpt>
      <trkpt lat="44.40625" lon="4.42376">
        <ele>196.58466</ele>
        <time>2021-09-10T12:31:12</time>
      </trkpt>
      <trkpt lat="44.40632" lon="4.42302">
        <ele>192.28465</ele>
        <time>2021-09-10T12:31:18</time>
      </trkpt>
      <trkpt lat="44.40638" lon="4.42246">
        <ele>192.28465</ele>
        <time>2021-09-10T12:31:23</time>
      </trkpt>
      <trkpt lat="44.40642" lon="4.42236">
        <ele>192.28465</ele>
        <time>2021-09-10T12:31:24</time>
      </trkpt>
      <trkpt lat="44.40648" lon="4.42227">
        <ele>192.28465</ele>
        <time>2021-09-10T12:31:25</time>
      </trkpt>
      <trkpt lat="44.40654" lon="4.42224">
        <ele>192.28465</ele>
        <time>2021-09-10T12:31:26</time>
      </trkpt>
      <trkpt lat="44.40661" lon="4.42222">
        <ele>186.35132</ele>
        <time>2021-09-10T12:31:27</time>
      </trkpt>
      <trkpt lat="44.40668" lon="4.42222">
        <ele>186.35132</ele>
        <time>2021-09-10T12:31:28</time>
      </trkpt>
      <trkpt lat="44.40675" lon="4.42224">
        <ele>186.35132</ele>
        <time>2021-09-10T12:31:29</time>
      </trkpt>
      <trkpt lat="44.40742" lon="4.42258">
        <ele>182.58466</ele>
        <time>2021-09-10T12:31:38</time>
      </trkpt>
      <trkpt lat="44.40841" lon="4.42282">
        <ele>181.51799</ele>
        <time>2021-09-10T12:31:50</time>
      </trkpt>
      <trkpt lat="44.40849" lon="4.42279">
        <ele>181.51799</ele>
        <time>2021-09-10T12:31:51</time>
      </trkpt>
      <trkpt lat="44.40858" lon="4.42274">
        <ele>181.51799</ele>
        <time>2021-09-10T12:31:52</time>
      </trkpt>
      <trkpt lat="44.40866" lon="4.42263">
        <ele>181.51799</ele>
        <time>2021-09-10T12:31:53</time>
      </trkpt>
      <trkpt lat="44.40869" lon="4.4225">
        <ele>181.51799</ele>
        <time>2021-09-10T12:31:54</time>
      </trkpt>
      <trkpt lat="44.4087" lon="4.42235">
        <ele>181.51799</ele>
        <time>2021-09-10T12:31:55</time>
      </trkpt>
      <trkpt lat="44.40864" lon="4.42224">
        <ele>181.51799</ele>
        <time>2021-09-10T12:31:56</time>
      </trkpt>
      <trkpt lat="44.40859" lon="4.42212">
        <ele>181.28465</ele>
        <time>2021-09-10T12:31:57</time>
      </trkpt>
      <trkpt lat="44.40845" lon="4.42195">
        <ele>181.28465</ele>
        <time>2021-09-10T12:31:59</time>
      </trkpt>
      <trkpt lat="44.40766" lon="4.42105">
        <ele>173.38466</ele>
        <time>2021-09-10T12:32:09</time>
      </trkpt>
      <trkpt lat="44.40763" lon="4.42094">
        <ele>173.38466</ele>
        <time>2021-09-10T12:32:10</time>
      </trkpt>
      <trkpt lat="44.40763" lon="4.42083">
        <ele>173.38466</ele>
        <time>2021-09-10T12:32:11</time>
      </trkpt>
      <trkpt lat="44.40766" lon="4.4207">
        <ele>173.38466</ele>
        <time>2021-09-10T12:32:12</time>
      </trkpt>
      <trkpt lat="44.40772" lon="4.4206">
        <ele>173.38466</ele>
        <time>2021-09-10T12:32:13</time>
      </trkpt>
      <trkpt lat="44.40779" lon="4.42051">
        <ele>173.38466</ele>
        <time>2021-09-10T12:32:14</time>
      </trkpt>
      <trkpt lat="44.40788" lon="4.42044">
        <ele>173.38466</ele>
        <time>2021-09-10T12:32:15</time>
      </trkpt>
      <trkpt lat="44.40872" lon="4.41967">
        <ele>163.88466</ele>
        <time>2021-09-10T12:32:25</time>
      </trkpt>
      <trkpt lat="44.4093" lon="4.41898">
        <ele>163.88466</ele>
        <time>2021-09-10T12:32:32</time>
      </trkpt>
      <trkpt lat="44.40941" lon="4.41891">
        <ele>163.88466</ele>
        <time>2021-09-10T12:32:33</time>
      </trkpt>
      <trkpt lat="44.40963" lon="4.41884">
        <ele>163.88466</ele>
        <time>2021-09-10T12:32:35</time>
      </trkpt>
      <trkpt lat="44.4099" lon="4.41877">
        <ele>163.88466</ele>
        <time>2021-09-10T12:32:38</time>
      </trkpt>
      <trkpt lat="44.40995" lon="4.4187">
        <ele>163.88466</ele>
        <time>2021-09-10T12:32:39</time>
      </trkpt>
      <trkpt lat="44.40998" lon="4.41861">
        <ele>163.88466</ele>
        <time>2021-09-10T12:32:40</time>
      </trkpt>
      <trkpt lat="44.40999" lon="4.41852">
        <ele>163.88466</ele>
        <time>2021-09-10T12:32:41</time>
      </trkpt>
      <trkpt lat="44.40997" lon="4.41846">
        <ele>163.88466</ele>
        <time>2021-09-10T12:32:42</time>
      </trkpt>
      <trkpt lat="44.40994" lon="4.4184">
        <ele>163.88466</ele>
        <time>2021-09-10T12:32:43</time>
      </trkpt>
      <trkpt lat="44.40988" lon="4.41837">
        <ele>163.88466</ele>
        <time>2021-09-10T12:32:44</time>
      </trkpt>
      <trkpt lat="44.40982" lon="4.41837">
        <ele>163.88466</ele>
        <time>2021-09-10T12:32:45</time>
      </trkpt>
      <trkpt lat="44.40938" lon="4.41841">
        <ele>163.88466</ele>
        <time>2021-09-10T12:32:51</time>
      </trkpt>
      <trkpt lat="44.40922" lon="4.41848">
        <ele>163.88466</ele>
        <time>2021-09-10T12:32:53</time>
      </trkpt>
      <trkpt lat="44.40867" lon="4.41878">
        <ele>143.38466</ele>
        <time>2021-09-10T12:32:59</time>
      </trkpt>
      <trkpt lat="44.40821" lon="4.41902">
        <ele>143.38466</ele>
        <time>2021-09-10T12:33:04</time>
      </trkpt>
      <trkpt lat="44.40811" lon="4.41904">
        <ele>143.38466</ele>
        <time>2021-09-10T12:33:05</time>
      </trkpt>
      <trkpt lat="44.408" lon="4.41903">
        <ele>143.38466</ele>
        <time>2021-09-10T12:33:06</time>
      </trkpt>
      <trkpt lat="44.40729" lon="4.41895">
        <ele>143.38466</ele>
        <time>2021-09-10T12:33:13</time>
      </trkpt>
      <trkpt lat="44.4072" lon="4.41901">
        <ele>143.38466</ele>
        <time>2021-09-10T12:33:14</time>
      </trkpt>
      <trkpt lat="44.40692" lon="4.41918">
        <ele>122.48465</ele>
        <time>2021-09-10T12:33:17</time>
      </trkpt>
      <trkpt lat="44.40683" lon="4.41917">
        <ele>122.48465</ele>
        <time>2021-09-10T12:33:18</time>
      </trkpt>
      <trkpt lat="44.40674" lon="4.41912">
        <ele>122.48465</ele>
        <time>2021-09-10T12:33:19</time>
      </trkpt>
      <trkpt lat="44.40667" lon="4.41904">
        <ele>122.48465</ele>
        <time>2021-09-10T12:33:20</time>
      </trkpt>
      <trkpt lat="44.40653" lon="4.41884">
        <ele>122.48465</ele>
        <time>2021-09-10T12:33:22</time>
      </trkpt>
      <trkpt lat="44.40615" lon="4.4181">
        <ele>119.38466</ele>
        <time>2021-09-10T12:33:29</time>
      </trkpt>
      <trkpt lat="44.40613" lon="4.41798">
        <ele>119.38466</ele>
        <time>2021-09-10T12:33:30</time>
      </trkpt>
      <trkpt lat="44.40601" lon="4.41749">
        <ele>119.38466</ele>
        <time>2021-09-10T12:33:34</time>
      </trkpt>
      <trkpt lat="44.40594" lon="4.41738">
        <ele>119.38466</ele>
        <time>2021-09-10T12:33:35</time>
      </trkpt>
      <trkpt lat="44.40586" lon="4.41731">
        <ele>119.38466</ele>
        <time>2021-09-10T12:33:36</time>
      </trkpt>
      <trkpt lat="44.40576" lon="4.41726">
        <ele>112.98465</ele>
        <time>2021-09-10T12:33:37</time>
      </trkpt>
      <trkpt lat="44.40567" lon="4.41723">
        <ele>112.98465</ele>
        <time>2021-09-10T12:33:38</time>
      </trkpt>
      <trkpt lat="44.40525" lon="4.41717">
        <ele>112.98465</ele>
        <time>2021-09-10T12:33:42</time>
      </trkpt>
      <trkpt lat="44.40491" lon="4.41719">
        <ele>112.98465</ele>
        <time>2021-09-10T12:33:45</time>
      </trkpt>
      <trkpt lat="44.40435" lon="4.4173">
        <ele>112.98465</ele>
        <time>2021-09-10T12:33:50</time>
      </trkpt>
      <trkpt lat="44.40424" lon="4.41735">
        <ele>112.98465</ele>
        <time>2021-09-10T12:33:51</time>
      </trkpt>
      <trkpt lat="44.40404" lon="4.41751">
        <ele>112.98465</ele>
        <time>2021-09-10T12:33:53</time>
      </trkpt>
      <trkpt lat="44.40375" lon="4.41772">
        <ele>112.98465</ele>
        <time>2021-09-10T12:33:56</time>
      </trkpt>
      <trkpt lat="44.40354" lon="4.41778">
        <ele>112.98465</ele>
        <time>2021-09-10T12:33:58</time>
      </trkpt>
      <trkpt lat="44.40337" lon="4.41787">
        <ele>112.98465</ele>
        <time>2021-09-10T12:34:00</time>
      </trkpt>
      <trkpt lat="44.40328" lon="4.41795">
        <ele>112.98465</ele>
        <time>2021-09-10T12:34:01</time>
      </trkpt>
      <trkpt lat="44.40321" lon="4.41806">
        <ele>112.98465</ele>
        <time>2021-09-10T12:34:02</time>
      </trkpt>
      <trkpt lat="44.40314" lon="4.41818">
        <ele>112.98465</ele>
        <time>2021-09-10T12:34:03</time>
      </trkpt>
      <trkpt lat="44.40286" lon="4.41863">
        <ele>90.48465</ele>
        <time>2021-09-10T12:34:07</time>
      </trkpt>
      <trkpt lat="44.40279" lon="4.41869">
        <ele>90.48465</ele>
        <time>2021-09-10T12:34:08</time>
      </trkpt>
      <trkpt lat="44.4027" lon="4.41871">
        <ele>90.48465</ele>
        <time>2021-09-10T12:34:09</time>
      </trkpt>
      <trkpt lat="44.40261" lon="4.41869">
        <ele>90.48465</ele>
        <time>2021-09-10T12:34:10</time>
      </trkpt>
      <trkpt lat="44.40255" lon="4.41865">
        <ele>90.48465</ele>
        <time>2021-09-10T12:34:11</time>
      </trkpt>
      <trkpt lat="44.40222" lon="4.41845">
        <ele>90.48465</ele>
        <time>2021-09-10T12:34:15</time>
      </trkpt>
      <trkpt lat="44.40213" lon="4.41846">
        <ele>90.48465</ele>
        <time>2021-09-10T12:34:16</time>
      </trkpt>
      <trkpt lat="44.40204" lon="4.41849">
        <ele>81.38466</ele>
        <time>2021-09-10T12:34:17</time>
      </trkpt>
      <trkpt lat="44.40197" lon="4.41857">
        <ele>81.38466</ele>
        <time>2021-09-10T12:34:18</time>
      </trkpt>
      <trkpt lat="44.4019" lon="4.41865">
        <ele>81.38466</ele>
        <time>2021-09-10T12:34:19</time>
      </trkpt>
      <trkpt lat="44.40167" lon="4.41894">
        <ele>81.38466</ele>
        <time>2021-09-10T12:34:23</time>
      </trkpt>
      <trkpt lat="44.40161" lon="4.41895">
        <ele>81.38466</ele>
        <time>2021-09-10T12:34:24</time>
      </trkpt>
      <trkpt lat="44.40156" lon="4.41889">
        <ele>81.38466</ele>
        <time>2021-09-10T12:34:25</time>
      </trkpt>
      <trkpt lat="44.40153" lon="4.41883">
        <ele>81.38466</ele>
        <time>2021-09-10T12:34:26</time>
      </trkpt>
      <trkpt lat="44.40154" lon="4.41874">
        <ele>78.48465</ele>
        <time>2021-09-10T12:34:27</time>
      </trkpt>
      <trkpt lat="44.40158" lon="4.41865">
        <ele>78.48465</ele>
        <time>2021-09-10T12:34:28</time>
      </trkpt>
      <trkpt lat="44.40165" lon="4.4186">
        <ele>78.48465</ele>
        <time>2021-09-10T12:34:29</time>
      </trkpt>
      <trkpt lat="44.40211" lon="4.41819">
        <ele>78.48465</ele>
        <time>2021-09-10T12:34:35</time>
      </trkpt>
      <trkpt lat="44.4023" lon="4.41804">
        <ele>73.684654</ele>
        <time>2021-09-10T12:34:37</time>
      </trkpt>
      <trkpt lat="44.40265" lon="4.41778">
        <ele>73.684654</ele>
        <time>2021-09-10T12:34:41</time>
      </trkpt>
      <trkpt lat="44.4027" lon="4.41768">
        <ele>73.684654</ele>
        <time>2021-09-10T12:34:42</time>
      </trkpt>
      <trkpt lat="44.40276" lon="4.41754">
        <ele>73.684654</ele>
        <time>2021-09-10T12:34:43</time>
      </trkpt>
      <trkpt lat="44.40297" lon="4.41721">
        <ele>73.684654</ele>
        <time>2021-09-10T12:34:46</time>
      </trkpt>
      <trkpt lat="44.40317" lon="4.41699">
        <ele>71.684654</ele>
        <time>2021-09-10T12:34:48</time>
      </trkpt>
      <trkpt lat="44.40325" lon="4.41686">
        <ele>71.684654</ele>
        <time>2021-09-10T12:34:49</time>
      </trkpt>
      <trkpt lat="44.40343" lon="4.41646">
        <ele>71.684654</ele>
        <time>2021-09-10T12:34:52</time>
      </trkpt>
      <trkpt lat="44.40361" lon="4.41624">
        <ele>71.684654</ele>
        <time>2021-09-10T12:34:54</time>
      </trkpt>
      <trkpt lat="44.40371" lon="4.41617">
        <ele>71.684654</ele>
        <time>2021-09-10T12:34:55</time>
      </trkpt>
      <trkpt lat="44.40417" lon="4.41571">
        <ele>58.75132</ele>
        <time>2021-09-10T12:35:00</time>
      </trkpt>
      <trkpt lat="44.40423" lon="4.41557">
        <ele>58.75132</ele>
        <time>2021-09-10T12:35:01</time>
      </trkpt>
      <trkpt lat="44.40427" lon="4.41542">
        <ele>58.75132</ele>
        <time>2021-09-10T12:35:02</time>
      </trkpt>
      <trkpt lat="44.4043" lon="4.41528">
        <ele>58.75132</ele>
        <time>2021-09-10T12:35:03</time>
      </trkpt>
      <trkpt lat="44.40429" lon="4.41513">
        <ele>58.75132</ele>
        <time>2021-09-10T12:35:04</time>
      </trkpt>
      <trkpt lat="44.40424" lon="4.41501">
        <ele>58.75132</ele>
        <time>2021-09-10T12:35:05</time>
      </trkpt>
      <trkpt lat="44.4042" lon="4.41489">
        <ele>58.75132</ele>
        <time>2021-09-10T12:35:06</time>
      </trkpt>
      <trkpt lat="44.40377" lon="4.41377">
        <ele>53.38466</ele>
        <time>2021-09-10T12:35:17</time>
      </trkpt>
      <trkpt lat="44.40378" lon="4.41367">
        <ele>53.38466</ele>
        <time>2021-09-10T12:35:18</time>
      </trkpt>
      <trkpt lat="44.40379" lon="4.41357">
        <ele>53.38466</ele>
        <time>2021-09-10T12:35:19</time>
      </trkpt>
      <trkpt lat="44.40382" lon="4.41348">
        <ele>53.38466</ele>
        <time>2021-09-10T12:35:20</time>
      </trkpt>
      <trkpt lat="44.40386" lon="4.4134">
        <ele>53.38466</ele>
        <time>2021-09-10T12:35:21</time>
      </trkpt>
      <trkpt lat="44.40391" lon="4.41334">
        <ele>53.38466</ele>
        <time>2021-09-10T12:35:22</time>
      </trkpt>
      <trkpt lat="44.40448" lon="4.41245">
        <ele>53.484657</ele>
        <time>2021-09-10T12:35:36</time>
      </trkpt>
      <trkpt lat="44.40456" lon="4.41221">
        <ele>54.88466</ele>
        <time>2021-09-10T12:35:39</time>
      </trkpt>
      <trkpt lat="44.40468" lon="4.4119">
        <ele>54.88466</ele>
        <time>2021-09-10T12:35:43</time>
      </trkpt>
      <trkpt lat="44.4048" lon="4.41172">
        <ele>54.88466</ele>
        <time>2021-09-10T12:35:46</time>
      </trkpt>
      <trkpt lat="44.40483" lon="4.41167">
        <ele>55.584656</ele>
        <time>2021-09-10T12:35:47</time>
      </trkpt>
      <trkpt lat="44.40494" lon="4.41159">
        <ele>55.584656</ele>
        <time>2021-09-10T12:35:49</time>
      </trkpt>
      <trkpt lat="44.40516" lon="4.4115">
        <ele>55.584656</ele>
        <time>2021-09-10T12:35:53</time>
      </trkpt>
      <trkpt lat="44.40565" lon="4.41127">
        <ele>53.984657</ele>
        <time>2021-09-10T12:36:02</time>
      </trkpt>
      <trkpt lat="44.40588" lon="4.41107">
        <ele>56.88466</ele>
        <time>2021-09-10T12:36:07</time>
      </trkpt>
      <trkpt lat="44.40679" lon="4.40993">
        <ele>59.984657</ele>
        <time>2021-09-10T12:36:29</time>
      </trkpt>
      <trkpt lat="44.4078" lon="4.4086">
        <ele>51.38466</ele>
        <time>2021-09-10T12:36:54</time>
      </trkpt>
      <trkpt lat="44.40822" lon="4.408">
        <ele>52.38466</ele>
        <time>2021-09-10T12:37:06</time>
      </trkpt>
      <trkpt lat="44.40835" lon="4.40779">
        <ele>52.38466</ele>
        <time>2021-09-10T12:37:10</time>
      </trkpt>
      <trkpt lat="44.40845" lon="4.40752">
        <ele>52.38466</ele>
        <time>2021-09-10T12:37:14</time>
      </trkpt>
      <trkpt lat="44.4085" lon="4.40735">
        <ele>52.38466</ele>
        <time>2021-09-10T12:37:16</time>
      </trkpt>
      <trkpt lat="44.40856" lon="4.40706">
        <ele>51.584656</ele>
        <time>2021-09-10T12:37:20</time>
      </trkpt>
      <trkpt lat="44.40864" lon="4.40636">
        <ele>49.084656</ele>
        <time>2021-09-10T12:37:29</time>
      </trkpt>
      <trkpt lat="44.40867" lon="4.40629">
        <ele>49.084656</ele>
        <time>2021-09-10T12:37:30</time>
      </trkpt>
      <trkpt lat="44.4087" lon="4.40623">
        <ele>49.084656</ele>
        <time>2021-09-10T12:37:31</time>
      </trkpt>
      <trkpt lat="44.40877" lon="4.40612">
        <ele>49.084656</ele>
        <time>2021-09-10T12:37:33</time>
      </trkpt>
      <trkpt lat="44.40878" lon="4.40605">
        <ele>49.084656</ele>
        <time>2021-09-10T12:37:34</time>
      </trkpt>
      <trkpt lat="44.40878" lon="4.40597">
        <ele>49.084656</ele>
        <time>2021-09-10T12:37:35</time>
      </trkpt>
      <trkpt lat="44.40878" lon="4.40589">
        <ele>49.084656</ele>
        <time>2021-09-10T12:37:36</time>
      </trkpt>
      <trkpt lat="44.40878" lon="4.40573">
        <ele>46.25132</ele>
        <time>2021-09-10T12:37:38</time>
      </trkpt>
      <trkpt lat="44.4088" lon="4.40558">
        <ele>46.25132</ele>
        <time>2021-09-10T12:37:40</time>
      </trkpt>
      <trkpt lat="44.40917" lon="4.40316">
        <ele>52.484657</ele>
        <time>2021-09-10T12:38:10</time>
      </trkpt>
      <trkpt lat="44.40925" lon="4.40262">
        <ele>55.284653</ele>
        <time>2021-09-10T12:38:17</time>
      </trkpt>
      <trkpt lat="44.40923" lon="4.40242">
        <ele>55.284653</ele>
        <time>2021-09-10T12:38:20</time>
      </trkpt>
      <trkpt lat="44.40923" lon="4.40235">
        <ele>55.284653</ele>
        <time>2021-09-10T12:38:21</time>
      </trkpt>
      <trkpt lat="44.40923" lon="4.40224">
        <ele>55.284653</ele>
        <time>2021-09-10T12:38:23</time>
      </trkpt>
      <trkpt lat="44.40925" lon="4.4022">
        <ele>55.284653</ele>
        <time>2021-09-10T12:38:24</time>
      </trkpt>
      <trkpt lat="44.40929" lon="4.40217">
        <ele>55.284653</ele>
        <time>2021-09-10T12:38:25</time>
      </trkpt>
      <trkpt lat="44.40933" lon="4.40217">
        <ele>55.284653</ele>
        <time>2021-09-10T12:38:26</time>
      </trkpt>
      <trkpt lat="44.40937" lon="4.40218">
        <ele>57.084656</ele>
        <time>2021-09-10T12:38:27</time>
      </trkpt>
      <trkpt lat="44.40945" lon="4.40221">
        <ele>57.084656</ele>
        <time>2021-09-10T12:38:29</time>
      </trkpt>
      <trkpt lat="44.40953" lon="4.40223">
        <ele>57.084656</ele>
        <time>2021-09-10T12:38:31</time>
      </trkpt>
      <trkpt lat="44.40964" lon="4.40225">
        <ele>57.084656</ele>
        <time>2021-09-10T12:38:34</time>
      </trkpt>
      <trkpt lat="44.40978" lon="4.40226">
        <ele>56.484657</ele>
        <time>2021-09-10T12:38:38</time>
      </trkpt>
      <trkpt lat="44.40984" lon="4.40225">
        <ele>56.484657</ele>
        <time>2021-09-10T12:38:40</time>
      </trkpt>
      <trkpt lat="44.40986" lon="4.40223">
        <ele>56.484657</ele>
        <time>2021-09-10T12:38:41</time>
      </trkpt>
      <trkpt lat="44.40988" lon="4.40219">
        <ele>56.484657</ele>
        <time>2021-09-10T12:38:42</time>
      </trkpt>
      <trkpt lat="44.40988" lon="4.40212">
        <ele>56.484657</ele>
        <time>2021-09-10T12:38:44</time>
      </trkpt>
      <trkpt lat="44.40986" lon="4.40209">
        <ele>56.484657</ele>
        <time>2021-09-10T12:38:45</time>
      </trkpt>
      <trkpt lat="44.40979" lon="4.40206">
        <ele>59.584656</ele>
        <time>2021-09-10T12:38:47</time>
      </trkpt>
      <trkpt lat="44.40959" lon="4.40201">
        <ele>59.584656</ele>
        <time>2021-09-10T12:38:52</time>
      </trkpt>
      <trkpt lat="44.40956" lon="4.40199">
        <ele>59.584656</ele>
        <time>2021-09-10T12:38:53</time>
      </trkpt>
      <trkpt lat="44.40952" lon="4.40195">
        <ele>59.584656</ele>
        <time>2021-09-10T12:38:54</time>
      </trkpt>
      <trkpt lat="44.4094" lon="4.40181">
        <ele>58.084656</ele>
        <time>2021-09-10T12:38:58</time>
      </trkpt>
      <trkpt lat="44.40939" lon="4.4017">
        <ele>58.084656</ele>
        <time>2021-09-10T12:39:00</time>
      </trkpt>
      <trkpt lat="44.4094" lon="4.4016">
        <ele>58.084656</ele>
        <time>2021-09-10T12:39:02</time>
      </trkpt>
      <trkpt lat="44.40941" lon="4.40151">
        <ele>58.084656</ele>
        <time>2021-09-10T12:39:04</time>
      </trkpt>
      <trkpt lat="44.40942" lon="4.40146">
        <ele>54.584656</ele>
        <time>2021-09-10T12:39:08</time>
      </trkpt>
      <trkpt lat="44.40942" lon="4.40146">
        <ele>54.984657</ele>
        <time>2021-09-10T12:39:44</time>
      </trkpt>
      <trkpt lat="44.40942" lon="4.40145">
        <ele>54.984657</ele>
        <time>2021-09-10T12:39:45</time>
      </trkpt>
      <trkpt lat="44.40942" lon="4.40144">
        <ele>54.984657</ele>
        <time>2021-09-10T12:39:46</time>
      </trkpt>
      <trkpt lat="44.40942" lon="4.40143">
        <ele>54.984657</ele>
        <time>2021-09-10T12:39:47</time>
      </trkpt>
      <trkpt lat="44.40942" lon="4.40141">
        <ele>54.984657</ele>
        <time>2021-09-10T12:39:52</time>
      </trkpt>
      <trkpt lat="44.40942" lon="4.40141">
        <ele>54.984657</ele>
        <time>2021-09-10T12:39:53</time>
      </trkpt>
      <trkpt lat="44.40942" lon="4.40143">
        <ele>54.984657</ele>
        <time>2021-09-10T12:39:55</time>
      </trkpt>
      <trkpt lat="44.40941" lon="4.40145">
        <ele>54.984657</ele>
        <time>2021-09-10T12:39:56</time>
      </trkpt>
      <trkpt lat="44.40941" lon="4.40147">
        <ele>56.984657</ele>
        <time>2021-09-10T12:39:59</time>
      </trkpt>
      <trkpt lat="44.40941" lon="4.40148">
        <ele>56.984657</ele>
        <time>2021-09-10T12:40:00</time>
      </trkpt>
      <trkpt lat="44.40941" lon="4.4015">
        <ele>53.784653</ele>
        <time>2021-09-10T12:40:18</time>
      </trkpt>
      <trkpt lat="44.40941" lon="4.40151">
        <ele>53.784653</ele>
        <time>2021-09-10T12:40:19</time>
      </trkpt>
    </trkseg>
  </trk>
</gpx>